Wetterdaten: Freitag, 03.05.2019
Datum Zeit Temp. A. Feuchte A. Luftdruck Regen Wind Richtung Richtung Sonnenschein ET UV Solar Taupunkt Windchill Windböen
03.05.2019 00:00 6,9 °C 90 % 1008,4 hPa 0,2 mm 2,9 km/h (1 Bft) W-SW 245 ° 0 min 0,000 mm 0,0 UV-I 0 W/m² 5,4 °C 6,9 °C 6,4 km/h (2 Bft)
03.05.2019 00:01 6,9 °C 90 % 1008,5 hPa 0,0 mm 5,8 km/h (2 Bft) SW 234 ° 0 min 0,000 mm 0,0 UV-I 0 W/m² 5,4 °C 6,0 °C 8,0 km/h (2 Bft)
03.05.2019 00:02 6,9 °C 90 % 1008,5 hPa 0,0 mm 4,7 km/h (1 Bft) SW 236 ° 0 min 0,000 mm 0,0 UV-I 0 W/m² 5,4 °C 6,3 °C 8,0 km/h (2 Bft)
03.05.2019 00:03 6,9 °C 90 % 1008,5 hPa 0,0 mm 5,3 km/h (1 Bft) W-SW 238 ° 0 min 0,000 mm 0,0 UV-I 0 W/m² 5,4 °C 6,1 °C 12,9 km/h (3 Bft)
03.05.2019 00:04 6,9 °C 90 % 1008,5 hPa 0,0 mm 5,8 km/h (2 Bft) W-SW 250 ° 0 min 0,000 mm 0,0 UV-I 0 W/m² 5,4 °C 6,0 °C 8,0 km/h (2 Bft)
03.05.2019 00:05 6,9 °C 90 % 1008,5 hPa 0,0 mm 4,3 km/h (1 Bft) W 268 ° 0 min 0,000 mm 0,0 UV-I 0 W/m² 5,4 °C 6,9 °C 9,7 km/h (2 Bft)
03.05.2019 00:06 6,9 °C 90 % 1008,5 hPa 0,0 mm 3,6 km/h (1 Bft) SW 227 ° 0 min 0,000 mm 0,0 UV-I 0 W/m² 5,4 °C 6,9 °C 8,0 km/h (2 Bft)
03.05.2019 00:07 6,9 °C 90 % 1008,5 hPa 0,0 mm 5,2 km/h (1 Bft) W 259 ° 0 min 0,000 mm 0,0 UV-I 0 W/m² 5,4 °C 6,2 °C 6,4 km/h (2 Bft)
03.05.2019 00:08 6,9 °C 90 % 1008,5 hPa 0,0 mm 5,7 km/h (1 Bft) W-SW 256 ° 0 min 0,000 mm 0,0 UV-I 0 W/m² 5,4 °C 6,0 °C 11,3 km/h (2 Bft)
03.05.2019 00:09 6,9 °C 90 % 1008,5 hPa 0,0 mm 4,1 km/h (1 Bft) W-SW 237 ° 0 min 0,000 mm 0,0 UV-I 0 W/m² 5,4 °C 6,9 °C 6,4 km/h (2 Bft)
03.05.2019 00:10 6,9 °C 90 % 1008,5 hPa 0,0 mm 7,2 km/h (2 Bft) SW 235 ° 0 min 0,000 mm 0,0 UV-I 0 W/m² 5,4 °C 5,6 °C 12,9 km/h (3 Bft)
03.05.2019 00:11 6,9 °C 90 % 1008,5 hPa 0,0 mm 6,2 km/h (2 Bft) W-SW 252 ° 0 min 0,000 mm 0,0 UV-I 0 W/m² 5,4 °C 5,8 °C 9,7 km/h (2 Bft)
03.05.2019 00:12 6,9 °C 90 % 1008,5 hPa 0,0 mm 3,5 km/h (1 Bft) W-SW 249 ° 0 min 0,000 mm 0,0 UV-I 0 W/m² 5,4 °C 6,9 °C 8,0 km/h (2 Bft)
03.05.2019 00:13 6,9 °C 90 % 1008,5 hPa 0,0 mm 6,1 km/h (2 Bft) W-SW 256 ° 0 min 0,000 mm 0,0 UV-I 0 W/m² 5,4 °C 5,9 °C 12,9 km/h (3 Bft)
03.05.2019 00:14 6,8 °C 90 % 1008,5 hPa 0,0 mm 8,4 km/h (2 Bft) SW 227 ° 0 min 0,000 mm 0,0 UV-I 0 W/m² 5,3 °C 5,2 °C 12,9 km/h (3 Bft)
03.05.2019 00:15 6,8 °C 90 % 1008,5 hPa 0,0 mm 3,4 km/h (1 Bft) SW 235 ° 0 min 0,000 mm 0,0 UV-I 0 W/m² 5,3 °C 6,8 °C 6,4 km/h (2 Bft)
03.05.2019 00:16 6,8 °C 90 % 1008,5 hPa 0,0 mm 4,8 km/h (1 Bft) W 261 ° 0 min 0,000 mm 0,0 UV-I 0 W/m² 5,3 °C 6,2 °C 11,3 km/h (2 Bft)
03.05.2019 00:17 6,8 °C 90 % 1008,5 hPa 0,0 mm 1,6 km/h (1 Bft) SW 229 ° 0 min 0,000 mm 0,0 UV-I 0 W/m² 5,3 °C 6,8 °C 6,4 km/h (2 Bft)
03.05.2019 00:18 6,8 °C 90 % 1008,5 hPa 0,0 mm 5,3 km/h (1 Bft) SW 229 ° 0 min 0,000 mm 0,0 UV-I 0 W/m² 5,3 °C 6,0 °C 11,3 km/h (2 Bft)
03.05.2019 00:19 6,8 °C 90 % 1008,5 hPa 0,0 mm 3,5 km/h (1 Bft) SW 232 ° 0 min 0,000 mm 0,0 UV-I 0 W/m² 5,3 °C 6,8 °C 4,8 km/h (1 Bft)
03.05.2019 00:20 6,8 °C 90 % 1008,5 hPa 0,0 mm 6,9 km/h (2 Bft) SW 227 ° 0 min 0,000 mm 0,0 UV-I 0 W/m² 5,3 °C 5,5 °C 11,3 km/h (2 Bft)
03.05.2019 00:21 6,8 °C 90 % 1008,5 hPa 0,0 mm 4,2 km/h (1 Bft) S-SW 202 ° 0 min 0,000 mm 0,0 UV-I 0 W/m² 5,3 °C 6,8 °C 9,7 km/h (2 Bft)
03.05.2019 00:22 6,8 °C 90 % 1008,5 hPa 0,0 mm 5,1 km/h (1 Bft) W-SW 250 ° 0 min 0,000 mm 0,0 UV-I 0 W/m² 5,3 °C 6,1 °C 11,3 km/h (2 Bft)
03.05.2019 00:23 6,8 °C 90 % 1008,5 hPa 0,0 mm 8,0 km/h (2 Bft) W 266 ° 0 min 0,000 mm 0,0 UV-I 0 W/m² 5,3 °C 5,2 °C 14,5 km/h (3 Bft)
03.05.2019 00:24 6,8 °C 90 % 1008,5 hPa 0,0 mm 4,4 km/h (1 Bft) S 189 ° 0 min 0,000 mm 0,0 UV-I 0 W/m² 5,3 °C 6,8 °C 8,0 km/h (2 Bft)
03.05.2019 00:25 6,8 °C 90 % 1008,5 hPa 0,0 mm 8,4 km/h (2 Bft) W-SW 257 ° 0 min 0,000 mm 0,0 UV-I 0 W/m² 5,3 °C 5,2 °C 14,5 km/h (3 Bft)
03.05.2019 00:26 6,8 °C 90 % 1008,5 hPa 0,0 mm 5,7 km/h (1 Bft) W 260 ° 0 min 0,000 mm 0,0 UV-I 0 W/m² 5,3 °C 5,9 °C 9,7 km/h (2 Bft)
03.05.2019 00:27 6,8 °C 90 % 1008,5 hPa 0,0 mm 1,6 km/h (1 Bft) S 184 ° 0 min 0,000 mm 0,0 UV-I 0 W/m² 5,3 °C 6,8 °C 6,4 km/h (2 Bft)
03.05.2019 00:28 6,8 °C 90 % 1008,5 hPa 0,0 mm 1,7 km/h (1 Bft) W-SW 257 ° 0 min 0,000 mm 0,0 UV-I 0 W/m² 5,3 °C 6,8 °C 6,4 km/h (2 Bft)
03.05.2019 00:29 6,8 °C 90 % 1008,6 hPa 0,0 mm 7,5 km/h (2 Bft) W-SW 243 ° 0 min 0,000 mm 0,0 UV-I 0 W/m² 5,3 °C 5,4 °C 14,5 km/h (3 Bft)
03.05.2019 00:30 6,8 °C 90 % 1008,6 hPa 0,0 mm 7,9 km/h (2 Bft) W-SW 247 ° 0 min 0,000 mm 0,0 UV-I 0 W/m² 5,3 °C 5,3 °C 16,1 km/h (3 Bft)
03.05.2019 00:31 6,8 °C 90 % 1008,6 hPa 0,0 mm 3,1 km/h (1 Bft) W-SW 240 ° 0 min 0,000 mm 0,0 UV-I 0 W/m² 5,3 °C 6,8 °C 6,4 km/h (2 Bft)
03.05.2019 00:32 6,8 °C 90 % 1008,7 hPa 0,2 mm 5,5 km/h (1 Bft) W-SW 241 ° 0 min 0,000 mm 0,0 UV-I 0 W/m² 5,3 °C 6,0 °C 9,7 km/h (2 Bft)
03.05.2019 00:33 6,8 °C 90 % 1008,6 hPa 0,0 mm 4,8 km/h (1 Bft) W-SW 255 ° 0 min 0,000 mm 0,0 UV-I 0 W/m² 5,3 °C 6,2 °C 8,0 km/h (2 Bft)
03.05.2019 00:34 6,7 °C 90 % 1008,6 hPa 0,0 mm 8,6 km/h (2 Bft) SW 219 ° 0 min 0,000 mm 0,0 UV-I 0 W/m² 5,2 °C 5,0 °C 16,1 km/h (3 Bft)
03.05.2019 00:35 6,7 °C 90 % 1008,6 hPa 0,0 mm 5,9 km/h (2 Bft) SW 232 ° 0 min 0,000 mm 0,0 UV-I 0 W/m² 5,2 °C 5,7 °C 14,5 km/h (3 Bft)
03.05.2019 00:36 6,7 °C 90 % 1008,5 hPa 0,0 mm 10,7 km/h (2 Bft) SW 219 ° 0 min 0,000 mm 0,0 UV-I 0 W/m² 5,2 °C 4,6 °C 16,1 km/h (3 Bft)
03.05.2019 00:37 6,7 °C 90 % 1008,6 hPa 0,0 mm 6,4 km/h (2 Bft) W-SW 252 ° 0 min 0,000 mm 0,0 UV-I 0 W/m² 5,2 °C 5,6 °C 11,3 km/h (2 Bft)
03.05.2019 00:38 6,7 °C 90 % 1008,5 hPa 0,0 mm 8,4 km/h (2 Bft) W-SW 257 ° 0 min 0,000 mm 0,0 UV-I 0 W/m² 5,2 °C 5,0 °C 14,5 km/h (3 Bft)
03.05.2019 00:39 6,7 °C 90 % 1008,5 hPa 0,0 mm 8,2 km/h (2 Bft) SW 233 ° 0 min 0,000 mm 0,0 UV-I 0 W/m² 5,2 °C 5,1 °C 12,9 km/h (3 Bft)
03.05.2019 00:40 6,7 °C 90 % 1008,6 hPa 0,0 mm 6,1 km/h (2 Bft) W 267 ° 0 min 0,000 mm 0,0 UV-I 0 W/m² 5,2 °C 5,6 °C 11,3 km/h (2 Bft)
03.05.2019 00:41 6,7 °C 90 % 1008,5 hPa 0,0 mm 4,8 km/h (1 Bft) SW 221 ° 0 min 0,000 mm 0,0 UV-I 0 W/m² 5,2 °C 6,1 °C 8,0 km/h (2 Bft)
03.05.2019 00:42 6,7 °C 90 % 1008,5 hPa 0,0 mm 1,9 km/h (1 Bft) S-SW 207 ° 0 min 0,000 mm 0,0 UV-I 0 W/m² 5,2 °C 6,7 °C 3,2 km/h (1 Bft)
03.05.2019 00:43 6,7 °C 90 % 1008,5 hPa 0,0 mm 4,1 km/h (1 Bft) SW 232 ° 0 min 0,000 mm 0,0 UV-I 0 W/m² 5,2 °C 6,7 °C 8,0 km/h (2 Bft)
03.05.2019 00:44 6,7 °C 90 % 1008,5 hPa 0,0 mm 5,7 km/h (1 Bft) W-SW 245 ° 0 min 0,000 mm 0,0 UV-I 0 W/m² 5,2 °C 5,8 °C 9,7 km/h (2 Bft)
03.05.2019 00:45 6,7 °C 90 % 1008,5 hPa 0,2 mm 4,4 km/h (1 Bft) SW 214 ° 0 min 0,000 mm 0,0 UV-I 0 W/m² 5,2 °C 6,7 °C 6,4 km/h (2 Bft)
03.05.2019 00:46 6,7 °C 90 % 1008,5 hPa 0,0 mm 3,3 km/h (1 Bft) W-SW 240 ° 0 min 0,000 mm 0,0 UV-I 0 W/m² 5,2 °C 6,7 °C 8,0 km/h (2 Bft)
03.05.2019 00:47 6,7 °C 90 % 1008,5 hPa 0,0 mm 2,2 km/h (1 Bft) SW 220 ° 0 min 0,000 mm 0,0 UV-I 0 W/m² 5,2 °C 6,7 °C 8,0 km/h (2 Bft)
03.05.2019 00:48 6,7 °C 90 % 1008,5 hPa 0,0 mm 4,5 km/h (1 Bft) W-SW 250 ° 0 min 0,000 mm 0,0 UV-I 0 W/m² 5,2 °C 6,7 °C 6,4 km/h (2 Bft)
03.05.2019 00:49 6,6 °C 90 % 1008,5 hPa 0,0 mm 0,8 km/h (0 Bft) W-SW 250 ° 0 min 0,000 mm 0,0 UV-I 0 W/m² 5,1 °C 6,6 °C 1,6 km/h (1 Bft)
03.05.2019 00:50 6,6 °C 91 % 1008,4 hPa 0,0 mm 1,1 km/h (1 Bft) S 187 ° 0 min 0,000 mm 0,0 UV-I 0 W/m² 5,2 °C 6,6 °C 3,2 km/h (1 Bft)
03.05.2019 00:51 6,6 °C 91 % 1008,4 hPa 0,2 mm 1,0 km/h (0 Bft) S 190 ° 0 min 0,000 mm 0,0 UV-I 0 W/m² 5,2 °C 6,6 °C 4,8 km/h (1 Bft)
03.05.2019 00:52 6,6 °C 91 % 1008,4 hPa 0,0 mm 0,0 km/h (0 Bft) S 190 ° 0 min 0,000 mm 0,0 UV-I 0 W/m² 5,2 °C 6,6 °C 0,0 km/h (0 Bft)
03.05.2019 00:53 6,6 °C 91 % 1008,4 hPa 0,0 mm 3,2 km/h (1 Bft) W 263 ° 0 min 0,000 mm 0,0 UV-I 0 W/m² 5,2 °C 6,6 °C 9,7 km/h (2 Bft)
03.05.2019 00:54 6,6 °C 91 % 1008,4 hPa 0,0 mm 3,4 km/h (1 Bft) W 268 ° 0 min 0,000 mm 0,0 UV-I 0 W/m² 5,2 °C 6,6 °C 4,8 km/h (1 Bft)
03.05.2019 00:55 6,6 °C 91 % 1008,4 hPa 0,0 mm 2,3 km/h (1 Bft) W 266 ° 0 min 0,000 mm 0,0 UV-I 0 W/m² 5,2 °C 6,6 °C 4,8 km/h (1 Bft)
03.05.2019 00:56 6,6 °C 91 % 1008,4 hPa 0,0 mm 0,7 km/h (0 Bft) W 269 ° 0 min 0,000 mm 0,0 UV-I 0 W/m² 5,2 °C 6,6 °C 3,2 km/h (1 Bft)
03.05.2019 00:57 6,6 °C 91 % 1008,4 hPa 0,0 mm 0,9 km/h (0 Bft) W 267 ° 0 min 0,000 mm 0,0 UV-I 0 W/m² 5,2 °C 6,6 °C 3,2 km/h (1 Bft)
03.05.2019 00:58 6,6 °C 91 % 1008,3 hPa 0,0 mm 0,4 km/h (0 Bft) W 267 ° 0 min 0,000 mm 0,0 UV-I 0 W/m² 5,2 °C 6,6 °C 3,2 km/h (1 Bft)
03.05.2019 00:59 6,5 °C 91 % 1008,4 hPa 0,0 mm 0,8 km/h (0 Bft) S-SO 164 ° 0 min 0,000 mm 0,0 UV-I 0 W/m² 5,1 °C 6,5 °C 3,2 km/h (1 Bft)
03.05.2019 01:00 6,6 °C 91 % 1008,4 hPa 0,2 mm 0,0 km/h (0 Bft) S 170 ° 0 min 0,000 mm 0,0 UV-I 0 W/m² 5,2 °C 6,6 °C 0,0 km/h (0 Bft)
03.05.2019 01:01 6,5 °C 91 % 1008,4 hPa 0,0 mm 0,0 km/h (0 Bft) S 171 ° 0 min 0,000 mm 0,0 UV-I 0 W/m² 5,1 °C 6,5 °C 0,0 km/h (0 Bft)
03.05.2019 01:02 6,5 °C 91 % 1008,4 hPa 0,0 mm 0,0 km/h (0 Bft) S 171 ° 0 min 0,000 mm 0,0 UV-I 0 W/m² 5,1 °C 6,5 °C 0,0 km/h (0 Bft)
03.05.2019 01:03 6,5 °C 91 % 1008,4 hPa 0,0 mm 0,0 km/h (0 Bft) S 171 ° 0 min 0,000 mm 0,0 UV-I 0 W/m² 5,1 °C 6,5 °C 0,0 km/h (0 Bft)
03.05.2019 01:04 6,5 °C 91 % 1008,4 hPa 0,0 mm 0,0 km/h (0 Bft) S 171 ° 0 min 0,000 mm 0,0 UV-I 0 W/m² 5,1 °C 6,5 °C 0,0 km/h (0 Bft)
03.05.2019 01:05 6,5 °C 91 % 1008,4 hPa 0,0 mm 0,0 km/h (0 Bft) S 171 ° 0 min 0,000 mm 0,0 UV-I 0 W/m² 5,1 °C 6,5 °C 0,0 km/h (0 Bft)
03.05.2019 01:06 6,4 °C 91 % 1008,4 hPa 0,0 mm 0,0 km/h (0 Bft) S 171 ° 0 min 0,000 mm 0,0 UV-I 0 W/m² 5,0 °C 6,4 °C 0,0 km/h (0 Bft)
03.05.2019 01:07 6,4 °C 91 % 1008,4 hPa 0,0 mm 1,9 km/h (1 Bft) W-SW 241 ° 0 min 0,000 mm 0,0 UV-I 0 W/m² 5,0 °C 6,4 °C 4,8 km/h (1 Bft)
03.05.2019 01:08 6,4 °C 91 % 1008,4 hPa 0,0 mm 1,4 km/h (1 Bft) W-SW 257 ° 0 min 0,000 mm 0,0 UV-I 0 W/m² 5,0 °C 6,4 °C 6,4 km/h (2 Bft)
03.05.2019 01:09 6,4 °C 91 % 1008,4 hPa 0,0 mm 2,2 km/h (1 Bft) W-SW 256 ° 0 min 0,000 mm 0,0 UV-I 0 W/m² 5,0 °C 6,4 °C 6,4 km/h (2 Bft)
03.05.2019 01:10 6,4 °C 91 % 1008,4 hPa 0,2 mm 1,9 km/h (1 Bft) W-SW 256 ° 0 min 0,000 mm 0,0 UV-I 0 W/m² 5,0 °C 6,4 °C 3,2 km/h (1 Bft)
03.05.2019 01:11 6,4 °C 91 % 1008,4 hPa 0,0 mm 3,2 km/h (1 Bft) W-SW 256 ° 0 min 0,000 mm 0,0 UV-I 0 W/m² 5,0 °C 6,4 °C 4,8 km/h (1 Bft)
03.05.2019 01:12 6,4 °C 91 % 1008,4 hPa 0,0 mm 2,0 km/h (1 Bft) W-SW 242 ° 0 min 0,000 mm 0,0 UV-I 0 W/m² 5,0 °C 6,4 °C 4,8 km/h (1 Bft)
03.05.2019 01:13 6,4 °C 91 % 1008,4 hPa 0,0 mm 0,3 km/h (0 Bft) W-SW 242 ° 0 min 0,000 mm 0,0 UV-I 0 W/m² 5,0 °C 6,4 °C 1,6 km/h (1 Bft)
03.05.2019 01:14 6,4 °C 91 % 1008,4 hPa 0,0 mm 0,0 km/h (0 Bft) W-SW 243 ° 0 min 0,000 mm 0,0 UV-I 0 W/m² 5,0 °C 6,4 °C 0,0 km/h (0 Bft)
03.05.2019 01:15 6,3 °C 91 % 1008,4 hPa 0,0 mm 0,0 km/h (0 Bft) W-SW 243 ° 0 min 0,000 mm 0,0 UV-I 0 W/m² 4,9 °C 6,3 °C 0,0 km/h (0 Bft)
03.05.2019 01:16 6,4 °C 91 % 1008,4 hPa 0,0 mm 0,0 km/h (0 Bft) W-SW 243 ° 0 min 0,000 mm 0,0 UV-I 0 W/m² 5,0 °C 6,4 °C 0,0 km/h (0 Bft)
03.05.2019 01:17 6,3 °C 91 % 1008,3 hPa 0,0 mm 0,5 km/h (0 Bft) W-SW 242 ° 0 min 0,000 mm 0,0 UV-I 0 W/m² 4,9 °C 6,3 °C 3,2 km/h (1 Bft)
03.05.2019 01:18 6,3 °C 91 % 1008,3 hPa 0,0 mm 0,0 km/h (0 Bft) W-SW 242 ° 0 min 0,000 mm 0,0 UV-I 0 W/m² 4,9 °C 6,3 °C 0,0 km/h (0 Bft)
03.05.2019 01:19 6,3 °C 91 % 1008,3 hPa 0,0 mm 0,1 km/h (0 Bft) W-SW 240 ° 0 min 0,000 mm 0,0 UV-I 0 W/m² 4,9 °C 6,3 °C 1,6 km/h (1 Bft)
03.05.2019 01:20 6,3 °C 91 % 1008,3 hPa 0,0 mm 1,3 km/h (1 Bft) SW 232 ° 0 min 0,000 mm 0,0 UV-I 0 W/m² 4,9 °C 6,3 °C 4,8 km/h (1 Bft)
03.05.2019 01:21 6,3 °C 91 % 1008,3 hPa 0,0 mm 3,1 km/h (1 Bft) W-SW 251 ° 0 min 0,000 mm 0,0 UV-I 0 W/m² 4,9 °C 6,3 °C 4,8 km/h (1 Bft)
03.05.2019 01:22 6,3 °C 91 % 1008,3 hPa 0,0 mm 0,8 km/h (0 Bft) W-SW 252 ° 0 min 0,000 mm 0,0 UV-I 0 W/m² 4,9 °C 6,3 °C 3,2 km/h (1 Bft)
03.05.2019 01:23 6,3 °C 91 % 1008,3 hPa 0,2 mm 0,0 km/h (0 Bft) W-SW 251 ° 0 min 0,000 mm 0,0 UV-I 0 W/m² 4,9 °C 6,3 °C 0,0 km/h (0 Bft)
03.05.2019 01:24 6,3 °C 91 % 1008,2 hPa 0,0 mm 0,7 km/h (0 Bft) SW 236 ° 0 min 0,000 mm 0,0 UV-I 0 W/m² 4,9 °C 6,3 °C 4,8 km/h (1 Bft)
03.05.2019 01:25 6,3 °C 91 % 1008,2 hPa 0,0 mm 3,6 km/h (1 Bft) W-SW 244 ° 0 min 0,000 mm 0,0 UV-I 0 W/m² 4,9 °C 6,3 °C 4,8 km/h (1 Bft)
03.05.2019 01:26 6,3 °C 91 % 1008,1 hPa 0,0 mm 1,3 km/h (1 Bft) W-SW 244 ° 0 min 0,000 mm 0,0 UV-I 0 W/m² 4,9 °C 6,3 °C 4,8 km/h (1 Bft)
03.05.2019 01:27 6,3 °C 91 % 1008,2 hPa 0,0 mm 1,7 km/h (1 Bft) SW 236 ° 0 min 0,000 mm 0,0 UV-I 0 W/m² 4,9 °C 6,3 °C 9,7 km/h (2 Bft)
03.05.2019 01:28 6,3 °C 91 % 1008,2 hPa 0,0 mm 5,4 km/h (1 Bft) SW 234 ° 0 min 0,000 mm 0,0 UV-I 0 W/m² 4,9 °C 5,4 °C 9,7 km/h (2 Bft)
03.05.2019 01:29 6,3 °C 91 % 1008,1 hPa 0,0 mm 3,5 km/h (1 Bft) S-SW 209 ° 0 min 0,000 mm 0,0 UV-I 0 W/m² 4,9 °C 6,3 °C 9,7 km/h (2 Bft)
03.05.2019 01:30 6,4 °C 91 % 1008,1 hPa 0,0 mm 1,4 km/h (1 Bft) W-SW 246 ° 0 min 0,000 mm 0,0 UV-I 0 W/m² 5,0 °C 6,4 °C 4,8 km/h (1 Bft)
03.05.2019 01:31 6,3 °C 91 % 1008,1 hPa 0,0 mm 3,9 km/h (1 Bft) SW 230 ° 0 min 0,000 mm 0,0 UV-I 0 W/m² 4,9 °C 6,3 °C 6,4 km/h (2 Bft)
03.05.2019 01:32 6,3 °C 91 % 1008,1 hPa 0,0 mm 3,7 km/h (1 Bft) W-SW 246 ° 0 min 0,000 mm 0,0 UV-I 0 W/m² 4,9 °C 6,3 °C 8,0 km/h (2 Bft)
03.05.2019 01:33 6,3 °C 91 % 1008,1 hPa 0,0 mm 0,2 km/h (0 Bft) W-SW 246 ° 0 min 0,000 mm 0,0 UV-I 0 W/m² 4,9 °C 6,3 °C 1,6 km/h (1 Bft)
03.05.2019 01:34 6,3 °C 91 % 1008,1 hPa 0,2 mm 3,2 km/h (1 Bft) W-SW 255 ° 0 min 0,000 mm 0,0 UV-I 0 W/m² 4,9 °C 6,3 °C 6,4 km/h (2 Bft)
03.05.2019 01:35 6,3 °C 91 % 1008,1 hPa 0,0 mm 0,2 km/h (0 Bft) W-SW 255 ° 0 min 0,000 mm 0,0 UV-I 0 W/m² 4,9 °C 6,3 °C 1,6 km/h (1 Bft)
03.05.2019 01:36 6,3 °C 91 % 1008,1 hPa 0,0 mm 1,3 km/h (1 Bft) W-SW 254 ° 0 min 0,000 mm 0,0 UV-I 0 W/m² 4,9 °C 6,3 °C 3,2 km/h (1 Bft)
03.05.2019 01:37 6,3 °C 91 % 1008,1 hPa 0,0 mm 0,3 km/h (0 Bft) W-SW 254 ° 0 min 0,000 mm 0,0 UV-I 0 W/m² 4,9 °C 6,3 °C 1,6 km/h (1 Bft)
03.05.2019 01:38 6,3 °C 91 % 1008,0 hPa 0,0 mm 0,5 km/h (0 Bft) W-SW 252 ° 0 min 0,000 mm 0,0 UV-I 0 W/m² 4,9 °C 6,3 °C 3,2 km/h (1 Bft)
03.05.2019 01:39 6,3 °C 91 % 1008,0 hPa 0,0 mm 2,3 km/h (1 Bft) S-SW 205 ° 0 min 0,000 mm 0,0 UV-I 0 W/m² 4,9 °C 6,3 °C 4,8 km/h (1 Bft)
03.05.2019 01:40 6,3 °C 91 % 1008,0 hPa 0,0 mm 1,0 km/h (0 Bft) S-SW 210 ° 0 min 0,000 mm 0,0 UV-I 0 W/m² 4,9 °C 6,3 °C 3,2 km/h (1 Bft)
03.05.2019 01:41 6,3 °C 91 % 1008,0 hPa 0,0 mm 0,0 km/h (0 Bft) S-SW 210 ° 0 min 0,000 mm 0,0 UV-I 0 W/m² 4,9 °C 6,3 °C 0,0 km/h (0 Bft)
03.05.2019 01:42 6,3 °C 91 % 1008,0 hPa 0,0 mm 0,3 km/h (0 Bft) S-SW 207 ° 0 min 0,000 mm 0,0 UV-I 0 W/m² 4,9 °C 6,3 °C 1,6 km/h (1 Bft)
03.05.2019 01:43 6,3 °C 91 % 1008,0 hPa 0,0 mm 4,8 km/h (1 Bft) SW 214 ° 0 min 0,000 mm 0,0 UV-I 0 W/m² 4,9 °C 5,6 °C 8,0 km/h (2 Bft)
03.05.2019 01:44 6,3 °C 91 % 1008,0 hPa 0,0 mm 3,0 km/h (1 Bft) S-SW 212 ° 0 min 0,000 mm 0,0 UV-I 0 W/m² 4,9 °C 6,3 °C 3,2 km/h (1 Bft)
03.05.2019 01:45 6,3 °C 91 % 1008,0 hPa 0,0 mm 3,4 km/h (1 Bft) S-SW 200 ° 0 min 0,000 mm 0,0 UV-I 0 W/m² 4,9 °C 6,3 °C 4,8 km/h (1 Bft)
03.05.2019 01:46 6,3 °C 91 % 1007,9 hPa 0,0 mm 0,1 km/h (0 Bft) S-SW 200 ° 0 min 0,000 mm 0,0 UV-I 0 W/m² 4,9 °C 6,3 °C 1,6 km/h (1 Bft)
03.05.2019 01:47 6,3 °C 91 % 1008,0 hPa 0,0 mm 0,0 km/h (0 Bft) S-SW 200 ° 0 min 0,000 mm 0,0 UV-I 0 W/m² 4,9 °C 6,3 °C 0,0 km/h (0 Bft)
03.05.2019 01:48 6,3 °C 91 % 1008,0 hPa 0,0 mm 0,1 km/h (0 Bft) S-SW 200 ° 0 min 0,000 mm 0,0 UV-I 0 W/m² 4,9 °C 6,3 °C 1,6 km/h (1 Bft)
03.05.2019 01:49 6,3 °C 91 % 1008,0 hPa 0,0 mm 0,2 km/h (0 Bft) S-SW 201 ° 0 min 0,000 mm 0,0 UV-I 0 W/m² 4,9 °C 6,3 °C 1,6 km/h (1 Bft)
03.05.2019 01:50 6,3 °C 92 % 1008,0 hPa 0,0 mm 1,7 km/h (1 Bft) S-SW 202 ° 0 min 0,000 mm 0,0 UV-I 0 W/m² 5,1 °C 6,3 °C 4,8 km/h (1 Bft)
03.05.2019 01:51 6,3 °C 92 % 1007,9 hPa 0,0 mm 1,0 km/h (0 Bft) S-SW 199 ° 0 min 0,000 mm 0,0 UV-I 0 W/m² 5,1 °C 6,3 °C 3,2 km/h (1 Bft)
03.05.2019 01:52 6,2 °C 92 % 1008,0 hPa 0,0 mm 1,9 km/h (1 Bft) S-SW 200 ° 0 min 0,000 mm 0,0 UV-I 0 W/m² 5,0 °C 6,2 °C 3,2 km/h (1 Bft)
03.05.2019 01:53 6,2 °C 92 % 1007,9 hPa 0,0 mm 0,8 km/h (0 Bft) S-SW 200 ° 0 min 0,000 mm 0,0 UV-I 0 W/m² 5,0 °C 6,2 °C 3,2 km/h (1 Bft)
03.05.2019 01:54 6,2 °C 92 % 1008,0 hPa 0,0 mm 0,3 km/h (0 Bft) S-SW 200 ° 0 min 0,000 mm 0,0 UV-I 0 W/m² 5,0 °C 6,2 °C 1,6 km/h (1 Bft)
03.05.2019 01:55 6,2 °C 92 % 1008,0 hPa 0,0 mm 0,5 km/h (0 Bft) S-SW 200 ° 0 min 0,000 mm 0,0 UV-I 0 W/m² 5,0 °C 6,2 °C 1,6 km/h (1 Bft)
03.05.2019 01:56 6,2 °C 92 % 1008,0 hPa 0,0 mm 0,0 km/h (0 Bft) S-SW 200 ° 0 min 0,000 mm 0,0 UV-I 0 W/m² 5,0 °C 6,2 °C 0,0 km/h (0 Bft)
03.05.2019 01:57 6,2 °C 92 % 1008,0 hPa 0,0 mm 0,0 km/h (0 Bft) S-SW 200 ° 0 min 0,000 mm 0,0 UV-I 0 W/m² 5,0 °C 6,2 °C 0,0 km/h (0 Bft)
03.05.2019 01:58 6,2 °C 92 % 1008,0 hPa 0,0 mm 0,0 km/h (0 Bft) S-SW 200 ° 0 min 0,000 mm 0,0 UV-I 0 W/m² 5,0 °C 6,2 °C 0,0 km/h (0 Bft)
03.05.2019 01:59 6,2 °C 92 % 1007,9 hPa 0,0 mm 0,0 km/h (0 Bft) S-SW 200 ° 0 min 0,000 mm 0,0 UV-I 0 W/m² 5,0 °C 6,2 °C 0,0 km/h (0 Bft)
03.05.2019 02:00 6,1 °C 92 % 1007,9 hPa 0,0 mm 0,0 km/h (0 Bft) S-SW 200 ° 0 min 0,000 mm 0,0 UV-I 0 W/m² 4,9 °C 6,1 °C 0,0 km/h (0 Bft)
03.05.2019 02:01 6,1 °C 92 % 1007,9 hPa 0,0 mm 0,0 km/h (0 Bft) S-SW 200 ° 0 min 0,000 mm 0,0 UV-I 0 W/m² 4,9 °C 6,1 °C 0,0 km/h (0 Bft)
03.05.2019 02:02 6,1 °C 92 % 1007,9 hPa 0,0 mm 0,0 km/h (0 Bft) S-SW 200 ° 0 min 0,000 mm 0,0 UV-I 0 W/m² 4,9 °C 6,1 °C 0,0 km/h (0 Bft)
03.05.2019 02:03 6,1 °C 92 % 1007,9 hPa 0,0 mm 0,0 km/h (0 Bft) S-SW 200 ° 0 min 0,000 mm 0,0 UV-I 0 W/m² 4,9 °C 6,1 °C 0,0 km/h (0 Bft)
03.05.2019 02:04 6,1 °C 92 % 1007,9 hPa 0,0 mm 0,0 km/h (0 Bft) S-SW 200 ° 0 min 0,000 mm 0,0 UV-I 0 W/m² 4,9 °C 6,1 °C 0,0 km/h (0 Bft)
03.05.2019 02:05 6,1 °C 92 % 1007,9 hPa 0,0 mm 0,1 km/h (0 Bft) S-SW 200 ° 0 min 0,000 mm 0,0 UV-I 0 W/m² 4,9 °C 6,1 °C 1,6 km/h (1 Bft)
03.05.2019 02:06 6,1 °C 92 % 1007,9 hPa 0,0 mm 0,9 km/h (0 Bft) S-SW 200 ° 0 min 0,000 mm 0,0 UV-I 0 W/m² 4,9 °C 6,1 °C 3,2 km/h (1 Bft)
03.05.2019 02:07 6,1 °C 92 % 1007,9 hPa 0,0 mm 2,1 km/h (1 Bft) S-SW 200 ° 0 min 0,000 mm 0,0 UV-I 0 W/m² 4,9 °C 6,1 °C 4,8 km/h (1 Bft)
03.05.2019 02:08 6,1 °C 92 % 1007,9 hPa 0,0 mm 0,2 km/h (0 Bft) S-SW 198 ° 0 min 0,000 mm 0,0 UV-I 0 W/m² 4,9 °C 6,1 °C 1,6 km/h (1 Bft)
03.05.2019 02:09 6,1 °C 92 % 1007,9 hPa 0,0 mm 0,0 km/h (0 Bft) S-SW 199 ° 0 min 0,000 mm 0,0 UV-I 0 W/m² 4,9 °C 6,1 °C 0,0 km/h (0 Bft)
03.05.2019 02:10 6,1 °C 92 % 1007,9 hPa 0,0 mm 0,1 km/h (0 Bft) S-SW 198 ° 0 min 0,000 mm 0,0 UV-I 0 W/m² 4,9 °C 6,1 °C 1,6 km/h (1 Bft)
03.05.2019 02:11 6,1 °C 92 % 1007,9 hPa 0,0 mm 1,0 km/h (0 Bft) S-SW 199 ° 0 min 0,000 mm 0,0 UV-I 0 W/m² 4,9 °C 6,1 °C 3,2 km/h (1 Bft)
03.05.2019 02:12 6,1 °C 92 % 1007,8 hPa 0,0 mm 0,0 km/h (0 Bft) S-SW 199 ° 0 min 0,000 mm 0,0 UV-I 0 W/m² 4,9 °C 6,1 °C 0,0 km/h (0 Bft)
03.05.2019 02:13 6,1 °C 92 % 1007,8 hPa 0,0 mm 0,0 km/h (0 Bft) S-SW 199 ° 0 min 0,000 mm 0,0 UV-I 0 W/m² 4,9 °C 6,1 °C 0,0 km/h (0 Bft)
03.05.2019 02:14 6,1 °C 93 % 1007,8 hPa 0,0 mm 1,0 km/h (0 Bft) SW 221 ° 0 min 0,000 mm 0,0 UV-I 0 W/m² 5,1 °C 6,1 °C 3,2 km/h (1 Bft)
03.05.2019 02:15 6,1 °C 93 % 1007,8 hPa 0,0 mm 2,3 km/h (1 Bft) SW 219 ° 0 min 0,000 mm 0,0 UV-I 0 W/m² 5,1 °C 6,1 °C 4,8 km/h (1 Bft)
03.05.2019 02:16 6,1 °C 93 % 1007,8 hPa 0,0 mm 0,5 km/h (0 Bft) SW 215 ° 0 min 0,000 mm 0,0 UV-I 0 W/m² 5,1 °C 6,1 °C 3,2 km/h (1 Bft)
03.05.2019 02:17 6,1 °C 92 % 1007,8 hPa 0,0 mm 0,0 km/h (0 Bft) SW 215 ° 0 min 0,000 mm 0,0 UV-I 0 W/m² 4,9 °C 6,1 °C 0,0 km/h (0 Bft)
03.05.2019 02:18 6,1 °C 93 % 1007,8 hPa 0,0 mm 0,1 km/h (0 Bft) SW 214 ° 0 min 0,000 mm 0,0 UV-I 0 W/m² 5,1 °C 6,1 °C 1,6 km/h (1 Bft)
03.05.2019 02:19 6,0 °C 92 % 1007,8 hPa 0,0 mm 2,5 km/h (1 Bft) SW 214 ° 0 min 0,000 mm 0,0 UV-I 0 W/m² 4,8 °C 6,0 °C 4,8 km/h (1 Bft)
03.05.2019 02:20 6,1 °C 93 % 1007,7 hPa 0,0 mm 0,1 km/h (0 Bft) SW 214 ° 0 min 0,000 mm 0,0 UV-I 0 W/m² 5,1 °C 6,1 °C 1,6 km/h (1 Bft)
03.05.2019 02:21 6,0 °C 92 % 1007,7 hPa 0,0 mm 0,7 km/h (0 Bft) S-SW 211 ° 0 min 0,000 mm 0,0 UV-I 0 W/m² 4,8 °C 6,0 °C 3,2 km/h (1 Bft)
03.05.2019 02:22 6,0 °C 92 % 1007,7 hPa 0,0 mm 0,3 km/h (0 Bft) S-SW 208 ° 0 min 0,000 mm 0,0 UV-I 0 W/m² 4,8 °C 6,0 °C 3,2 km/h (1 Bft)
03.05.2019 02:23 5,9 °C 92 % 1007,7 hPa 0,0 mm 2,5 km/h (1 Bft) S-SW 208 ° 0 min 0,000 mm 0,0 UV-I 0 W/m² 4,7 °C 5,9 °C 4,8 km/h (1 Bft)
03.05.2019 02:24 5,9 °C 92 % 1007,8 hPa 0,0 mm 2,4 km/h (1 Bft) SW 214 ° 0 min 0,000 mm 0,0 UV-I 0 W/m² 4,7 °C 5,9 °C 4,8 km/h (1 Bft)
03.05.2019 02:25 6,0 °C 92 % 1007,7 hPa 0,0 mm 1,5 km/h (1 Bft) S-SW 198 ° 0 min 0,000 mm 0,0 UV-I 0 W/m² 4,8 °C 6,0 °C 3,2 km/h (1 Bft)
03.05.2019 02:26 6,0 °C 92 % 1007,8 hPa 0,0 mm 3,2 km/h (1 Bft) S-SW 205 ° 0 min 0,000 mm 0,0 UV-I 0 W/m² 4,8 °C 6,0 °C 4,8 km/h (1 Bft)
03.05.2019 02:27 6,0 °C 92 % 1007,7 hPa 0,0 mm 1,5 km/h (1 Bft) S-SW 196 ° 0 min 0,000 mm 0,0 UV-I 0 W/m² 4,8 °C 6,0 °C 3,2 km/h (1 Bft)
03.05.2019 02:28 6,0 °C 92 % 1007,7 hPa 0,0 mm 5,5 km/h (1 Bft) S-SW 194 ° 0 min 0,000 mm 0,0 UV-I 0 W/m² 4,8 °C 5,0 °C 8,0 km/h (2 Bft)
03.05.2019 02:29 6,0 °C 92 % 1007,8 hPa 0,0 mm 3,5 km/h (1 Bft) S 188 ° 0 min 0,000 mm 0,0 UV-I 0 W/m² 4,8 °C 6,0 °C 8,0 km/h (2 Bft)
03.05.2019 02:30 6,1 °C 92 % 1007,7 hPa 0,0 mm 0,4 km/h (0 Bft) SW 215 ° 0 min 0,000 mm 0,0 UV-I 0 W/m² 4,9 °C 6,1 °C 1,6 km/h (1 Bft)
03.05.2019 02:31 6,1 °C 93 % 1007,7 hPa 0,0 mm 2,2 km/h (1 Bft) W-SW 239 ° 0 min 0,000 mm 0,0 UV-I 0 W/m² 5,1 °C 6,1 °C 3,2 km/h (1 Bft)
03.05.2019 02:32 6,1 °C 93 % 1007,7 hPa 0,0 mm 0,7 km/h (0 Bft) SW 233 ° 0 min 0,000 mm 0,0 UV-I 0 W/m² 5,1 °C 6,1 °C 3,2 km/h (1 Bft)
03.05.2019 02:33 6,1 °C 93 % 1007,7 hPa 0,0 mm 0,7 km/h (0 Bft) SW 230 ° 0 min 0,000 mm 0,0 UV-I 0 W/m² 5,1 °C 6,1 °C 3,2 km/h (1 Bft)
03.05.2019 02:34 6,1 °C 92 % 1007,7 hPa 0,0 mm 6,9 km/h (2 Bft) S-SW 205 ° 0 min 0,000 mm 0,0 UV-I 0 W/m² 4,9 °C 4,7 °C 9,7 km/h (2 Bft)
03.05.2019 02:35 6,2 °C 92 % 1007,7 hPa 0,0 mm 4,6 km/h (1 Bft) S-SW 205 ° 0 min 0,000 mm 0,0 UV-I 0 W/m² 5,0 °C 5,6 °C 8,0 km/h (2 Bft)
03.05.2019 02:36 6,2 °C 92 % 1007,7 hPa 0,0 mm 2,8 km/h (1 Bft) S-SW 213 ° 0 min 0,000 mm 0,0 UV-I 0 W/m² 5,0 °C 6,2 °C 4,8 km/h (1 Bft)
03.05.2019 02:37 6,2 °C 92 % 1007,7 hPa 0,0 mm 4,6 km/h (1 Bft) S-SW 200 ° 0 min 0,000 mm 0,0 UV-I 0 W/m² 5,0 °C 5,6 °C 6,4 km/h (2 Bft)
03.05.2019 02:38 6,2 °C 92 % 1007,7 hPa 0,0 mm 1,5 km/h (1 Bft) S-SW 197 ° 0 min 0,000 mm 0,0 UV-I 0 W/m² 5,0 °C 6,2 °C 3,2 km/h (1 Bft)
03.05.2019 02:39 6,3 °C 92 % 1007,7 hPa 0,0 mm 0,2 km/h (0 Bft) S-SW 197 ° 0 min 0,000 mm 0,0 UV-I 0 W/m² 5,1 °C 6,3 °C 3,2 km/h (1 Bft)
03.05.2019 02:40 6,3 °C 92 % 1007,7 hPa 0,0 mm 1,4 km/h (1 Bft) S 191 ° 0 min 0,000 mm 0,0 UV-I 0 W/m² 5,1 °C 6,3 °C 4,8 km/h (1 Bft)
03.05.2019 02:41 6,3 °C 92 % 1007,6 hPa 0,2 mm 1,5 km/h (1 Bft) S-SW 202 ° 0 min 0,000 mm 0,0 UV-I 0 W/m² 5,1 °C 6,3 °C 3,2 km/h (1 Bft)
03.05.2019 02:42 6,2 °C 92 % 1007,7 hPa 0,0 mm 2,0 km/h (1 Bft) S-SW 199 ° 0 min 0,000 mm 0,0 UV-I 0 W/m² 5,0 °C 6,2 °C 3,2 km/h (1 Bft)
03.05.2019 02:43 6,2 °C 92 % 1007,7 hPa 0,0 mm 0,9 km/h (0 Bft) S-SW 199 ° 0 min 0,000 mm 0,0 UV-I 0 W/m² 5,0 °C 6,2 °C 3,2 km/h (1 Bft)
03.05.2019 02:44 6,3 °C 92 % 1007,6 hPa 0,0 mm 0,0 km/h (0 Bft) S-SW 199 ° 0 min 0,000 mm 0,0 UV-I 0 W/m² 5,1 °C 6,3 °C 0,0 km/h (0 Bft)
03.05.2019 02:45 6,3 °C 92 % 1007,7 hPa 0,0 mm 0,0 km/h (0 Bft) S-SW 199 ° 0 min 0,000 mm 0,0 UV-I 0 W/m² 5,1 °C 6,3 °C 0,0 km/h (0 Bft)
03.05.2019 02:46 6,3 °C 92 % 1007,7 hPa 0,0 mm 0,0 km/h (0 Bft) S-SW 199 ° 0 min 0,000 mm 0,0 UV-I 0 W/m² 5,1 °C 6,3 °C 0,0 km/h (0 Bft)
03.05.2019 02:47 6,3 °C 92 % 1007,7 hPa 0,0 mm 1,3 km/h (1 Bft) W-SW 238 ° 0 min 0,000 mm 0,0 UV-I 0 W/m² 5,1 °C 6,3 °C 4,8 km/h (1 Bft)
03.05.2019 02:48 6,3 °C 92 % 1007,7 hPa 0,0 mm 2,8 km/h (1 Bft) S-SW 201 ° 0 min 0,000 mm 0,0 UV-I 0 W/m² 5,1 °C 6,3 °C 4,8 km/h (1 Bft)
03.05.2019 02:49 6,3 °C 92 % 1007,7 hPa 0,0 mm 2,0 km/h (1 Bft) S-SW 202 ° 0 min 0,000 mm 0,0 UV-I 0 W/m² 5,1 °C 6,3 °C 3,2 km/h (1 Bft)
03.05.2019 02:50 6,3 °C 92 % 1007,7 hPa 0,0 mm 1,7 km/h (1 Bft) SW 225 ° 0 min 0,000 mm 0,0 UV-I 0 W/m² 5,1 °C 6,3 °C 3,2 km/h (1 Bft)
03.05.2019 02:51 6,3 °C 92 % 1007,6 hPa 0,0 mm 1,6 km/h (1 Bft) S-SW 212 ° 0 min 0,000 mm 0,0 UV-I 0 W/m² 5,1 °C 6,3 °C 3,2 km/h (1 Bft)
03.05.2019 02:52 6,3 °C 92 % 1007,6 hPa 0,0 mm 0,1 km/h (0 Bft) S-SW 212 ° 0 min 0,000 mm 0,0 UV-I 0 W/m² 5,1 °C 6,3 °C 1,6 km/h (1 Bft)
03.05.2019 02:53 6,3 °C 91 % 1007,7 hPa 0,0 mm 0,4 km/h (0 Bft) SW 232 ° 0 min 0,000 mm 0,0 UV-I 0 W/m² 4,9 °C 6,3 °C 3,2 km/h (1 Bft)
03.05.2019 02:54 6,4 °C 91 % 1007,6 hPa 0,0 mm 1,5 km/h (1 Bft) W-SW 238 ° 0 min 0,000 mm 0,0 UV-I 0 W/m² 5,0 °C 6,4 °C 4,8 km/h (1 Bft)
03.05.2019 02:55 6,4 °C 91 % 1007,7 hPa 0,0 mm 1,4 km/h (1 Bft) SW 236 ° 0 min 0,000 mm 0,0 UV-I 0 W/m² 5,0 °C 6,4 °C 3,2 km/h (1 Bft)
03.05.2019 02:56 6,4 °C 91 % 1007,6 hPa 0,0 mm 0,6 km/h (0 Bft) SW 236 ° 0 min 0,000 mm 0,0 UV-I 0 W/m² 5,0 °C 6,4 °C 1,6 km/h (1 Bft)
03.05.2019 02:57 6,4 °C 91 % 1007,6 hPa 0,0 mm 0,4 km/h (0 Bft) SW 236 ° 0 min 0,000 mm 0,0 UV-I 0 W/m² 5,0 °C 6,4 °C 1,6 km/h (1 Bft)
03.05.2019 02:58 6,4 °C 91 % 1007,6 hPa 0,0 mm 0,1 km/h (0 Bft) SW 225 ° 0 min 0,000 mm 0,0 UV-I 0 W/m² 5,0 °C 6,4 °C 1,6 km/h (1 Bft)
03.05.2019 02:59 6,4 °C 91 % 1007,6 hPa 0,0 mm 2,0 km/h (1 Bft) SW 236 ° 0 min 0,000 mm 0,0 UV-I 0 W/m² 5,0 °C 6,4 °C 3,2 km/h (1 Bft)
03.05.2019 03:00 6,4 °C 91 % 1007,6 hPa 0,0 mm 0,2 km/h (0 Bft) SW 236 ° 0 min 0,000 mm 0,0 UV-I 0 W/m² 5,0 °C 6,4 °C 1,6 km/h (1 Bft)
03.05.2019 03:01 6,4 °C 91 % 1007,6 hPa 0,0 mm 1,8 km/h (1 Bft) SW 230 ° 0 min 0,000 mm 0,0 UV-I 0 W/m² 5,0 °C 6,4 °C 4,8 km/h (1 Bft)
03.05.2019 03:02 6,4 °C 91 % 1007,6 hPa 0,0 mm 1,5 km/h (1 Bft) S-SW 212 ° 0 min 0,000 mm 0,0 UV-I 0 W/m² 5,0 °C 6,4 °C 3,2 km/h (1 Bft)
03.05.2019 03:03 6,4 °C 91 % 1007,6 hPa 0,0 mm 0,0 km/h (0 Bft) S-SW 212 ° 0 min 0,000 mm 0,0 UV-I 0 W/m² 5,0 °C 6,4 °C 0,0 km/h (0 Bft)
03.05.2019 03:04 6,4 °C 91 % 1007,6 hPa 0,0 mm 0,0 km/h (0 Bft) S-SW 212 ° 0 min 0,000 mm 0,0 UV-I 0 W/m² 5,0 °C 6,4 °C 0,0 km/h (0 Bft)
03.05.2019 03:05 6,4 °C 91 % 1007,5 hPa 0,0 mm 2,5 km/h (1 Bft) W-SW 253 ° 0 min 0,000 mm 0,0 UV-I 0 W/m² 5,0 °C 6,4 °C 4,8 km/h (1 Bft)
03.05.2019 03:06 6,4 °C 91 % 1007,5 hPa 0,0 mm 0,7 km/h (0 Bft) W-SW 254 ° 0 min 0,000 mm 0,0 UV-I 0 W/m² 5,0 °C 6,4 °C 3,2 km/h (1 Bft)
03.05.2019 03:07 6,4 °C 91 % 1007,6 hPa 0,0 mm 1,4 km/h (1 Bft) W-SW 251 ° 0 min 0,000 mm 0,0 UV-I 0 W/m² 5,0 °C 6,4 °C 3,2 km/h (1 Bft)
03.05.2019 03:08 6,5 °C 91 % 1007,6 hPa 0,0 mm 0,0 km/h (0 Bft) W-SW 251 ° 0 min 0,000 mm 0,0 UV-I 0 W/m² 5,1 °C 6,5 °C 0,0 km/h (0 Bft)
03.05.2019 03:09 6,4 °C 91 % 1007,6 hPa 0,0 mm 0,0 km/h (0 Bft) W-SW 251 ° 0 min 0,000 mm 0,0 UV-I 0 W/m² 5,0 °C 6,4 °C 0,0 km/h (0 Bft)
03.05.2019 03:10 6,5 °C 91 % 1007,5 hPa 0,0 mm 0,0 km/h (0 Bft) W-SW 251 ° 0 min 0,000 mm 0,0 UV-I 0 W/m² 5,1 °C 6,5 °C 0,0 km/h (0 Bft)
03.05.2019 03:11 6,5 °C 91 % 1007,5 hPa 0,0 mm 0,5 km/h (0 Bft) W-SW 252 ° 0 min 0,000 mm 0,0 UV-I 0 W/m² 5,1 °C 6,5 °C 3,2 km/h (1 Bft)
03.05.2019 03:12 6,5 °C 91 % 1007,5 hPa 0,0 mm 0,0 km/h (0 Bft) W-SW 252 ° 0 min 0,000 mm 0,0 UV-I 0 W/m² 5,1 °C 6,5 °C 0,0 km/h (0 Bft)
03.05.2019 03:13 6,5 °C 91 % 1007,5 hPa 0,0 mm 0,0 km/h (0 Bft) W-SW 252 ° 0 min 0,000 mm 0,0 UV-I 0 W/m² 5,1 °C 6,5 °C 0,0 km/h (0 Bft)
03.05.2019 03:14 6,5 °C 90 % 1007,6 hPa 0,0 mm 2,2 km/h (1 Bft) W-SW 250 ° 0 min 0,000 mm 0,0 UV-I 0 W/m² 5,0 °C 6,5 °C 4,8 km/h (1 Bft)
03.05.2019 03:15 6,5 °C 91 % 1007,5 hPa 0,0 mm 0,2 km/h (0 Bft) W-SW 250 ° 0 min 0,000 mm 0,0 UV-I 0 W/m² 5,1 °C 6,5 °C 1,6 km/h (1 Bft)
03.05.2019 03:16 6,4 °C 90 % 1007,6 hPa 0,0 mm 0,0 km/h (0 Bft) W-SW 250 ° 0 min 0,000 mm 0,0 UV-I 0 W/m² 4,9 °C 6,4 °C 0,0 km/h (0 Bft)
03.05.2019 03:17 6,4 °C 90 % 1007,6 hPa 0,0 mm 0,8 km/h (0 Bft) W-SW 250 ° 0 min 0,000 mm 0,0 UV-I 0 W/m² 4,9 °C 6,4 °C 3,2 km/h (1 Bft)
03.05.2019 03:18 6,5 °C 91 % 1007,5 hPa 0,0 mm 0,0 km/h (0 Bft) W-SW 250 ° 0 min 0,000 mm 0,0 UV-I 0 W/m² 5,1 °C 6,5 °C 0,0 km/h (0 Bft)
03.05.2019 03:19 6,5 °C 91 % 1007,5 hPa 0,0 mm 0,9 km/h (0 Bft) SW 236 ° 0 min 0,000 mm 0,0 UV-I 0 W/m² 5,1 °C 6,5 °C 3,2 km/h (1 Bft)
03.05.2019 03:20 6,4 °C 91 % 1007,5 hPa 0,0 mm 1,1 km/h (1 Bft) W 280 ° 0 min 0,000 mm 0,0 UV-I 0 W/m² 5,0 °C 6,4 °C 4,8 km/h (1 Bft)
03.05.2019 03:21 6,4 °C 91 % 1007,5 hPa 0,0 mm 0,3 km/h (0 Bft) W 279 ° 0 min 0,000 mm 0,0 UV-I 0 W/m² 5,0 °C 6,4 °C 1,6 km/h (1 Bft)
03.05.2019 03:22 6,4 °C 91 % 1007,5 hPa 0,0 mm 0,0 km/h (0 Bft) W 279 ° 0 min 0,000 mm 0,0 UV-I 0 W/m² 5,0 °C 6,4 °C 0,0 km/h (0 Bft)
03.05.2019 03:23 6,4 °C 91 % 1007,5 hPa 0,0 mm 0,0 km/h (0 Bft) W 279 ° 0 min 0,000 mm 0,0 UV-I 0 W/m² 5,0 °C 6,4 °C 0,0 km/h (0 Bft)
03.05.2019 03:24 6,4 °C 91 % 1007,5 hPa 0,0 mm 0,0 km/h (0 Bft) W 279 ° 0 min 0,000 mm 0,0 UV-I 0 W/m² 5,0 °C 6,4 °C 0,0 km/h (0 Bft)
03.05.2019 03:25 6,4 °C 91 % 1007,5 hPa 0,0 mm 0,0 km/h (0 Bft) W 279 ° 0 min 0,000 mm 0,0 UV-I 0 W/m² 5,0 °C 6,4 °C 0,0 km/h (0 Bft)
03.05.2019 03:26 6,4 °C 91 % 1007,5 hPa 0,0 mm 0,0 km/h (0 Bft) W 279 ° 0 min 0,000 mm 0,0 UV-I 0 W/m² 5,0 °C 6,4 °C 0,0 km/h (0 Bft)
03.05.2019 03:27 6,3 °C 91 % 1007,5 hPa 0,0 mm 0,0 km/h (0 Bft) W 279 ° 0 min 0,000 mm 0,0 UV-I 0 W/m² 4,9 °C 6,3 °C 0,0 km/h (0 Bft)
03.05.2019 03:28 6,3 °C 91 % 1007,5 hPa 0,0 mm 0,0 km/h (0 Bft) W 279 ° 0 min 0,000 mm 0,0 UV-I 0 W/m² 4,9 °C 6,3 °C 0,0 km/h (0 Bft)
03.05.2019 03:29 6,3 °C 91 % 1007,5 hPa 0,0 mm 0,0 km/h (0 Bft) W 279 ° 0 min 0,000 mm 0,0 UV-I 0 W/m² 4,9 °C 6,3 °C 0,0 km/h (0 Bft)
03.05.2019 03:30 6,3 °C 91 % 1007,5 hPa 0,0 mm 1,4 km/h (1 Bft) SW 235 ° 0 min 0,000 mm 0,0 UV-I 0 W/m² 4,9 °C 6,3 °C 8,0 km/h (2 Bft)
03.05.2019 03:31 6,3 °C 91 % 1007,5 hPa 0,0 mm 4,8 km/h (1 Bft) W-SW 257 ° 0 min 0,000 mm 0,0 UV-I 0 W/m² 4,9 °C 5,6 °C 9,7 km/h (2 Bft)
03.05.2019 03:32 6,3 °C 91 % 1007,5 hPa 0,0 mm 1,0 km/h (0 Bft) W-SW 254 ° 0 min 0,000 mm 0,0 UV-I 0 W/m² 4,9 °C 6,3 °C 4,8 km/h (1 Bft)
03.05.2019 03:33 6,2 °C 91 % 1007,5 hPa 0,0 mm 1,0 km/h (0 Bft) W-SW 254 ° 0 min 0,000 mm 0,0 UV-I 0 W/m² 4,8 °C 6,2 °C 3,2 km/h (1 Bft)
03.05.2019 03:34 6,2 °C 91 % 1007,5 hPa 0,0 mm 1,6 km/h (1 Bft) W 265 ° 0 min 0,000 mm 0,0 UV-I 0 W/m² 4,8 °C 6,2 °C 4,8 km/h (1 Bft)
03.05.2019 03:35 6,3 °C 91 % 1007,5 hPa 0,0 mm 1,8 km/h (1 Bft) SW 234 ° 0 min 0,000 mm 0,0 UV-I 0 W/m² 4,9 °C 6,3 °C 4,8 km/h (1 Bft)
03.05.2019 03:36 6,2 °C 91 % 1007,5 hPa 0,0 mm 2,4 km/h (1 Bft) W 265 ° 0 min 0,000 mm 0,0 UV-I 0 W/m² 4,8 °C 6,2 °C 6,4 km/h (2 Bft)
03.05.2019 03:37 6,2 °C 91 % 1007,5 hPa 0,0 mm 4,0 km/h (1 Bft) W-SW 250 ° 0 min 0,000 mm 0,0 UV-I 0 W/m² 4,8 °C 6,2 °C 6,4 km/h (2 Bft)
03.05.2019 03:38 6,2 °C 91 % 1007,4 hPa 0,0 mm 0,7 km/h (0 Bft) W-SW 250 ° 0 min 0,000 mm 0,0 UV-I 0 W/m² 4,8 °C 6,2 °C 3,2 km/h (1 Bft)
03.05.2019 03:39 6,3 °C 91 % 1007,5 hPa 0,0 mm 2,8 km/h (1 Bft) W 259 ° 0 min 0,000 mm 0,0 UV-I 0 W/m² 4,9 °C 6,3 °C 4,8 km/h (1 Bft)
03.05.2019 03:40 6,3 °C 91 % 1007,5 hPa 0,0 mm 5,0 km/h (1 Bft) W-SW 257 ° 0 min 0,000 mm 0,0 UV-I 0 W/m² 4,9 °C 5,6 °C 12,9 km/h (3 Bft)
03.05.2019 03:41 6,2 °C 91 % 1007,5 hPa 0,0 mm 5,3 km/h (1 Bft) SW 224 ° 0 min 0,000 mm 0,0 UV-I 0 W/m² 4,8 °C 5,3 °C 11,3 km/h (2 Bft)
03.05.2019 03:42 6,3 °C 91 % 1007,5 hPa 0,0 mm 4,4 km/h (1 Bft) W-SW 250 ° 0 min 0,000 mm 0,0 UV-I 0 W/m² 4,9 °C 6,3 °C 9,7 km/h (2 Bft)
03.05.2019 03:43 6,3 °C 91 % 1007,5 hPa 0,0 mm 5,6 km/h (1 Bft) W 259 ° 0 min 0,000 mm 0,0 UV-I 0 W/m² 4,9 °C 5,3 °C 9,7 km/h (2 Bft)
03.05.2019 03:44 6,3 °C 91 % 1007,5 hPa 0,0 mm 6,5 km/h (2 Bft) W 260 ° 0 min 0,000 mm 0,0 UV-I 0 W/m² 4,9 °C 5,1 °C 11,3 km/h (2 Bft)
03.05.2019 03:45 6,3 °C 91 % 1007,5 hPa 0,0 mm 3,6 km/h (1 Bft) W-SW 242 ° 0 min 0,000 mm 0,0 UV-I 0 W/m² 4,9 °C 6,3 °C 4,8 km/h (1 Bft)
03.05.2019 03:46 6,4 °C 91 % 1007,5 hPa 0,0 mm 3,0 km/h (1 Bft) W-SW 241 ° 0 min 0,000 mm 0,0 UV-I 0 W/m² 5,0 °C 6,4 °C 4,8 km/h (1 Bft)
03.05.2019 03:47 6,3 °C 91 % 1007,5 hPa 0,0 mm 2,9 km/h (1 Bft) S-SW 208 ° 0 min 0,000 mm 0,0 UV-I 0 W/m² 4,9 °C 6,3 °C 4,8 km/h (1 Bft)
03.05.2019 03:48 6,3 °C 91 % 1007,5 hPa 0,0 mm 2,3 km/h (1 Bft) W-NW 284 ° 0 min 0,000 mm 0,0 UV-I 0 W/m² 4,9 °C 6,3 °C 9,7 km/h (2 Bft)
03.05.2019 03:49 6,3 °C 91 % 1007,4 hPa 0,0 mm 6,9 km/h (2 Bft) SW 225 ° 0 min 0,000 mm 0,0 UV-I 0 W/m² 4,9 °C 5,0 °C 11,3 km/h (2 Bft)
03.05.2019 03:50 6,3 °C 91 % 1007,5 hPa 0,0 mm 3,6 km/h (1 Bft) W 262 ° 0 min 0,000 mm 0,0 UV-I 0 W/m² 4,9 °C 6,3 °C 9,7 km/h (2 Bft)
03.05.2019 03:51 6,3 °C 91 % 1007,5 hPa 0,0 mm 3,1 km/h (1 Bft) SW 227 ° 0 min 0,000 mm 0,0 UV-I 0 W/m² 4,9 °C 6,3 °C 6,4 km/h (2 Bft)
03.05.2019 03:52 6,3 °C 91 % 1007,5 hPa 0,0 mm 4,3 km/h (1 Bft) W 260 ° 0 min 0,000 mm 0,0 UV-I 0 W/m² 4,9 °C 6,3 °C 6,4 km/h (2 Bft)
03.05.2019 03:53 6,3 °C 91 % 1007,4 hPa 0,0 mm 4,4 km/h (1 Bft) W-SW 254 ° 0 min 0,000 mm 0,0 UV-I 0 W/m² 4,9 °C 6,3 °C 8,0 km/h (2 Bft)
03.05.2019 03:54 6,3 °C 91 % 1007,4 hPa 0,0 mm 3,2 km/h (1 Bft) W-SW 256 ° 0 min 0,000 mm 0,0 UV-I 0 W/m² 4,9 °C 6,3 °C 6,4 km/h (2 Bft)
03.05.2019 03:55 6,4 °C 91 % 1007,5 hPa 0,0 mm 1,3 km/h (1 Bft) W-SW 257 ° 0 min 0,000 mm 0,0 UV-I 0 W/m² 5,0 °C 6,4 °C 4,8 km/h (1 Bft)
03.05.2019 03:56 6,4 °C 91 % 1007,4 hPa 0,0 mm 4,9 km/h (1 Bft) W-SW 240 ° 0 min 0,000 mm 0,0 UV-I 0 W/m² 5,0 °C 5,7 °C 11,3 km/h (2 Bft)
03.05.2019 03:57 6,4 °C 91 % 1007,4 hPa 0,0 mm 2,2 km/h (1 Bft) S-SW 205 ° 0 min 0,000 mm 0,0 UV-I 0 W/m² 5,0 °C 6,4 °C 6,4 km/h (2 Bft)
03.05.2019 03:58 6,4 °C 91 % 1007,4 hPa 0,0 mm 1,2 km/h (1 Bft) W-NW 284 ° 0 min 0,000 mm 0,0 UV-I 0 W/m² 5,0 °C 6,4 °C 3,2 km/h (1 Bft)
03.05.2019 03:59 6,4 °C 91 % 1007,4 hPa 0,0 mm 1,9 km/h (1 Bft) W 281 ° 0 min 0,000 mm 0,0 UV-I 0 W/m² 5,0 °C 6,4 °C 3,2 km/h (1 Bft)
03.05.2019 04:00 6,4 °C 91 % 1007,5 hPa 0,0 mm 1,6 km/h (1 Bft) W 265 ° 0 min 0,000 mm 0,0 UV-I 0 W/m² 5,0 °C 6,4 °C 3,2 km/h (1 Bft)
03.05.2019 04:01 6,4 °C 91 % 1007,5 hPa 0,0 mm 3,2 km/h (1 Bft) W-SW 241 ° 0 min 0,000 mm 0,0 UV-I 0 W/m² 5,0 °C 6,4 °C 6,4 km/h (2 Bft)
03.05.2019 04:02 6,4 °C 91 % 1007,5 hPa 0,0 mm 6,0 km/h (2 Bft) W 261 ° 0 min 0,000 mm 0,0 UV-I 0 W/m² 5,0 °C 5,3 °C 12,9 km/h (3 Bft)
03.05.2019 04:03 6,4 °C 91 % 1007,5 hPa 0,0 mm 7,8 km/h (2 Bft) W 271 ° 0 min 0,000 mm 0,0 UV-I 0 W/m² 5,0 °C 4,8 °C 12,9 km/h (3 Bft)
03.05.2019 04:04 6,4 °C 91 % 1007,5 hPa 0,0 mm 4,5 km/h (1 Bft) W 276 ° 0 min 0,000 mm 0,0 UV-I 0 W/m² 5,0 °C 6,4 °C 9,7 km/h (2 Bft)
03.05.2019 04:05 6,4 °C 91 % 1007,5 hPa 0,0 mm 7,2 km/h (2 Bft) W 262 ° 0 min 0,000 mm 0,0 UV-I 0 W/m² 5,0 °C 5,0 °C 12,9 km/h (3 Bft)
03.05.2019 04:06 6,4 °C 91 % 1007,5 hPa 0,0 mm 6,8 km/h (2 Bft) W-NW 282 ° 0 min 0,000 mm 0,0 UV-I 0 W/m² 5,0 °C 5,1 °C 9,7 km/h (2 Bft)
03.05.2019 04:07 6,4 °C 91 % 1007,5 hPa 0,0 mm 6,8 km/h (2 Bft) W-SW 256 ° 0 min 0,000 mm 0,0 UV-I 0 W/m² 5,0 °C 5,1 °C 11,3 km/h (2 Bft)
03.05.2019 04:08 6,3 °C 91 % 1007,5 hPa 0,0 mm 11,1 km/h (2 Bft) W 281 ° 0 min 0,000 mm 0,0 UV-I 0 W/m² 4,9 °C 4,0 °C 14,5 km/h (3 Bft)
03.05.2019 04:09 6,3 °C 91 % 1007,5 hPa 0,0 mm 9,9 km/h (2 Bft) W 259 ° 0 min 0,000 mm 0,0 UV-I 0 W/m² 4,9 °C 4,2 °C 14,5 km/h (3 Bft)
03.05.2019 04:10 6,3 °C 91 % 1007,5 hPa 0,0 mm 5,8 km/h (2 Bft) W 262 ° 0 min 0,000 mm 0,0 UV-I 0 W/m² 4,9 °C 5,3 °C 12,9 km/h (3 Bft)
03.05.2019 04:11 6,3 °C 91 % 1007,5 hPa 0,0 mm 9,7 km/h (2 Bft) W 277 ° 0 min 0,000 mm 0,0 UV-I 0 W/m² 4,9 °C 4,3 °C 14,5 km/h (3 Bft)
03.05.2019 04:12 6,3 °C 91 % 1007,5 hPa 0,0 mm 7,8 km/h (2 Bft) SW 232 ° 0 min 0,000 mm 0,0 UV-I 0 W/m² 4,9 °C 4,7 °C 12,9 km/h (3 Bft)
03.05.2019 04:13 6,4 °C 91 % 1007,5 hPa 0,0 mm 5,7 km/h (1 Bft) W 280 ° 0 min 0,000 mm 0,0 UV-I 0 W/m² 5,0 °C 5,4 °C 9,7 km/h (2 Bft)
03.05.2019 04:14 6,3 °C 91 % 1007,5 hPa 0,0 mm 5,8 km/h (2 Bft) W 265 ° 0 min 0,000 mm 0,0 UV-I 0 W/m² 4,9 °C 5,3 °C 9,7 km/h (2 Bft)
03.05.2019 04:15 6,3 °C 91 % 1007,5 hPa 0,0 mm 5,8 km/h (2 Bft) SW 228 ° 0 min 0,000 mm 0,0 UV-I 0 W/m² 4,9 °C 5,3 °C 9,7 km/h (2 Bft)
03.05.2019 04:16 6,3 °C 91 % 1007,5 hPa 0,0 mm 11,2 km/h (2 Bft) W 275 ° 0 min 0,000 mm 0,0 UV-I 0 W/m² 4,9 °C 4,0 °C 16,1 km/h (3 Bft)
03.05.2019 04:17 6,3 °C 91 % 1007,5 hPa 0,0 mm 9,2 km/h (2 Bft) W 270 ° 0 min 0,000 mm 0,0 UV-I 0 W/m² 4,9 °C 4,4 °C 12,9 km/h (3 Bft)
03.05.2019 04:18 6,3 °C 91 % 1007,5 hPa 0,0 mm 4,3 km/h (1 Bft) W 265 ° 0 min 0,000 mm 0,0 UV-I 0 W/m² 4,9 °C 6,3 °C 9,7 km/h (2 Bft)
03.05.2019 04:19 6,3 °C 91 % 1007,5 hPa 0,0 mm 6,1 km/h (2 Bft) W-SW 254 ° 0 min 0,000 mm 0,0 UV-I 0 W/m² 4,9 °C 5,2 °C 9,7 km/h (2 Bft)
03.05.2019 04:20 6,3 °C 91 % 1007,5 hPa 0,0 mm 3,7 km/h (1 Bft) W-SW 242 ° 0 min 0,000 mm 0,0 UV-I 0 W/m² 4,9 °C 6,3 °C 6,4 km/h (2 Bft)
03.05.2019 04:21 6,3 °C 91 % 1007,4 hPa 0,2 mm 6,8 km/h (2 Bft) SW 229 ° 0 min 0,000 mm 0,0 UV-I 0 W/m² 4,9 °C 5,0 °C 11,3 km/h (2 Bft)
03.05.2019 04:22 6,3 °C 91 % 1007,4 hPa 0,0 mm 9,9 km/h (2 Bft) W 267 ° 0 min 0,000 mm 0,0 UV-I 0 W/m² 4,9 °C 4,2 °C 16,1 km/h (3 Bft)
03.05.2019 04:23 6,3 °C 91 % 1007,5 hPa 0,0 mm 12,6 km/h (3 Bft) W-SW 255 ° 0 min 0,000 mm 0,0 UV-I 0 W/m² 4,9 °C 3,7 °C 16,1 km/h (3 Bft)
03.05.2019 04:24 6,3 °C 91 % 1007,5 hPa 0,0 mm 12,5 km/h (3 Bft) W-SW 246 ° 0 min 0,000 mm 0,0 UV-I 0 W/m² 4,9 °C 3,7 °C 17,7 km/h (3 Bft)
03.05.2019 04:25 6,3 °C 91 % 1007,5 hPa 0,0 mm 7,5 km/h (2 Bft) W 267 ° 0 min 0,000 mm 0,0 UV-I 0 W/m² 4,9 °C 4,8 °C 11,3 km/h (2 Bft)
03.05.2019 04:26 6,3 °C 91 % 1007,5 hPa 0,0 mm 7,6 km/h (2 Bft) SW 223 ° 0 min 0,000 mm 0,0 UV-I 0 W/m² 4,9 °C 4,8 °C 11,3 km/h (2 Bft)
03.05.2019 04:27 6,3 °C 91 % 1007,4 hPa 0,0 mm 5,0 km/h (1 Bft) W 265 ° 0 min 0,000 mm 0,0 UV-I 0 W/m² 4,9 °C 5,6 °C 9,7 km/h (2 Bft)
03.05.2019 04:28 6,3 °C 91 % 1007,5 hPa 0,0 mm 6,4 km/h (2 Bft) SW 216 ° 0 min 0,000 mm 0,0 UV-I 0 W/m² 4,9 °C 5,1 °C 11,3 km/h (2 Bft)
03.05.2019 04:29 6,3 °C 91 % 1007,4 hPa 0,0 mm 5,6 km/h (1 Bft) W-SW 243 ° 0 min 0,000 mm 0,0 UV-I 0 W/m² 4,9 °C 5,3 °C 9,7 km/h (2 Bft)
03.05.2019 04:30 6,3 °C 91 % 1007,4 hPa 0,0 mm 7,4 km/h (2 Bft) W-SW 250 ° 0 min 0,000 mm 0,0 UV-I 0 W/m² 4,9 °C 4,8 °C 12,9 km/h (3 Bft)
03.05.2019 04:31 6,3 °C 91 % 1007,4 hPa 0,0 mm 5,6 km/h (1 Bft) W 281 ° 0 min 0,000 mm 0,0 UV-I 0 W/m² 4,9 °C 5,3 °C 11,3 km/h (2 Bft)
03.05.2019 04:32 6,3 °C 91 % 1007,4 hPa 0,0 mm 7,2 km/h (2 Bft) W-SW 239 ° 0 min 0,000 mm 0,0 UV-I 0 W/m² 4,9 °C 4,9 °C 14,5 km/h (3 Bft)
03.05.2019 04:33 6,3 °C 91 % 1007,4 hPa 0,0 mm 4,8 km/h (1 Bft) W-NW 292 ° 0 min 0,000 mm 0,0 UV-I 0 W/m² 4,9 °C 5,6 °C 9,7 km/h (2 Bft)
03.05.2019 04:34 6,3 °C 91 % 1007,4 hPa 0,0 mm 2,5 km/h (1 Bft) S-SW 198 ° 0 min 0,000 mm 0,0 UV-I 0 W/m² 4,9 °C 6,3 °C 8,0 km/h (2 Bft)
03.05.2019 04:35 6,3 °C 91 % 1007,4 hPa 0,0 mm 5,2 km/h (1 Bft) SW 219 ° 0 min 0,000 mm 0,0 UV-I 0 W/m² 4,9 °C 5,5 °C 8,0 km/h (2 Bft)
03.05.2019 04:36 6,3 °C 91 % 1007,4 hPa 0,0 mm 5,4 km/h (1 Bft) W 263 ° 0 min 0,000 mm 0,0 UV-I 0 W/m² 4,9 °C 5,4 °C 9,7 km/h (2 Bft)
03.05.2019 04:37 6,3 °C 91 % 1007,3 hPa 0,0 mm 12,5 km/h (3 Bft) W 279 ° 0 min 0,000 mm 0,0 UV-I 0 W/m² 4,9 °C 3,7 °C 16,1 km/h (3 Bft)
03.05.2019 04:38 6,3 °C 91 % 1007,3 hPa 0,0 mm 4,6 km/h (1 Bft) W 271 ° 0 min 0,000 mm 0,0 UV-I 0 W/m² 4,9 °C 5,7 °C 9,7 km/h (2 Bft)
03.05.2019 04:39 6,3 °C 91 % 1007,3 hPa 0,0 mm 5,7 km/h (1 Bft) W 261 ° 0 min 0,000 mm 0,0 UV-I 0 W/m² 4,9 °C 5,3 °C 11,3 km/h (2 Bft)
03.05.2019 04:40 6,2 °C 91 % 1007,3 hPa 0,0 mm 6,5 km/h (2 Bft) W 265 ° 0 min 0,000 mm 0,0 UV-I 0 W/m² 4,8 °C 4,9 °C 11,3 km/h (2 Bft)
03.05.2019 04:41 6,2 °C 91 % 1007,3 hPa 0,0 mm 5,8 km/h (2 Bft) W-NW 286 ° 0 min 0,000 mm 0,0 UV-I 0 W/m² 4,8 °C 5,2 °C 9,7 km/h (2 Bft)
03.05.2019 04:42 6,2 °C 91 % 1007,3 hPa 0,0 mm 5,5 km/h (1 Bft) W-NW 296 ° 0 min 0,000 mm 0,0 UV-I 0 W/m² 4,8 °C 5,3 °C 8,0 km/h (2 Bft)
03.05.2019 04:43 6,2 °C 91 % 1007,3 hPa 0,0 mm 7,6 km/h (2 Bft) W-SW 253 ° 0 min 0,000 mm 0,0 UV-I 0 W/m² 4,8 °C 4,6 °C 14,5 km/h (3 Bft)
03.05.2019 04:44 6,2 °C 91 % 1007,2 hPa 0,0 mm 8,1 km/h (2 Bft) W-SW 252 ° 0 min 0,000 mm 0,0 UV-I 0 W/m² 4,8 °C 4,5 °C 14,5 km/h (3 Bft)
03.05.2019 04:45 6,2 °C 91 % 1007,3 hPa 0,0 mm 11,3 km/h (2 Bft) W 262 ° 0 min 0,000 mm 0,0 UV-I 0 W/m² 4,8 °C 3,8 °C 16,1 km/h (3 Bft)
03.05.2019 04:46 6,2 °C 91 % 1007,3 hPa 0,0 mm 8,8 km/h (2 Bft) W-SW 252 ° 0 min 0,000 mm 0,0 UV-I 0 W/m² 4,8 °C 4,4 °C 14,5 km/h (3 Bft)
03.05.2019 04:47 6,2 °C 91 % 1007,3 hPa 0,0 mm 11,7 km/h (2 Bft) W 261 ° 0 min 0,000 mm 0,0 UV-I 0 W/m² 4,8 °C 3,8 °C 17,7 km/h (3 Bft)
03.05.2019 04:48 6,3 °C 91 % 1007,3 hPa 0,0 mm 10,5 km/h (2 Bft) W 274 ° 0 min 0,000 mm 0,0 UV-I 0 W/m² 4,9 °C 4,1 °C 14,5 km/h (3 Bft)
03.05.2019 04:49 6,2 °C 91 % 1007,3 hPa 0,0 mm 10,9 km/h (2 Bft) W-SW 241 ° 0 min 0,000 mm 0,0 UV-I 0 W/m² 4,8 °C 3,9 °C 16,1 km/h (3 Bft)
03.05.2019 04:50 6,2 °C 91 % 1007,3 hPa 0,0 mm 7,3 km/h (2 Bft) W 260 ° 0 min 0,000 mm 0,0 UV-I 0 W/m² 4,8 °C 4,7 °C 12,9 km/h (3 Bft)
03.05.2019 04:51 6,2 °C 91 % 1007,2 hPa 0,0 mm 9,9 km/h (2 Bft) W-NW 283 ° 0 min 0,000 mm 0,0 UV-I 0 W/m² 4,8 °C 4,1 °C 16,1 km/h (3 Bft)
03.05.2019 04:52 6,2 °C 91 % 1007,3 hPa 0,0 mm 13,1 km/h (3 Bft) W-NW 287 ° 0 min 0,000 mm 0,0 UV-I 0 W/m² 4,8 °C 3,5 °C 19,3 km/h (3 Bft)
03.05.2019 04:53 6,2 °C 91 % 1007,2 hPa 0,0 mm 12,7 km/h (3 Bft) W-SW 254 ° 0 min 0,000 mm 0,0 UV-I 0 W/m² 4,8 °C 3,6 °C 17,7 km/h (3 Bft)
03.05.2019 04:54 6,2 °C 91 % 1007,2 hPa 0,0 mm 7,6 km/h (2 Bft) W 271 ° 0 min 0,000 mm 0,0 UV-I 0 W/m² 4,8 °C 4,6 °C 12,9 km/h (3 Bft)
03.05.2019 04:55 6,2 °C 91 % 1007,2 hPa 0,0 mm 6,7 km/h (2 Bft) W 260 ° 0 min 0,000 mm 0,0 UV-I 0 W/m² 4,8 °C 4,9 °C 12,9 km/h (3 Bft)
03.05.2019 04:56 6,2 °C 91 % 1007,2 hPa 0,0 mm 13,3 km/h (3 Bft) W 274 ° 0 min 0,000 mm 0,0 UV-I 0 W/m² 4,8 °C 3,5 °C 17,7 km/h (3 Bft)
03.05.2019 04:57 6,2 °C 91 % 1007,1 hPa 0,0 mm 8,3 km/h (2 Bft) W 260 ° 0 min 0,000 mm 0,0 UV-I 0 W/m² 4,8 °C 4,5 °C 12,9 km/h (3 Bft)
03.05.2019 04:58 6,2 °C 91 % 1007,1 hPa 0,0 mm 9,0 km/h (2 Bft) W-SW 257 ° 0 min 0,000 mm 0,0 UV-I 0 W/m² 4,8 °C 4,3 °C 16,1 km/h (3 Bft)
03.05.2019 04:59 6,2 °C 91 % 1007,1 hPa 0,0 mm 16,4 km/h (3 Bft) W 263 ° 0 min 0,000 mm 0,0 UV-I 0 W/m² 4,8 °C 3,0 °C 20,9 km/h (4 Bft)
03.05.2019 05:00 6,2 °C 91 % 1007,1 hPa 0,0 mm 10,6 km/h (2 Bft) W 262 ° 0 min 0,000 mm 0,0 UV-I 0 W/m² 4,8 °C 4,0 °C 12,9 km/h (3 Bft)
03.05.2019 05:01 6,2 °C 91 % 1007,2 hPa 0,0 mm 8,4 km/h (2 Bft) W-SW 257 ° 0 min 0,000 mm 0,0 UV-I 0 W/m² 4,8 °C 4,4 °C 14,5 km/h (3 Bft)
03.05.2019 05:02 6,2 °C 91 % 1007,2 hPa 0,0 mm 10,2 km/h (2 Bft) W 262 ° 0 min 0,000 mm 0,0 UV-I 0 W/m² 4,8 °C 4,1 °C 16,1 km/h (3 Bft)
03.05.2019 05:03 6,2 °C 91 % 1007,1 hPa 0,0 mm 9,7 km/h (2 Bft) W-NW 298 ° 0 min 0,000 mm 0,0 UV-I 0 W/m² 4,8 °C 4,2 °C 12,9 km/h (3 Bft)
03.05.2019 05:04 6,2 °C 91 % 1007,1 hPa 0,0 mm 7,6 km/h (2 Bft) W 267 ° 0 min 0,000 mm 0,0 UV-I 0 W/m² 4,8 °C 4,6 °C 11,3 km/h (2 Bft)
03.05.2019 05:05 6,2 °C 91 % 1007,1 hPa 0,0 mm 5,4 km/h (1 Bft) W-NW 288 ° 0 min 0,000 mm 0,0 UV-I 0 W/m² 4,8 °C 5,3 °C 12,9 km/h (3 Bft)
03.05.2019 05:06 6,2 °C 91 % 1007,1 hPa 0,0 mm 13,2 km/h (3 Bft) W-NW 293 ° 0 min 0,000 mm 0,0 UV-I 0 W/m² 4,8 °C 3,5 °C 19,3 km/h (3 Bft)
03.05.2019 05:07 6,2 °C 91 % 1007,1 hPa 0,0 mm 9,0 km/h (2 Bft) W 265 ° 0 min 0,000 mm 0,0 UV-I 0 W/m² 4,8 °C 4,3 °C 16,1 km/h (3 Bft)
03.05.2019 05:08 6,2 °C 91 % 1007,1 hPa 0,0 mm 12,1 km/h (2 Bft) W 260 ° 0 min 0,000 mm 0,0 UV-I 0 W/m² 4,8 °C 3,7 °C 16,1 km/h (3 Bft)
03.05.2019 05:09 6,2 °C 91 % 1007,2 hPa 0,0 mm 7,0 km/h (2 Bft) W-NW 288 ° 0 min 0,000 mm 0,0 UV-I 0 W/m² 4,8 °C 4,8 °C 12,9 km/h (3 Bft)
03.05.2019 05:10 6,2 °C 91 % 1007,2 hPa 0,0 mm 11,6 km/h (2 Bft) W 265 ° 0 min 0,000 mm 0,0 UV-I 0 W/m² 4,8 °C 3,8 °C 17,7 km/h (3 Bft)
03.05.2019 05:11 6,2 °C 91 % 1007,2 hPa 0,0 mm 10,0 km/h (2 Bft) W-SW 257 ° 0 min 0,000 mm 0,0 UV-I 0 W/m² 4,8 °C 4,1 °C 17,7 km/h (3 Bft)
03.05.2019 05:12 6,2 °C 91 % 1007,2 hPa 0,0 mm 9,2 km/h (2 Bft) W-NW 291 ° 0 min 0,000 mm 0,0 UV-I 0 W/m² 4,8 °C 4,3 °C 17,7 km/h (3 Bft)
03.05.2019 05:13 6,2 °C 91 % 1007,2 hPa 0,0 mm 5,2 km/h (1 Bft) SW 230 ° 0 min 0,000 mm 0,0 UV-I 0 W/m² 4,8 °C 5,4 °C 11,3 km/h (2 Bft)
03.05.2019 05:14 6,2 °C 91 % 1007,3 hPa 0,0 mm 8,2 km/h (2 Bft) W-SW 249 ° 0 min 0,000 mm 0,0 UV-I 0 W/m² 4,8 °C 4,5 °C 12,9 km/h (3 Bft)
03.05.2019 05:15 6,2 °C 91 % 1007,2 hPa 0,0 mm 7,8 km/h (2 Bft) W-SW 254 ° 0 min 0,000 mm 0,0 UV-I 0 W/m² 4,8 °C 4,6 °C 11,3 km/h (2 Bft)
03.05.2019 05:16 6,2 °C 91 % 1007,3 hPa 0,0 mm 4,9 km/h (1 Bft) W 267 ° 0 min 0,000 mm 0,0 UV-I 0 W/m² 4,8 °C 5,5 °C 9,7 km/h (2 Bft)
03.05.2019 05:17 6,2 °C 91 % 1007,2 hPa 0,0 mm 10,5 km/h (2 Bft) W-SW 242 ° 0 min 0,000 mm 0,0 UV-I 0 W/m² 4,8 °C 4,0 °C 14,5 km/h (3 Bft)
03.05.2019 05:18 6,2 °C 91 % 1007,2 hPa 0,0 mm 11,2 km/h (2 Bft) W-SW 256 ° 0 min 0,000 mm 0,0 UV-I 0 W/m² 4,8 °C 3,9 °C 14,5 km/h (3 Bft)
03.05.2019 05:19 6,2 °C 91 % 1007,2 hPa 0,0 mm 11,8 km/h (2 Bft) W-NW 302 ° 0 min 0,000 mm 0,0 UV-I 0 W/m² 4,8 °C 3,7 °C 14,5 km/h (3 Bft)
03.05.2019 05:20 6,2 °C 91 % 1007,2 hPa 0,0 mm 5,4 km/h (1 Bft) W 267 ° 0 min 0,000 mm 0,0 UV-I 0 W/m² 4,8 °C 5,3 °C 11,3 km/h (2 Bft)
03.05.2019 05:21 6,2 °C 91 % 1007,2 hPa 0,0 mm 10,0 km/h (2 Bft) W 259 ° 0 min 0,000 mm 0,0 UV-I 0 W/m² 4,8 °C 4,1 °C 14,5 km/h (3 Bft)
03.05.2019 05:22 6,2 °C 91 % 1007,2 hPa 0,0 mm 6,8 km/h (2 Bft) W 262 ° 0 min 0,000 mm 0,0 UV-I 0 W/m² 4,8 °C 4,9 °C 12,9 km/h (3 Bft)
03.05.2019 05:23 6,2 °C 91 % 1007,2 hPa 0,0 mm 6,5 km/h (2 Bft) W-SW 246 ° 0 min 0,000 mm 0,0 UV-I 0 W/m² 4,8 °C 4,9 °C 9,7 km/h (2 Bft)
03.05.2019 05:24 6,2 °C 91 % 1007,2 hPa 0,0 mm 9,3 km/h (2 Bft) W 267 ° 0 min 0,000 mm 0,0 UV-I 0 W/m² 4,8 °C 4,2 °C 12,9 km/h (3 Bft)
03.05.2019 05:25 6,2 °C 91 % 1007,2 hPa 0,0 mm 5,1 km/h (1 Bft) SW 217 ° 0 min 0,000 mm 0,0 UV-I 0 W/m² 4,8 °C 5,4 °C 9,7 km/h (2 Bft)
03.05.2019 05:26 6,2 °C 91 % 1007,2 hPa 0,0 mm 0,2 km/h (0 Bft) SW 217 ° 0 min 0,000 mm 0,0 UV-I 0 W/m² 4,8 °C 6,2 °C 1,6 km/h (1 Bft)
03.05.2019 05:27 6,2 °C 91 % 1007,2 hPa 0,0 mm 4,2 km/h (1 Bft) W 274 ° 0 min 0,000 mm 0,0 UV-I 0 W/m² 4,8 °C 6,2 °C 12,9 km/h (3 Bft)
03.05.2019 05:28 6,2 °C 91 % 1007,2 hPa 0,0 mm 6,0 km/h (2 Bft) W-SW 248 ° 0 min 0,000 mm 0,0 UV-I 0 W/m² 4,8 °C 5,1 °C 12,9 km/h (3 Bft)
03.05.2019 05:29 6,2 °C 91 % 1007,2 hPa 0,0 mm 3,8 km/h (1 Bft) W 279 ° 0 min 0,000 mm 0,0 UV-I 0 W/m² 4,8 °C 6,2 °C 6,4 km/h (2 Bft)
03.05.2019 05:30 6,2 °C 91 % 1007,2 hPa 0,0 mm 5,0 km/h (1 Bft) W-SW 257 ° 0 min 0,000 mm 0,0 UV-I 0 W/m² 4,8 °C 5,4 °C 8,0 km/h (2 Bft)
03.05.2019 05:31 6,2 °C 91 % 1007,2 hPa 0,0 mm 7,6 km/h (2 Bft) W 268 ° 0 min 0,000 mm 0,0 UV-I 0 W/m² 4,8 °C 4,6 °C 14,5 km/h (3 Bft)
03.05.2019 05:32 6,2 °C 91 % 1007,2 hPa 0,0 mm 4,3 km/h (1 Bft) W-SW 254 ° 0 min 0,000 mm 0,0 UV-I 0 W/m² 4,8 °C 6,2 °C 6,4 km/h (2 Bft)
03.05.2019 05:33 6,2 °C 91 % 1007,2 hPa 0,0 mm 5,7 km/h (1 Bft) W 275 ° 0 min 0,000 mm 0,0 UV-I 0 W/m² 4,8 °C 5,2 °C 9,7 km/h (2 Bft)
03.05.2019 05:34 6,2 °C 91 % 1007,2 hPa 0,0 mm 5,7 km/h (1 Bft) W 267 ° 0 min 0,000 mm 0,0 UV-I 0 W/m² 4,8 °C 5,2 °C 9,7 km/h (2 Bft)
03.05.2019 05:35 6,2 °C 91 % 1007,2 hPa 0,0 mm 6,5 km/h (2 Bft) W-NW 283 ° 0 min 0,000 mm 0,0 UV-I 0 W/m² 4,8 °C 4,9 °C 9,7 km/h (2 Bft)
03.05.2019 05:36 6,2 °C 91 % 1007,2 hPa 0,0 mm 5,9 km/h (2 Bft) W 277 ° 0 min 0,000 mm 0,0 UV-I 0 W/m² 4,8 °C 5,1 °C 11,3 km/h (2 Bft)
03.05.2019 05:37 6,2 °C 91 % 1007,2 hPa 0,0 mm 3,5 km/h (1 Bft) W 264 ° 0 min 0,000 mm 0,0 UV-I 0 W/m² 4,8 °C 6,2 °C 9,7 km/h (2 Bft)
03.05.2019 05:38 6,2 °C 91 % 1007,3 hPa 0,0 mm 4,4 km/h (1 Bft) W-SW 258 ° 0 min 0,000 mm 0,0 UV-I 0 W/m² 4,8 °C 6,2 °C 9,7 km/h (2 Bft)
03.05.2019 05:39 6,2 °C 91 % 1007,3 hPa 0,0 mm 4,0 km/h (1 Bft) W 273 ° 0 min 0,000 mm 0,0 UV-I 0 W/m² 4,8 °C 6,2 °C 6,4 km/h (2 Bft)
03.05.2019 05:40 6,2 °C 91 % 1007,2 hPa 0,0 mm 4,0 km/h (1 Bft) W 274 ° 0 min 0,000 mm 0,0 UV-I 0 W/m² 4,8 °C 6,2 °C 6,4 km/h (2 Bft)
03.05.2019 05:41 6,2 °C 91 % 1007,3 hPa 0,0 mm 2,9 km/h (1 Bft) W 271 ° 0 min 0,000 mm 0,0 UV-I 0 W/m² 4,8 °C 6,2 °C 4,8 km/h (1 Bft)
03.05.2019 05:42 6,2 °C 91 % 1007,3 hPa 0,0 mm 1,8 km/h (1 Bft) W 271 ° 0 min 0,000 mm 0,0 UV-I 0 W/m² 4,8 °C 6,2 °C 4,8 km/h (1 Bft)
03.05.2019 05:43 6,2 °C 91 % 1007,2 hPa 0,0 mm 4,9 km/h (1 Bft) W 269 ° 0 min 0,000 mm 0,0 UV-I 0 W/m² 4,8 °C 5,5 °C 8,0 km/h (2 Bft)
03.05.2019 05:44 6,2 °C 91 % 1007,3 hPa 0,0 mm 3,9 km/h (1 Bft) W 271 ° 0 min 0,000 mm 0,0 UV-I 0 W/m² 4,8 °C 6,2 °C 9,7 km/h (2 Bft)
03.05.2019 05:45 6,2 °C 91 % 1007,3 hPa 0,0 mm 7,6 km/h (2 Bft) W 271 ° 0 min 0,000 mm 0,0 UV-I 0 W/m² 4,8 °C 4,6 °C 11,3 km/h (2 Bft)
03.05.2019 05:46 6,2 °C 91 % 1007,2 hPa 0,0 mm 7,2 km/h (2 Bft) W 265 ° 0 min 0,000 mm 0,0 UV-I 0 W/m² 4,8 °C 4,8 °C 9,7 km/h (2 Bft)
03.05.2019 05:47 6,2 °C 91 % 1007,3 hPa 0,0 mm 3,0 km/h (1 Bft) W 275 ° 0 min 0,000 mm 0,0 UV-I 0 W/m² 4,8 °C 6,2 °C 4,8 km/h (1 Bft)
03.05.2019 05:48 6,2 °C 91 % 1007,3 hPa 0,0 mm 2,6 km/h (1 Bft) W 267 ° 0 min 0,000 mm 0,0 UV-I 0 W/m² 4,8 °C 6,2 °C 4,8 km/h (1 Bft)
03.05.2019 05:49 6,2 °C 91 % 1007,3 hPa 0,0 mm 4,3 km/h (1 Bft) W 263 ° 0 min 0,000 mm 0,0 UV-I 0 W/m² 4,8 °C 6,2 °C 6,4 km/h (2 Bft)
03.05.2019 05:50 6,3 °C 91 % 1007,2 hPa 0,0 mm 2,8 km/h (1 Bft) W-SW 256 ° 0 min 0,000 mm 0,0 UV-I 0 W/m² 4,9 °C 6,3 °C 8,0 km/h (2 Bft)
03.05.2019 05:51 6,3 °C 91 % 1007,2 hPa 0,0 mm 6,9 km/h (2 Bft) W 259 ° 0 min 0,000 mm 0,0 UV-I 0 W/m² 4,9 °C 5,0 °C 11,3 km/h (2 Bft)
03.05.2019 05:52 6,2 °C 91 % 1007,3 hPa 0,0 mm 5,5 km/h (1 Bft) W 279 ° 0 min 0,000 mm 0,0 UV-I 0 W/m² 4,8 °C 5,3 °C 6,4 km/h (2 Bft)
03.05.2019 05:53 6,2 °C 91 % 1007,3 hPa 0,0 mm 3,1 km/h (1 Bft) W 268 ° 0 min 0,000 mm 0,0 UV-I 0 W/m² 4,8 °C 6,2 °C 4,8 km/h (1 Bft)
03.05.2019 05:54 6,2 °C 91 % 1007,3 hPa 0,0 mm 6,5 km/h (2 Bft) W 273 ° 0 min 0,000 mm 0,0 UV-I 0 W/m² 4,8 °C 4,9 °C 11,3 km/h (2 Bft)
03.05.2019 05:55 6,2 °C 91 % 1007,3 hPa 0,0 mm 5,9 km/h (2 Bft) W-SW 254 ° 0 min 0,000 mm 0,0 UV-I 0 W/m² 4,8 °C 5,1 °C 11,3 km/h (2 Bft)
03.05.2019 05:56 6,3 °C 91 % 1007,4 hPa 0,0 mm 5,2 km/h (1 Bft) W 261 ° 0 min 0,000 mm 0,0 UV-I 0 W/m² 4,9 °C 5,5 °C 9,7 km/h (2 Bft)
03.05.2019 05:57 6,3 °C 91 % 1007,3 hPa 0,0 mm 2,7 km/h (1 Bft) W 265 ° 0 min 0,000 mm 0,0 UV-I 0 W/m² 4,9 °C 6,3 °C 4,8 km/h (1 Bft)
03.05.2019 05:58 6,2 °C 91 % 1007,3 hPa 0,0 mm 2,1 km/h (1 Bft) W 266 ° 0 min 0,000 mm 0,0 UV-I 0 W/m² 4,8 °C 6,2 °C 6,4 km/h (2 Bft)
03.05.2019 05:59 6,2 °C 91 % 1007,4 hPa 0,0 mm 2,5 km/h (1 Bft) W-NW 290 ° 0 min 0,000 mm 0,0 UV-I 0 W/m² 4,8 °C 6,2 °C 6,4 km/h (2 Bft)
03.05.2019 06:00 6,2 °C 91 % 1007,4 hPa 0,0 mm 5,2 km/h (1 Bft) W-NW 282 ° 0 min 0,000 mm 0,0 UV-I 0 W/m² 4,8 °C 5,4 °C 6,4 km/h (2 Bft)
03.05.2019 06:01 6,2 °C 91 % 1007,4 hPa 0,0 mm 5,6 km/h (1 Bft) SW 230 ° 0 min 0,000 mm 0,0 UV-I 0 W/m² 4,8 °C 5,2 °C 9,7 km/h (2 Bft)
03.05.2019 06:02 6,2 °C 91 % 1007,4 hPa 0,0 mm 2,4 km/h (1 Bft) W-SW 252 ° 0 min 0,000 mm 0,0 UV-I 0 W/m² 4,8 °C 6,2 °C 9,7 km/h (2 Bft)
03.05.2019 06:03 6,2 °C 91 % 1007,4 hPa 0,0 mm 8,4 km/h (2 Bft) W 271 ° 0 min 0,000 mm 0,0 UV-I 0 W/m² 4,8 °C 4,4 °C 11,3 km/h (2 Bft)
03.05.2019 06:04 6,2 °C 91 % 1007,4 hPa 0,0 mm 5,0 km/h (1 Bft) W 262 ° 0 min 0,000 mm 0,0 UV-I 0 W/m² 4,8 °C 5,4 °C 9,7 km/h (2 Bft)
03.05.2019 06:05 6,2 °C 91 % 1007,4 hPa 0,0 mm 3,1 km/h (1 Bft) W-NW 282 ° 0 min 0,000 mm 0,0 UV-I 0 W/m² 4,8 °C 6,2 °C 6,4 km/h (2 Bft)
03.05.2019 06:06 6,2 °C 91 % 1007,5 hPa 0,0 mm 7,1 km/h (2 Bft) W-SW 255 ° 0 min 0,000 mm 0,0 UV-I 0 W/m² 4,8 °C 4,8 °C 12,9 km/h (3 Bft)
03.05.2019 06:07 6,2 °C 91 % 1007,5 hPa 0,0 mm 6,6 km/h (2 Bft) W 264 ° 0 min 0,000 mm 0,0 UV-I 0 W/m² 4,8 °C 4,9 °C 12,9 km/h (3 Bft)
03.05.2019 06:08 6,2 °C 91 % 1007,4 hPa 0,0 mm 12,5 km/h (3 Bft) W-SW 248 ° 0 min 0,000 mm 0,0 UV-I 0 W/m² 4,8 °C 3,6 °C 17,7 km/h (3 Bft)
03.05.2019 06:09 6,2 °C 91 % 1007,5 hPa 0,0 mm 4,7 km/h (1 Bft) W 264 ° 0 min 0,000 mm 0,0 UV-I 0 W/m² 4,8 °C 5,6 °C 9,7 km/h (2 Bft)
03.05.2019 06:10 6,2 °C 91 % 1007,5 hPa 0,0 mm 7,4 km/h (2 Bft) W 263 ° 0 min 0,000 mm 0,0 UV-I 0 W/m² 4,8 °C 4,7 °C 12,9 km/h (3 Bft)
03.05.2019 06:11 6,2 °C 91 % 1007,5 hPa 0,0 mm 8,1 km/h (2 Bft) W 261 ° 0 min 0,000 mm 0,0 UV-I 0 W/m² 4,8 °C 4,5 °C 12,9 km/h (3 Bft)
03.05.2019 06:12 6,2 °C 91 % 1007,4 hPa 0,0 mm 10,9 km/h (2 Bft) W 270 ° 0 min 0,000 mm 0,0 UV-I 5 W/m² 4,8 °C 3,9 °C 14,5 km/h (3 Bft)
03.05.2019 06:13 6,2 °C 91 % 1007,5 hPa 0,0 mm 5,6 km/h (1 Bft) W-SW 258 ° 0 min 0,000 mm 0,0 UV-I 5 W/m² 4,8 °C 5,2 °C 9,7 km/h (2 Bft)
03.05.2019 06:14 6,2 °C 91 % 1007,5 hPa 0,0 mm 6,7 km/h (2 Bft) W 267 ° 0 min 0,000 mm 0,0 UV-I 5 W/m² 4,8 °C 4,9 °C 11,3 km/h (2 Bft)
03.05.2019 06:15 6,2 °C 91 % 1007,5 hPa 0,0 mm 3,7 km/h (1 Bft) W 267 ° 0 min 0,000 mm 0,0 UV-I 5 W/m² 4,8 °C 6,2 °C 11,3 km/h (2 Bft)
03.05.2019 06:16 6,1 °C 91 % 1007,5 hPa 0,0 mm 8,7 km/h (2 Bft) W 263 ° 0 min 0,000 mm 0,0 UV-I 5 W/m² 4,7 °C 4,3 °C 12,9 km/h (3 Bft)
03.05.2019 06:17 6,2 °C 91 % 1007,5 hPa 0,0 mm 12,8 km/h (3 Bft) W-NW 298 ° 0 min 0,000 mm 0,0 UV-I 7 W/m² 4,8 °C 3,6 °C 17,7 km/h (3 Bft)
03.05.2019 06:18 6,1 °C 91 % 1007,5 hPa 0,0 mm 10,0 km/h (2 Bft) W 267 ° 0 min 0,000 mm 0,0 UV-I 7 W/m² 4,7 °C 4,0 °C 12,9 km/h (3 Bft)
03.05.2019 06:19 6,1 °C 91 % 1007,4 hPa 0,0 mm 5,7 km/h (1 Bft) W-SW 243 ° 0 min 0,000 mm 0,0 UV-I 7 W/m² 4,7 °C 5,1 °C 12,9 km/h (3 Bft)
03.05.2019 06:20 6,2 °C 91 % 1007,5 hPa 0,0 mm 7,1 km/h (2 Bft) W 265 ° 0 min 0,000 mm 0,0 UV-I 7 W/m² 4,8 °C 4,8 °C 9,7 km/h (2 Bft)
03.05.2019 06:21 6,1 °C 91 % 1007,5 hPa 0,0 mm 6,8 km/h (2 Bft) W 262 ° 0 min 0,000 mm 0,0 UV-I 7 W/m² 4,7 °C 4,7 °C 11,3 km/h (2 Bft)
03.05.2019 06:22 6,1 °C 91 % 1007,5 hPa 0,0 mm 7,6 km/h (2 Bft) W-NW 283 ° 0 min 0,000 mm 0,0 UV-I 7 W/m² 4,7 °C 4,5 °C 12,9 km/h (3 Bft)
03.05.2019 06:23 6,1 °C 91 % 1007,5 hPa 0,0 mm 9,3 km/h (2 Bft) W 263 ° 0 min 0,000 mm 0,0 UV-I 7 W/m² 4,7 °C 4,1 °C 12,9 km/h (3 Bft)
03.05.2019 06:24 6,1 °C 91 % 1007,6 hPa 0,0 mm 6,0 km/h (2 Bft) W-SW 252 ° 0 min 0,000 mm 0,0 UV-I 7 W/m² 4,7 °C 5,0 °C 11,3 km/h (2 Bft)
03.05.2019 06:25 6,1 °C 91 % 1007,6 hPa 0,0 mm 8,9 km/h (2 Bft) W-NW 290 ° 0 min 0,000 mm 0,0 UV-I 7 W/m² 4,7 °C 4,2 °C 14,5 km/h (3 Bft)
03.05.2019 06:26 6,1 °C 92 % 1007,6 hPa 0,0 mm 11,7 km/h (2 Bft) W 265 ° 0 min 0,000 mm 0,0 UV-I 5 W/m² 4,9 °C 3,6 °C 17,7 km/h (3 Bft)
03.05.2019 06:27 6,1 °C 92 % 1007,6 hPa 0,0 mm 11,5 km/h (2 Bft) W-SW 239 ° 0 min 0,000 mm 0,0 UV-I 5 W/m² 4,9 °C 3,7 °C 17,7 km/h (3 Bft)
03.05.2019 06:28 6,1 °C 92 % 1007,7 hPa 0,0 mm 7,2 km/h (2 Bft) W 264 ° 0 min 0,000 mm 0,0 UV-I 5 W/m² 4,9 °C 4,6 °C 14,5 km/h (3 Bft)
03.05.2019 06:29 6,1 °C 92 % 1007,7 hPa 0,0 mm 6,2 km/h (2 Bft) W-SW 244 ° 0 min 0,000 mm 0,0 UV-I 5 W/m² 4,9 °C 4,9 °C 11,3 km/h (2 Bft)
03.05.2019 06:30 6,1 °C 92 % 1007,7 hPa 0,0 mm 8,0 km/h (2 Bft) W-NW 289 ° 0 min 0,000 mm 0,0 UV-I 5 W/m² 4,9 °C 4,4 °C 14,5 km/h (3 Bft)
03.05.2019 06:31 6,1 °C 92 % 1007,7 hPa 0,0 mm 5,0 km/h (1 Bft) W-SW 245 ° 0 min 0,000 mm 0,0 UV-I 5 W/m² 4,9 °C 5,3 °C 8,0 km/h (2 Bft)
03.05.2019 06:32 6,1 °C 92 % 1007,7 hPa 0,0 mm 4,4 km/h (1 Bft) W 269 ° 0 min 0,000 mm 0,0 UV-I 5 W/m² 4,9 °C 6,1 °C 6,4 km/h (2 Bft)
03.05.2019 06:33 6,1 °C 92 % 1007,7 hPa 0,0 mm 5,0 km/h (1 Bft) W 267 ° 0 min 0,000 mm 0,0 UV-I 7 W/m² 4,9 °C 5,3 °C 11,3 km/h (2 Bft)
03.05.2019 06:34 6,1 °C 91 % 1007,7 hPa 0,0 mm 2,9 km/h (1 Bft) W 261 ° 0 min 0,000 mm 0,0 UV-I 7 W/m² 4,7 °C 6,1 °C 3,2 km/h (1 Bft)
03.05.2019 06:35 6,1 °C 91 % 1007,7 hPa 0,0 mm 1,4 km/h (1 Bft) W 260 ° 0 min 0,000 mm 0,0 UV-I 7 W/m² 4,7 °C 6,1 °C 3,2 km/h (1 Bft)
03.05.2019 06:36 6,1 °C 91 % 1007,7 hPa 0,0 mm 1,7 km/h (1 Bft) W-SW 255 ° 0 min 0,000 mm 0,0 UV-I 7 W/m² 4,7 °C 6,1 °C 4,8 km/h (1 Bft)
03.05.2019 06:37 6,1 °C 91 % 1007,7 hPa 0,0 mm 3,4 km/h (1 Bft) SW 232 ° 0 min 0,000 mm 0,0 UV-I 7 W/m² 4,7 °C 6,1 °C 6,4 km/h (2 Bft)
03.05.2019 06:38 6,1 °C 91 % 1007,7 hPa 0,0 mm 2,1 km/h (1 Bft) SW 217 ° 0 min 0,000 mm 0,0 UV-I 9 W/m² 4,7 °C 6,1 °C 4,8 km/h (1 Bft)
03.05.2019 06:39 6,1 °C 91 % 1007,8 hPa 0,0 mm 2,0 km/h (1 Bft) SW 221 ° 0 min 0,000 mm 0,0 UV-I 11 W/m² 4,7 °C 6,1 °C 6,4 km/h (2 Bft)
03.05.2019 06:40 6,1 °C 91 % 1007,7 hPa 0,0 mm 0,7 km/h (0 Bft) SW 225 ° 0 min 0,000 mm 0,0 UV-I 11 W/m² 4,7 °C 6,1 °C 3,2 km/h (1 Bft)
03.05.2019 06:41 6,1 °C 91 % 1007,7 hPa 0,0 mm 1,3 km/h (1 Bft) SW 232 ° 0 min 0,000 mm 0,0 UV-I 11 W/m² 4,7 °C 6,1 °C 4,8 km/h (1 Bft)
03.05.2019 06:42 6,1 °C 91 % 1007,8 hPa 0,0 mm 1,7 km/h (1 Bft) W-SW 242 ° 0 min 0,000 mm 0,0 UV-I 9 W/m² 4,7 °C 6,1 °C 4,8 km/h (1 Bft)
03.05.2019 06:43 6,1 °C 92 % 1007,8 hPa 0,0 mm 5,1 km/h (1 Bft) W-SW 257 ° 0 min 0,000 mm 0,0 UV-I 9 W/m² 4,9 °C 5,3 °C 9,7 km/h (2 Bft)
03.05.2019 06:44 6,1 °C 92 % 1007,7 hPa 0,0 mm 4,0 km/h (1 Bft) W-NW 300 ° 0 min 0,000 mm 0,0 UV-I 11 W/m² 4,9 °C 6,1 °C 9,7 km/h (2 Bft)
03.05.2019 06:45 6,1 °C 92 % 1007,7 hPa 0,0 mm 3,9 km/h (1 Bft) W-SW 238 ° 0 min 0,000 mm 0,0 UV-I 11 W/m² 4,9 °C 6,1 °C 4,8 km/h (1 Bft)
03.05.2019 06:46 6,1 °C 92 % 1007,7 hPa 0,0 mm 2,1 km/h (1 Bft) W-NW 288 ° 0 min 0,000 mm 0,0 UV-I 12 W/m² 4,9 °C 6,1 °C 4,8 km/h (1 Bft)
03.05.2019 06:47 6,1 °C 92 % 1007,7 hPa 0,0 mm 0,5 km/h (0 Bft) SW 227 ° 0 min 0,000 mm 0,0 UV-I 12 W/m² 4,9 °C 6,1 °C 3,2 km/h (1 Bft)
03.05.2019 06:48 6,1 °C 92 % 1007,7 hPa 0,0 mm 3,1 km/h (1 Bft) W 259 ° 0 min 0,000 mm 0,0 UV-I 12 W/m² 4,9 °C 6,1 °C 6,4 km/h (2 Bft)
03.05.2019 06:49 6,1 °C 92 % 1007,7 hPa 0,0 mm 3,3 km/h (1 Bft) SW 234 ° 0 min 0,000 mm 0,0 UV-I 12 W/m² 4,9 °C 6,1 °C 9,7 km/h (2 Bft)
03.05.2019 06:50 6,1 °C 92 % 1007,8 hPa 0,0 mm 8,0 km/h (2 Bft) W 259 ° 0 min 0,000 mm 0,0 UV-I 14 W/m² 4,9 °C 4,4 °C 12,9 km/h (3 Bft)
03.05.2019 06:51 6,1 °C 92 % 1007,8 hPa 0,0 mm 6,3 km/h (2 Bft) W-SW 250 ° 0 min 0,000 mm 0,0 UV-I 12 W/m² 4,9 °C 4,9 °C 11,3 km/h (2 Bft)
03.05.2019 06:52 6,1 °C 92 % 1007,8 hPa 0,0 mm 2,4 km/h (1 Bft) W-SW 250 ° 0 min 0,000 mm 0,0 UV-I 12 W/m² 4,9 °C 6,1 °C 6,4 km/h (2 Bft)
03.05.2019 06:53 6,1 °C 92 % 1007,8 hPa 0,0 mm 3,2 km/h (1 Bft) W 272 ° 0 min 0,000 mm 0,0 UV-I 12 W/m² 4,9 °C 6,1 °C 6,4 km/h (2 Bft)
03.05.2019 06:54 6,1 °C 92 % 1007,8 hPa 0,0 mm 5,6 km/h (1 Bft) W-SW 254 ° 0 min 0,000 mm 0,0 UV-I 12 W/m² 4,9 °C 5,1 °C 11,3 km/h (2 Bft)
03.05.2019 06:55 6,1 °C 92 % 1007,8 hPa 0,2 mm 5,3 km/h (1 Bft) W 273 ° 0 min 0,000 mm 0,0 UV-I 14 W/m² 4,9 °C 5,2 °C 6,4 km/h (2 Bft)
03.05.2019 06:56 6,1 °C 92 % 1007,8 hPa 0,0 mm 2,1 km/h (1 Bft) W 273 ° 0 min 0,000 mm 0,0 UV-I 14 W/m² 4,9 °C 6,1 °C 4,8 km/h (1 Bft)
03.05.2019 06:57 6,1 °C 92 % 1007,8 hPa 0,0 mm 2,5 km/h (1 Bft) W-NW 288 ° 0 min 0,000 mm 0,0 UV-I 14 W/m² 4,9 °C 6,1 °C 6,4 km/h (2 Bft)
03.05.2019 06:58 6,1 °C 92 % 1007,8 hPa 0,0 mm 2,2 km/h (1 Bft) W-NW 290 ° 0 min 0,000 mm 0,0 UV-I 14 W/m² 4,9 °C 6,1 °C 4,8 km/h (1 Bft)
03.05.2019 06:59 6,1 °C 92 % 1007,9 hPa 0,0 mm 1,9 km/h (1 Bft) W 270 ° 0 min 0,000 mm 0,0 UV-I 14 W/m² 4,9 °C 6,1 °C 6,4 km/h (2 Bft)
03.05.2019 07:00 6,1 °C 92 % 1007,9 hPa 0,0 mm 4,9 km/h (1 Bft) W-NW 290 ° 0 min 0,000 mm 0,0 UV-I 14 W/m² 4,9 °C 5,4 °C 6,4 km/h (2 Bft)
03.05.2019 07:01 6,1 °C 92 % 1007,9 hPa 0,0 mm 5,4 km/h (1 Bft) S-SW 196 ° 0 min 0,000 mm 0,0 UV-I 12 W/m² 4,9 °C 5,2 °C 8,0 km/h (2 Bft)
03.05.2019 07:02 6,1 °C 92 % 1007,9 hPa 0,0 mm 5,6 km/h (1 Bft) W-SW 252 ° 0 min 0,000 mm 0,0 UV-I 12 W/m² 4,9 °C 5,1 °C 9,7 km/h (2 Bft)
03.05.2019 07:03 6,1 °C 92 % 1007,9 hPa 0,0 mm 8,3 km/h (2 Bft) W-SW 246 ° 0 min 0,000 mm 0,0 UV-I 12 W/m² 4,9 °C 4,4 °C 12,9 km/h (3 Bft)
03.05.2019 07:04 6,1 °C 92 % 1007,9 hPa 0,0 mm 8,1 km/h (2 Bft) W 263 ° 0 min 0,000 mm 0,0 UV-I 14 W/m² 4,9 °C 4,4 °C 11,3 km/h (2 Bft)
03.05.2019 07:05 6,1 °C 92 % 1007,9 hPa 0,0 mm 6,4 km/h (2 Bft) S-SW 208 ° 0 min 0,000 mm 0,0 UV-I 14 W/m² 4,9 °C 4,9 °C 9,7 km/h (2 Bft)
03.05.2019 07:06 6,1 °C 92 % 1007,9 hPa 0,0 mm 4,8 km/h (1 Bft) W-SW 249 ° 0 min 0,000 mm 0,0 UV-I 16 W/m² 4,9 °C 5,4 °C 8,0 km/h (2 Bft)
03.05.2019 07:07 6,1 °C 92 % 1007,9 hPa 0,0 mm 3,8 km/h (1 Bft) W-SW 248 ° 0 min 0,000 mm 0,0 UV-I 16 W/m² 4,9 °C 6,1 °C 6,4 km/h (2 Bft)
03.05.2019 07:08 6,1 °C 92 % 1007,9 hPa 0,0 mm 3,0 km/h (1 Bft) W-SW 240 ° 0 min 0,000 mm 0,0 UV-I 19 W/m² 4,9 °C 6,1 °C 6,4 km/h (2 Bft)
03.05.2019 07:09 6,1 °C 92 % 1008,0 hPa 0,0 mm 7,1 km/h (2 Bft) W 261 ° 0 min 0,000 mm 0,0 UV-I 21 W/m² 4,9 °C 4,7 °C 11,3 km/h (2 Bft)
03.05.2019 07:10 6,1 °C 92 % 1007,9 hPa 0,0 mm 5,4 km/h (1 Bft) W-SW 248 ° 0 min 0,000 mm 0,0 UV-I 25 W/m² 4,9 °C 5,2 °C 9,7 km/h (2 Bft)
03.05.2019 07:11 6,1 °C 92 % 1008,0 hPa 0,0 mm 3,6 km/h (1 Bft) W-SW 255 ° 0 min 0,000 mm 0,0 UV-I 26 W/m² 4,9 °C 6,1 °C 6,4 km/h (2 Bft)
03.05.2019 07:12 6,1 °C 92 % 1008,0 hPa 0,0 mm 4,8 km/h (1 Bft) W-SW 245 ° 0 min 0,000 mm 0,0 UV-I 28 W/m² 4,9 °C 5,4 °C 11,3 km/h (2 Bft)
03.05.2019 07:13 6,1 °C 92 % 1008,0 hPa 0,0 mm 3,5 km/h (1 Bft) W 266 ° 0 min 0,000 mm 0,0 UV-I 32 W/m² 4,9 °C 6,1 °C 6,4 km/h (2 Bft)
03.05.2019 07:14 6,1 °C 92 % 1008,0 hPa 0,0 mm 6,5 km/h (2 Bft) W 279 ° 0 min 0,000 mm 0,0 UV-I 32 W/m² 4,9 °C 4,8 °C 11,3 km/h (2 Bft)
03.05.2019 07:15 6,1 °C 92 % 1008,0 hPa 0,0 mm 6,0 km/h (2 Bft) W-SW 257 ° 0 min 0,000 mm 0,0 UV-I 37 W/m² 4,9 °C 5,0 °C 9,7 km/h (2 Bft)
03.05.2019 07:16 6,1 °C 92 % 1008,0 hPa 0,0 mm 3,5 km/h (1 Bft) W 259 ° 0 min 0,000 mm 0,0 UV-I 39 W/m² 4,9 °C 6,1 °C 6,4 km/h (2 Bft)
03.05.2019 07:17 6,1 °C 92 % 1008,0 hPa 0,0 mm 7,6 km/h (2 Bft) W-SW 252 ° 0 min 0,000 mm 0,0 UV-I 40 W/m² 4,9 °C 4,5 °C 12,9 km/h (3 Bft)
03.05.2019 07:18 6,1 °C 92 % 1008,0 hPa 0,0 mm 4,2 km/h (1 Bft) W-SW 249 ° 0 min 0,000 mm 0,0 UV-I 39 W/m² 4,9 °C 6,1 °C 9,7 km/h (2 Bft)
03.05.2019 07:19 6,2 °C 92 % 1008,0 hPa 0,0 mm 0,7 km/h (0 Bft) SW 234 ° 0 min 0,000 mm 0,0 UV-I 37 W/m² 5,0 °C 6,2 °C 3,2 km/h (1 Bft)
03.05.2019 07:20 6,2 °C 92 % 1008,0 hPa 0,0 mm 5,7 km/h (1 Bft) W-SW 241 ° 0 min 0,000 mm 0,0 UV-I 39 W/m² 5,0 °C 5,2 °C 9,7 km/h (2 Bft)
03.05.2019 07:21 6,2 °C 92 % 1008,0 hPa 0,0 mm 5,0 km/h (1 Bft) W 273 ° 0 min 0,000 mm 0,0 UV-I 46 W/m² 5,0 °C 5,4 °C 9,7 km/h (2 Bft)
03.05.2019 07:22 6,2 °C 92 % 1008,0 hPa 0,0 mm 6,8 km/h (2 Bft) W 265 ° 0 min 0,000 mm 0,0 UV-I 49 W/m² 5,0 °C 4,9 °C 14,5 km/h (3 Bft)
03.05.2019 07:23 6,2 °C 92 % 1008,1 hPa 0,0 mm 5,0 km/h (1 Bft) W-SW 241 ° 0 min 0,000 mm 0,0 UV-I 54 W/m² 5,0 °C 5,4 °C 14,5 km/h (3 Bft)
03.05.2019 07:24 6,2 °C 92 % 1008,1 hPa 0,0 mm 6,6 km/h (2 Bft) W-NW 282 ° 0 min 0,000 mm 0,0 UV-I 62 W/m² 5,0 °C 4,9 °C 14,5 km/h (3 Bft)
03.05.2019 07:25 6,2 °C 92 % 1008,0 hPa 0,0 mm 4,8 km/h (1 Bft) W 267 ° 0 min 0,000 mm 0,0 UV-I 67 W/m² 5,0 °C 5,5 °C 9,7 km/h (2 Bft)
03.05.2019 07:26 6,2 °C 92 % 1008,1 hPa 0,0 mm 3,8 km/h (1 Bft) SW 217 ° 0 min 0,000 mm 0,0 UV-I 70 W/m² 5,0 °C 6,2 °C 8,0 km/h (2 Bft)
03.05.2019 07:27 6,2 °C 92 % 1008,1 hPa 0,0 mm 5,2 km/h (1 Bft) W 263 ° 0 min 0,000 mm 0,0 UV-I 67 W/m² 5,0 °C 5,4 °C 6,4 km/h (2 Bft)
03.05.2019 07:28 6,2 °C 92 % 1008,1 hPa 0,0 mm 6,6 km/h (2 Bft) W-SW 252 ° 0 min 0,000 mm 0,0 UV-I 63 W/m² 5,0 °C 4,9 °C 11,3 km/h (2 Bft)
03.05.2019 07:29 6,3 °C 92 % 1008,1 hPa 0,0 mm 6,6 km/h (2 Bft) W 265 ° 0 min 0,000 mm 0,0 UV-I 60 W/m² 5,1 °C 5,0 °C 12,9 km/h (3 Bft)
03.05.2019 07:30 6,3 °C 92 % 1008,1 hPa 0,2 mm 7,4 km/h (2 Bft) W-SW 257 ° 0 min 0,000 mm 0,0 UV-I 60 W/m² 5,1 °C 4,8 °C 17,7 km/h (3 Bft)
03.05.2019 07:31 6,3 °C 92 % 1008,1 hPa 0,0 mm 7,4 km/h (2 Bft) SW 232 ° 0 min 0,000 mm 0,0 UV-I 58 W/m² 5,1 °C 4,8 °C 9,7 km/h (2 Bft)
03.05.2019 07:32 6,2 °C 92 % 1008,1 hPa 0,0 mm 5,0 km/h (1 Bft) W-SW 252 ° 0 min 0,000 mm 0,0 UV-I 56 W/m² 5,0 °C 5,4 °C 8,0 km/h (2 Bft)
03.05.2019 07:33 6,2 °C 92 % 1008,1 hPa 0,0 mm 3,7 km/h (1 Bft) S-SW 209 ° 0 min 0,000 mm 0,0 UV-I 58 W/m² 5,0 °C 6,2 °C 6,4 km/h (2 Bft)
03.05.2019 07:34 6,2 °C 92 % 1008,1 hPa 0,0 mm 2,2 km/h (1 Bft) W 259 ° 0 min 0,000 mm 0,0 UV-I 60 W/m² 5,0 °C 6,2 °C 3,2 km/h (1 Bft)
03.05.2019 07:35 6,2 °C 92 % 1008,2 hPa 0,0 mm 6,3 km/h (2 Bft) W 272 ° 0 min 0,000 mm 0,0 UV-I 63 W/m² 5,0 °C 5,0 °C 9,7 km/h (2 Bft)
03.05.2019 07:36 6,3 °C 92 % 1008,2 hPa 0,0 mm 5,3 km/h (1 Bft) W-SW 240 ° 0 min 0,000 mm 0,0 UV-I 67 W/m² 5,1 °C 5,5 °C 9,7 km/h (2 Bft)
03.05.2019 07:37 6,3 °C 92 % 1008,2 hPa 0,0 mm 3,7 km/h (1 Bft) W 277 ° 0 min 0,000 mm 0,0 UV-I 69 W/m² 5,1 °C 6,3 °C 11,3 km/h (2 Bft)
03.05.2019 07:38 6,3 °C 92 % 1008,1 hPa 0,0 mm 0,8 km/h (0 Bft) W 272 ° 0 min 0,000 mm 0,0 UV-I 76 W/m² 5,1 °C 6,3 °C 4,8 km/h (1 Bft)
03.05.2019 07:39 6,3 °C 92 % 1008,1 hPa 0,0 mm 1,5 km/h (1 Bft) W 271 ° 0 min 0,000 mm 0,5 UV-I 81 W/m² 5,1 °C 6,3 °C 4,8 km/h (1 Bft)
03.05.2019 07:40 6,3 °C 92 % 1008,1 hPa 0,0 mm 4,4 km/h (1 Bft) W 264 ° 0 min 0,000 mm 0,5 UV-I 86 W/m² 5,1 °C 6,3 °C 6,4 km/h (2 Bft)
03.05.2019 07:41 6,4 °C 92 % 1008,1 hPa 0,0 mm 7,4 km/h (2 Bft) W-NW 302 ° 0 min 0,000 mm 0,5 UV-I 97 W/m² 5,2 °C 4,9 °C 11,3 km/h (2 Bft)
03.05.2019 07:42 6,4 °C 92 % 1008,1 hPa 0,0 mm 4,0 km/h (1 Bft) W 271 ° 0 min 0,000 mm 0,5 UV-I 95 W/m² 5,2 °C 6,4 °C 6,4 km/h (2 Bft)
03.05.2019 07:43 6,4 °C 92 % 1008,1 hPa 0,0 mm 2,9 km/h (1 Bft) W 273 ° 0 min 0,000 mm 0,5 UV-I 83 W/m² 5,2 °C 6,4 °C 4,8 km/h (1 Bft)
03.05.2019 07:44 6,4 °C 92 % 1008,1 hPa 0,0 mm 3,9 km/h (1 Bft) W 280 ° 0 min 0,000 mm 0,5 UV-I 95 W/m² 5,2 °C 6,4 °C 9,7 km/h (2 Bft)
03.05.2019 07:45 6,4 °C 92 % 1008,1 hPa 0,0 mm 5,0 km/h (1 Bft) W-NW 284 ° 0 min 0,000 mm 0,5 UV-I 95 W/m² 5,2 °C 5,7 °C 8,0 km/h (2 Bft)
03.05.2019 07:46 6,4 °C 92 % 1008,1 hPa 0,0 mm 2,1 km/h (1 Bft) W 274 ° 0 min 0,000 mm 0,5 UV-I 91 W/m² 5,2 °C 6,4 °C 4,8 km/h (1 Bft)
03.05.2019 07:47 6,4 °C 92 % 1008,1 hPa 0,0 mm 1,4 km/h (1 Bft) W-SW 257 ° 0 min 0,000 mm 0,5 UV-I 90 W/m² 5,2 °C 6,4 °C 3,2 km/h (1 Bft)
03.05.2019 07:48 6,4 °C 92 % 1008,1 hPa 0,0 mm 2,3 km/h (1 Bft) W-NW 284 ° 0 min 0,000 mm 0,6 UV-I 93 W/m² 5,2 °C 6,4 °C 6,4 km/h (2 Bft)
03.05.2019 07:49 6,4 °C 92 % 1008,2 hPa 0,0 mm 8,1 km/h (2 Bft) W 264 ° 0 min 0,000 mm 0,6 UV-I 97 W/m² 5,2 °C 4,8 °C 14,5 km/h (3 Bft)
03.05.2019 07:50 6,4 °C 92 % 1008,1 hPa 0,0 mm 8,6 km/h (2 Bft) W-SW 248 ° 0 min 0,000 mm 0,6 UV-I 104 W/m² 5,2 °C 4,6 °C 11,3 km/h (2 Bft)
03.05.2019 07:51 6,4 °C 92 % 1008,2 hPa 0,0 mm 7,0 km/h (2 Bft) W 273 ° 0 min 0,000 mm 0,6 UV-I 107 W/m² 5,2 °C 5,0 °C 12,9 km/h (3 Bft)
03.05.2019 07:52 6,5 °C 92 % 1008,2 hPa 0,0 mm 2,8 km/h (1 Bft) W 273 ° 0 min 0,000 mm 0,6 UV-I 111 W/m² 5,3 °C 6,5 °C 4,8 km/h (1 Bft)
03.05.2019 07:53 6,5 °C 92 % 1008,1 hPa 0,0 mm 6,6 km/h (2 Bft) W 263 ° 0 min 0,000 mm 0,6 UV-I 116 W/m² 5,3 °C 5,3 °C 14,5 km/h (3 Bft)
03.05.2019 07:54 6,5 °C 92 % 1008,1 hPa 0,0 mm 10,5 km/h (2 Bft) W 263 ° 0 min 0,000 mm 0,6 UV-I 121 W/m² 5,3 °C 4,4 °C 14,5 km/h (3 Bft)
03.05.2019 07:55 6,5 °C 92 % 1008,2 hPa 0,0 mm 6,7 km/h (2 Bft) W 267 ° 0 min 0,000 mm 0,7 UV-I 127 W/m² 5,3 °C 5,2 °C 11,3 km/h (2 Bft)
03.05.2019 07:56 6,5 °C 92 % 1008,2 hPa 0,0 mm 8,4 km/h (2 Bft) W 268 ° 0 min 0,000 mm 0,7 UV-I 135 W/m² 5,3 °C 4,8 °C 12,9 km/h (3 Bft)
03.05.2019 07:57 6,6 °C 92 % 1008,2 hPa 0,0 mm 3,7 km/h (1 Bft) W-SW 246 ° 0 min 0,000 mm 0,7 UV-I 139 W/m² 5,4 °C 6,6 °C 8,0 km/h (2 Bft)
03.05.2019 07:58 6,6 °C 92 % 1008,2 hPa 0,0 mm 9,4 km/h (2 Bft) W 261 ° 0 min 0,000 mm 0,7 UV-I 142 W/m² 5,4 °C 4,7 °C 16,1 km/h (3 Bft)
03.05.2019 07:59 6,6 °C 92 % 1008,2 hPa 0,0 mm 8,8 km/h (2 Bft) W-SW 240 ° 0 min 0,000 mm 0,7 UV-I 146 W/m² 5,4 °C 4,8 °C 14,5 km/h (3 Bft)
03.05.2019 08:00 6,7 °C 92 % 1008,2 hPa 0,0 mm 6,7 km/h (2 Bft) W-NW 282 ° 0 min 0,025 mm 0,8 UV-I 146 W/m² 5,5 °C 5,5 °C 12,9 km/h (3 Bft)
03.05.2019 08:01 6,7 °C 91 % 1008,2 hPa 0,0 mm 8,0 km/h (2 Bft) W-SW 244 ° 0 min 0,000 mm 0,8 UV-I 148 W/m² 5,3 °C 5,1 °C 11,3 km/h (2 Bft)
03.05.2019 08:02 6,7 °C 91 % 1008,2 hPa 0,0 mm 4,8 km/h (1 Bft) W 270 ° 0 min 0,000 mm 0,8 UV-I 144 W/m² 5,3 °C 6,1 °C 6,4 km/h (2 Bft)
03.05.2019 08:03 6,7 °C 91 % 1008,2 hPa 0,0 mm 6,1 km/h (2 Bft) W-SW 247 ° 0 min 0,000 mm 0,8 UV-I 141 W/m² 5,3 °C 5,6 °C 11,3 km/h (2 Bft)
03.05.2019 08:04 6,7 °C 91 % 1008,2 hPa 0,0 mm 10,2 km/h (2 Bft) W-SW 251 ° 0 min 0,000 mm 0,7 UV-I 139 W/m² 5,3 °C 4,6 °C 14,5 km/h (3 Bft)
03.05.2019 08:05 6,7 °C 91 % 1008,2 hPa 0,0 mm 6,7 km/h (2 Bft) W-SW 241 ° 0 min 0,000 mm 0,7 UV-I 135 W/m² 5,3 °C 5,5 °C 11,3 km/h (2 Bft)
03.05.2019 08:06 6,7 °C 91 % 1008,2 hPa 0,0 mm 3,1 km/h (1 Bft) W-NW 290 ° 0 min 0,000 mm 0,7 UV-I 130 W/m² 5,3 °C 6,7 °C 4,8 km/h (1 Bft)
03.05.2019 08:07 6,7 °C 91 % 1008,1 hPa 0,0 mm 4,6 km/h (1 Bft) W 265 ° 0 min 0,000 mm 0,7 UV-I 127 W/m² 5,3 °C 6,2 °C 9,7 km/h (2 Bft)
03.05.2019 08:08 6,7 °C 91 % 1008,2 hPa 0,0 mm 3,3 km/h (1 Bft) W-NW 284 ° 0 min 0,000 mm 0,7 UV-I 114 W/m² 5,3 °C 6,7 °C 8,0 km/h (2 Bft)
03.05.2019 08:09 6,8 °C 91 % 1008,2 hPa 0,0 mm 11,2 km/h (2 Bft) W-SW 247 ° 0 min 0,000 mm 0,6 UV-I 109 W/m² 5,4 °C 4,6 °C 17,7 km/h (3 Bft)
03.05.2019 08:10 6,7 °C 91 % 1008,2 hPa 0,0 mm 8,0 km/h (2 Bft) W-SW 237 ° 0 min 0,000 mm 0,6 UV-I 105 W/m² 5,3 °C 5,1 °C 12,9 km/h (3 Bft)
03.05.2019 08:11 6,7 °C 91 % 1008,2 hPa 0,0 mm 5,6 km/h (1 Bft) W 271 ° 0 min 0,000 mm 0,6 UV-I 104 W/m² 5,3 °C 5,8 °C 14,5 km/h (3 Bft)
03.05.2019 08:12 6,7 °C 91 % 1008,2 hPa 0,0 mm 7,6 km/h (2 Bft) W 271 ° 0 min 0,000 mm 0,6 UV-I 104 W/m² 5,3 °C 5,2 °C 12,9 km/h (3 Bft)
03.05.2019 08:13 6,7 °C 91 % 1008,2 hPa 0,0 mm 6,8 km/h (2 Bft) SW 235 ° 0 min 0,000 mm 0,6 UV-I 98 W/m² 5,3 °C 5,4 °C 11,3 km/h (2 Bft)
03.05.2019 08:14 6,7 °C 91 % 1008,2 hPa 0,0 mm 7,4 km/h (2 Bft) W 262 ° 0 min 0,000 mm 0,6 UV-I 93 W/m² 5,3 °C 5,3 °C 12,9 km/h (3 Bft)
03.05.2019 08:15 6,7 °C 91 % 1008,2 hPa 0,0 mm 6,5 km/h (2 Bft) S-SW 209 ° 0 min 0,000 mm 0,5 UV-I 90 W/m² 5,3 °C 5,5 °C 11,3 km/h (2 Bft)
03.05.2019 08:16 6,7 °C 91 % 1008,2 hPa 0,0 mm 8,4 km/h (2 Bft) W 277 ° 0 min 0,000 mm 0,5 UV-I 86 W/m² 5,3 °C 5,0 °C 12,9 km/h (3 Bft)
03.05.2019 08:17 6,7 °C 91 % 1008,3 hPa 0,0 mm 4,9 km/h (1 Bft) SW 219 ° 0 min 0,000 mm 0,5 UV-I 83 W/m² 5,3 °C 6,0 °C 6,4 km/h (2 Bft)
03.05.2019 08:18 6,7 °C 91 % 1008,3 hPa 0,0 mm 3,0 km/h (1 Bft) W-SW 252 ° 0 min 0,000 mm 0,5 UV-I 81 W/m² 5,3 °C 6,7 °C 4,8 km/h (1 Bft)
03.05.2019 08:19 6,6 °C 91 % 1008,3 hPa 0,0 mm 2,9 km/h (1 Bft) W-SW 246 ° 0 min 0,000 mm 0,5 UV-I 79 W/m² 5,2 °C 6,6 °C 4,8 km/h (1 Bft)
03.05.2019 08:20 6,6 °C 91 % 1008,2 hPa 0,0 mm 5,7 km/h (1 Bft) W-SW 256 ° 0 min 0,000 mm 0,5 UV-I 77 W/m² 5,2 °C 5,7 °C 11,3 km/h (2 Bft)
03.05.2019 08:21 6,6 °C 91 % 1008,2 hPa 0,0 mm 7,4 km/h (2 Bft) W-SW 246 ° 0 min 0,000 mm 0,5 UV-I 76 W/m² 5,2 °C 5,2 °C 9,7 km/h (2 Bft)
03.05.2019 08:22 6,6 °C 91 % 1008,3 hPa 0,0 mm 6,9 km/h (2 Bft) W 264 ° 0 min 0,000 mm 0,5 UV-I 76 W/m² 5,2 °C 5,3 °C 12,9 km/h (3 Bft)
03.05.2019 08:23 6,6 °C 91 % 1008,2 hPa 0,0 mm 8,6 km/h (2 Bft) W-SW 258 ° 0 min 0,000 mm 0,5 UV-I 72 W/m² 5,2 °C 4,9 °C 14,5 km/h (3 Bft)
03.05.2019 08:24 6,6 °C 91 % 1008,2 hPa 0,0 mm 5,4 km/h (1 Bft) W-NW 286 ° 0 min 0,000 mm 0,0 UV-I 69 W/m² 5,2 °C 5,8 °C 9,7 km/h (2 Bft)
03.05.2019 08:25 6,6 °C 91 % 1008,3 hPa 0,0 mm 3,6 km/h (1 Bft) W-NW 295 ° 0 min 0,000 mm 0,0 UV-I 54 W/m² 5,2 °C 6,6 °C 6,4 km/h (2 Bft)
03.05.2019 08:26 6,6 °C 91 % 1008,3 hPa 0,0 mm 1,3 km/h (1 Bft) W-NW 295 ° 0 min 0,000 mm 0,0 UV-I 51 W/m² 5,2 °C 6,6 °C 3,2 km/h (1 Bft)
03.05.2019 08:27 6,6 °C 91 % 1008,3 hPa 0,0 mm 0,0 km/h (0 Bft) W-NW 295 ° 0 min 0,000 mm 0,0 UV-I 46 W/m² 5,2 °C 6,6 °C 0,0 km/h (0 Bft)
03.05.2019 08:28 6,6 °C 91 % 1008,2 hPa 0,0 mm 2,3 km/h (1 Bft) W-NW 295 ° 0 min 0,000 mm 0,0 UV-I 44 W/m² 5,2 °C 6,6 °C 3,2 km/h (1 Bft)
03.05.2019 08:29 6,6 °C 91 % 1008,2 hPa 0,0 mm 5,5 km/h (1 Bft) W-SW 252 ° 0 min 0,000 mm 0,0 UV-I 42 W/m² 5,2 °C 5,7 °C 8,0 km/h (2 Bft)
03.05.2019 08:30 6,6 °C 91 % 1008,3 hPa 0,0 mm 5,0 km/h (1 Bft) N-NW 327 ° 0 min 0,000 mm 0,0 UV-I 42 W/m² 5,2 °C 5,9 °C 8,0 km/h (2 Bft)
03.05.2019 08:31 6,5 °C 91 % 1008,3 hPa 0,0 mm 5,3 km/h (1 Bft) W 269 ° 0 min 0,000 mm 0,0 UV-I 44 W/m² 5,1 °C 5,7 °C 12,9 km/h (3 Bft)
03.05.2019 08:32 6,5 °C 91 % 1008,2 hPa 0,0 mm 6,9 km/h (2 Bft) W-SW 248 ° 0 min 0,000 mm 0,0 UV-I 46 W/m² 5,1 °C 5,2 °C 9,7 km/h (2 Bft)
03.05.2019 08:33 6,6 °C 91 % 1008,3 hPa 0,0 mm 6,2 km/h (2 Bft) W-NW 284 ° 0 min 0,000 mm 0,0 UV-I 46 W/m² 5,2 °C 5,5 °C 12,9 km/h (3 Bft)
03.05.2019 08:34 6,6 °C 91 % 1008,2 hPa 0,0 mm 11,7 km/h (2 Bft) W 273 ° 0 min 0,000 mm 0,0 UV-I 47 W/m² 5,2 °C 4,2 °C 16,1 km/h (3 Bft)
03.05.2019 08:35 6,5 °C 91 % 1008,3 hPa 0,0 mm 11,3 km/h (2 Bft) W 269 ° 0 min 0,000 mm 0,0 UV-I 51 W/m² 5,1 °C 4,2 °C 16,1 km/h (3 Bft)
03.05.2019 08:36 6,5 °C 91 % 1008,3 hPa 0,0 mm 11,3 km/h (2 Bft) W 276 ° 0 min 0,000 mm 0,0 UV-I 53 W/m² 5,1 °C 4,2 °C 14,5 km/h (3 Bft)
03.05.2019 08:37 6,4 °C 91 % 1008,3 hPa 0,0 mm 6,4 km/h (2 Bft) W 272 ° 0 min 0,000 mm 0,0 UV-I 58 W/m² 5,0 °C 5,2 °C 11,3 km/h (2 Bft)
03.05.2019 08:38 6,4 °C 91 % 1008,3 hPa 0,0 mm 6,8 km/h (2 Bft) W-NW 286 ° 0 min 0,000 mm 0,0 UV-I 60 W/m² 5,0 °C 5,1 °C 11,3 km/h (2 Bft)
03.05.2019 08:39 6,4 °C 91 % 1008,3 hPa 0,0 mm 4,9 km/h (1 Bft) SW 215 ° 0 min 0,000 mm 0,0 UV-I 62 W/m² 5,0 °C 5,7 °C 9,7 km/h (2 Bft)
03.05.2019 08:40 6,4 °C 91 % 1008,3 hPa 0,0 mm 6,0 km/h (2 Bft) W 267 ° 0 min 0,000 mm 0,0 UV-I 62 W/m² 5,0 °C 5,3 °C 9,7 km/h (2 Bft)
03.05.2019 08:41 6,4 °C 91 % 1008,3 hPa 0,0 mm 8,7 km/h (2 Bft) SW 232 ° 0 min 0,000 mm 0,0 UV-I 60 W/m² 5,0 °C 4,6 °C 12,9 km/h (3 Bft)
03.05.2019 08:42 6,4 °C 91 % 1008,3 hPa 0,0 mm 4,5 km/h (1 Bft) W-SW 255 ° 0 min 0,000 mm 0,0 UV-I 56 W/m² 5,0 °C 6,4 °C 6,4 km/h (2 Bft)
03.05.2019 08:43 6,4 °C 91 % 1008,3 hPa 0,0 mm 7,6 km/h (2 Bft) W 275 ° 0 min 0,000 mm 0,0 UV-I 54 W/m² 5,0 °C 4,9 °C 14,5 km/h (3 Bft)
03.05.2019 08:44 6,4 °C 91 % 1008,2 hPa 0,0 mm 4,0 km/h (1 Bft) W-SW 242 ° 0 min 0,000 mm 0,0 UV-I 51 W/m² 5,0 °C 6,4 °C 6,4 km/h (2 Bft)
03.05.2019 08:45 6,4 °C 91 % 1008,3 hPa 0,0 mm 3,6 km/h (1 Bft) W-SW 238 ° 0 min 0,000 mm 0,0 UV-I 49 W/m² 5,0 °C 6,4 °C 4,8 km/h (1 Bft)
03.05.2019 08:46 6,4 °C 91 % 1008,3 hPa 0,0 mm 3,6 km/h (1 Bft) W-SW 257 ° 0 min 0,000 mm 0,0 UV-I 49 W/m² 5,0 °C 6,4 °C 6,4 km/h (2 Bft)
03.05.2019 08:47 6,4 °C 91 % 1008,3 hPa 0,0 mm 3,2 km/h (1 Bft) W-NW 288 ° 0 min 0,000 mm 0,0 UV-I 49 W/m² 5,0 °C 6,4 °C 9,7 km/h (2 Bft)
03.05.2019 08:48 6,4 °C 91 % 1008,3 hPa 0,0 mm 6,6 km/h (2 Bft) W-NW 288 ° 0 min 0,000 mm 0,0 UV-I 49 W/m² 5,0 °C 5,2 °C 11,3 km/h (2 Bft)
03.05.2019 08:49 6,3 °C 91 % 1008,3 hPa 0,0 mm 5,0 km/h (1 Bft) W-SW 246 ° 0 min 0,000 mm 0,0 UV-I 51 W/m² 4,9 °C 5,6 °C 11,3 km/h (2 Bft)
03.05.2019 08:50 6,3 °C 91 % 1008,3 hPa 0,0 mm 6,6 km/h (2 Bft) W-SW 238 ° 0 min 0,000 mm 0,0 UV-I 53 W/m² 4,9 °C 5,0 °C 11,3 km/h (2 Bft)
03.05.2019 08:51 6,3 °C 91 % 1008,3 hPa 0,0 mm 6,5 km/h (2 Bft) W 271 ° 0 min 0,000 mm 0,0 UV-I 54 W/m² 4,9 °C 5,1 °C 11,3 km/h (2 Bft)
03.05.2019 08:52 6,3 °C 91 % 1008,3 hPa 0,0 mm 10,7 km/h (2 Bft) W 272 ° 0 min 0,000 mm 0,0 UV-I 56 W/m² 4,9 °C 4,1 °C 12,9 km/h (3 Bft)
03.05.2019 08:53 6,3 °C 91 % 1008,3 hPa 0,0 mm 7,7 km/h (2 Bft) W 266 ° 0 min 0,000 mm 0,0 UV-I 58 W/m² 4,9 °C 4,7 °C 12,9 km/h (3 Bft)
03.05.2019 08:54 6,4 °C 91 % 1008,3 hPa 0,0 mm 6,4 km/h (2 Bft) NW 315 ° 0 min 0,000 mm 0,0 UV-I 62 W/m² 5,0 °C 5,2 °C 9,7 km/h (2 Bft)
03.05.2019 08:55 6,3 °C 91 % 1008,4 hPa 0,0 mm 5,2 km/h (1 Bft) W-SW 255 ° 0 min 0,000 mm 0,0 UV-I 63 W/m² 4,9 °C 5,5 °C 6,4 km/h (2 Bft)
03.05.2019 08:56 6,4 °C 91 % 1008,3 hPa 0,0 mm 0,9 km/h (0 Bft) W-SW 254 ° 0 min 0,000 mm 0,5 UV-I 65 W/m² 5,0 °C 6,4 °C 3,2 km/h (1 Bft)
03.05.2019 08:57 6,4 °C 91 % 1008,4 hPa 0,0 mm 2,1 km/h (1 Bft) SW 233 ° 0 min 0,000 mm 0,5 UV-I 67 W/m² 5,0 °C 6,4 °C 4,8 km/h (1 Bft)
03.05.2019 08:58 6,4 °C 91 % 1008,4 hPa 0,0 mm 4,5 km/h (1 Bft) W-NW 295 ° 0 min 0,000 mm 0,5 UV-I 70 W/m² 5,0 °C 6,4 °C 6,4 km/h (2 Bft)
03.05.2019 08:59 6,3 °C 91 % 1008,4 hPa 0,0 mm 6,4 km/h (2 Bft) W 272 ° 0 min 0,000 mm 0,5 UV-I 72 W/m² 4,9 °C 5,1 °C 11,3 km/h (2 Bft)
03.05.2019 09:00 6,3 °C 91 % 1008,4 hPa 0,0 mm 6,8 km/h (2 Bft) W 259 ° 0 min 0,026 mm 0,5 UV-I 76 W/m² 4,9 °C 5,0 °C 14,5 km/h (3 Bft)
03.05.2019 09:01 6,3 °C 91 % 1008,4 hPa 0,0 mm 7,7 km/h (2 Bft) W-SW 252 ° 0 min 0,000 mm 0,5 UV-I 76 W/m² 4,9 °C 4,7 °C 11,3 km/h (2 Bft)
03.05.2019 09:02 6,3 °C 91 % 1008,3 hPa 0,0 mm 7,1 km/h (2 Bft) W 277 ° 0 min 0,000 mm 0,5 UV-I 77 W/m² 4,9 °C 4,9 °C 11,3 km/h (2 Bft)
03.05.2019 09:03 6,3 °C 91 % 1008,3 hPa 0,0 mm 13,9 km/h (3 Bft) W 267 ° 0 min 0,000 mm 0,5 UV-I 77 W/m² 4,9 °C 3,5 °C 19,3 km/h (3 Bft)
03.05.2019 09:04 6,3 °C 91 % 1008,3 hPa 0,0 mm 9,1 km/h (2 Bft) W-NW 288 ° 0 min 0,000 mm 0,5 UV-I 81 W/m² 4,9 °C 4,4 °C 19,3 km/h (3 Bft)
03.05.2019 09:05 6,3 °C 91 % 1008,3 hPa 0,0 mm 9,1 km/h (2 Bft) S-SW 197 ° 0 min 0,000 mm 0,5 UV-I 84 W/m² 4,9 °C 4,4 °C 14,5 km/h (3 Bft)
03.05.2019 09:06 6,3 °C 91 % 1008,3 hPa 0,0 mm 3,4 km/h (1 Bft) S-SW 213 ° 0 min 0,000 mm 0,6 UV-I 88 W/m² 4,9 °C 6,3 °C 6,4 km/h (2 Bft)
03.05.2019 09:07 6,3 °C 91 % 1008,3 hPa 0,0 mm 7,3 km/h (2 Bft) SW 234 ° 0 min 0,000 mm 0,6 UV-I 90 W/m² 4,9 °C 4,8 °C 12,9 km/h (3 Bft)
03.05.2019 09:08 6,3 °C 91 % 1008,3 hPa 0,0 mm 5,5 km/h (1 Bft) SW 225 ° 0 min 0,000 mm 0,6 UV-I 91 W/m² 4,9 °C 5,4 °C 9,7 km/h (2 Bft)
03.05.2019 09:09 6,3 °C 91 % 1008,4 hPa 0,0 mm 3,1 km/h (1 Bft) W-SW 242 ° 0 min 0,000 mm 0,6 UV-I 93 W/m² 4,9 °C 6,3 °C 4,8 km/h (1 Bft)
03.05.2019 09:10 6,3 °C 91 % 1008,3 hPa 0,0 mm 2,6 km/h (1 Bft) SW 222 ° 0 min 0,000 mm 0,6 UV-I 93 W/m² 4,9 °C 6,3 °C 4,8 km/h (1 Bft)
03.05.2019 09:11 6,3 °C 91 % 1008,4 hPa 0,0 mm 3,8 km/h (1 Bft) W 262 ° 0 min 0,000 mm 0,6 UV-I 91 W/m² 4,9 °C 6,3 °C 9,7 km/h (2 Bft)
03.05.2019 09:12 6,3 °C 91 % 1008,4 hPa 0,0 mm 2,8 km/h (1 Bft) W-NW 283 ° 0 min 0,000 mm 0,6 UV-I 90 W/m² 4,9 °C 6,3 °C 4,8 km/h (1 Bft)
03.05.2019 09:13 6,4 °C 91 % 1008,4 hPa 0,0 mm 2,5 km/h (1 Bft) W-NW 295 ° 0 min 0,000 mm 0,6 UV-I 91 W/m² 5,0 °C 6,4 °C 4,8 km/h (1 Bft)
03.05.2019 09:14 6,4 °C 91 % 1008,4 hPa 0,0 mm 1,5 km/h (1 Bft) W 272 ° 0 min 0,000 mm 0,6 UV-I 93 W/m² 5,0 °C 6,4 °C 4,8 km/h (1 Bft)
03.05.2019 09:15 6,4 °C 91 % 1008,4 hPa 0,0 mm 2,9 km/h (1 Bft) W-NW 302 ° 0 min 0,000 mm 0,7 UV-I 97 W/m² 5,0 °C 6,4 °C 4,8 km/h (1 Bft)
03.05.2019 09:16 6,4 °C 91 % 1008,4 hPa 0,0 mm 5,6 km/h (1 Bft) NW 316 ° 0 min 0,000 mm 0,7 UV-I 100 W/m² 5,0 °C 5,5 °C 12,9 km/h (3 Bft)
03.05.2019 09:17 6,5 °C 91 % 1008,4 hPa 0,0 mm 8,4 km/h (2 Bft) W-SW 257 ° 0 min 0,000 mm 0,7 UV-I 107 W/m² 5,1 °C 4,8 °C 11,3 km/h (2 Bft)
03.05.2019 09:18 6,4 °C 90 % 1008,5 hPa 0,0 mm 3,6 km/h (1 Bft) SW 214 ° 0 min 0,000 mm 0,7 UV-I 109 W/m² 4,9 °C 6,4 °C 11,3 km/h (2 Bft)
03.05.2019 09:19 6,4 °C 90 % 1008,4 hPa 0,0 mm 3,8 km/h (1 Bft) W 263 ° 0 min 0,000 mm 0,7 UV-I 107 W/m² 4,9 °C 6,4 °C 14,5 km/h (3 Bft)
03.05.2019 09:20 6,4 °C 90 % 1008,5 hPa 0,0 mm 11,4 km/h (2 Bft) W-SW 254 ° 0 min 0,000 mm 0,7 UV-I 104 W/m² 4,9 °C 4,1 °C 14,5 km/h (3 Bft)
03.05.2019 09:21 6,4 °C 90 % 1008,5 hPa 0,0 mm 9,6 km/h (2 Bft) W 268 ° 0 min 0,000 mm 0,7 UV-I 100 W/m² 4,9 °C 4,4 °C 16,1 km/h (3 Bft)
03.05.2019 09:22 6,4 °C 90 % 1008,5 hPa 0,0 mm 12,8 km/h (3 Bft) W 259 ° 0 min 0,000 mm 0,7 UV-I 97 W/m² 4,9 °C 3,8 °C 16,1 km/h (3 Bft)
03.05.2019 09:23 6,4 °C 90 % 1008,5 hPa 0,0 mm 9,9 km/h (2 Bft) W 272 ° 0 min 0,000 mm 0,7 UV-I 97 W/m² 4,9 °C 4,4 °C 16,1 km/h (3 Bft)
03.05.2019 09:24 6,5 °C 90 % 1008,5 hPa 0,0 mm 6,9 km/h (2 Bft) W-SW 256 ° 0 min 0,000 mm 0,7 UV-I 95 W/m² 5,0 °C 5,2 °C 12,9 km/h (3 Bft)
03.05.2019 09:25 6,4 °C 90 % 1008,5 hPa 0,0 mm 8,5 km/h (2 Bft) W 263 ° 0 min 0,000 mm 0,7 UV-I 91 W/m² 4,9 °C 4,7 °C 11,3 km/h (2 Bft)
03.05.2019 09:26 6,5 °C 90 % 1008,6 hPa 0,0 mm 10,7 km/h (2 Bft) W 276 ° 0 min 0,000 mm 0,6 UV-I 86 W/m² 5,0 °C 4,3 °C 16,1 km/h (3 Bft)
03.05.2019 09:27 6,4 °C 90 % 1008,5 hPa 0,0 mm 7,2 km/h (2 Bft) W-SW 258 ° 0 min 0,000 mm 0,6 UV-I 83 W/m² 4,9 °C 5,0 °C 11,3 km/h (2 Bft)
03.05.2019 09:28 6,5 °C 90 % 1008,5 hPa 0,0 mm 8,2 km/h (2 Bft) W 259 ° 0 min 0,000 mm 0,6 UV-I 77 W/m² 5,0 °C 4,8 °C 11,3 km/h (2 Bft)
03.05.2019 09:29 6,5 °C 90 % 1008,5 hPa 0,0 mm 7,2 km/h (2 Bft) W 264 ° 0 min 0,000 mm 0,6 UV-I 70 W/m² 5,0 °C 5,1 °C 16,1 km/h (3 Bft)
03.05.2019 09:30 6,5 °C 90 % 1008,5 hPa 0,0 mm 7,2 km/h (2 Bft) SW 236 ° 0 min 0,000 mm 0,6 UV-I 70 W/m² 5,0 °C 5,1 °C 16,1 km/h (3 Bft)
03.05.2019 09:31 6,5 °C 90 % 1008,5 hPa 0,0 mm 5,8 km/h (2 Bft) W 264 ° 0 min 0,000 mm 0,6 UV-I 72 W/m² 5,0 °C 5,5 °C 8,0 km/h (2 Bft)
03.05.2019 09:32 6,4 °C 90 % 1008,5 hPa 0,0 mm 5,5 km/h (1 Bft) W 263 ° 0 min 0,000 mm 0,6 UV-I 74 W/m² 4,9 °C 5,5 °C 6,4 km/h (2 Bft)
03.05.2019 09:33 6,5 °C 90 % 1008,5 hPa 0,0 mm 4,8 km/h (1 Bft) W 266 ° 0 min 0,000 mm 0,6 UV-I 76 W/m² 5,0 °C 5,9 °C 9,7 km/h (2 Bft)
03.05.2019 09:34 6,5 °C 90 % 1008,5 hPa 0,0 mm 3,4 km/h (1 Bft) W-SW 255 ° 0 min 0,000 mm 0,6 UV-I 79 W/m² 5,0 °C 6,5 °C 6,4 km/h (2 Bft)
03.05.2019 09:35 6,5 °C 90 % 1008,5 hPa 0,0 mm 2,7 km/h (1 Bft) W-SW 248 ° 0 min 0,000 mm 0,6 UV-I 84 W/m² 5,0 °C 6,5 °C 4,8 km/h (1 Bft)
03.05.2019 09:36 6,5 °C 90 % 1008,5 hPa 0,0 mm 0,8 km/h (0 Bft) W 265 ° 0 min 0,000 mm 0,7 UV-I 88 W/m² 5,0 °C 6,5 °C 4,8 km/h (1 Bft)
03.05.2019 09:37 6,5 °C 90 % 1008,5 hPa 0,0 mm 0,3 km/h (0 Bft) W 265 ° 0 min 0,000 mm 0,7 UV-I 90 W/m² 5,0 °C 6,5 °C 3,2 km/h (1 Bft)
03.05.2019 09:38 6,5 °C 90 % 1008,5 hPa 0,0 mm 2,1 km/h (1 Bft) W-SW 248 ° 0 min 0,000 mm 0,7 UV-I 91 W/m² 5,0 °C 6,5 °C 9,7 km/h (2 Bft)
03.05.2019 09:39 6,6 °C 90 % 1008,6 hPa 0,0 mm 6,6 km/h (2 Bft) W-SW 248 ° 0 min 0,000 mm 0,7 UV-I 93 W/m² 5,1 °C 5,4 °C 11,3 km/h (2 Bft)
03.05.2019 09:40 6,5 °C 90 % 1008,5 hPa 0,0 mm 3,0 km/h (1 Bft) W 266 ° 0 min 0,000 mm 0,8 UV-I 95 W/m² 5,0 °C 6,5 °C 11,3 km/h (2 Bft)
03.05.2019 09:41 6,6 °C 90 % 1008,5 hPa 0,0 mm 9,1 km/h (2 Bft) W 261 ° 0 min 0,000 mm 0,8 UV-I 100 W/m² 5,1 °C 4,8 °C 11,3 km/h (2 Bft)
03.05.2019 09:42 6,6 °C 90 % 1008,6 hPa 0,0 mm 2,2 km/h (1 Bft) W-SW 257 ° 0 min 0,000 mm 0,9 UV-I 104 W/m² 5,1 °C 6,6 °C 6,4 km/h (2 Bft)
03.05.2019 09:43 6,6 °C 90 % 1008,5 hPa 0,0 mm 4,7 km/h (1 Bft) W 263 ° 0 min 0,000 mm 0,9 UV-I 107 W/m² 5,1 °C 6,0 °C 9,7 km/h (2 Bft)
03.05.2019 09:44 6,6 °C 90 % 1008,6 hPa 0,0 mm 6,3 km/h (2 Bft) W 259 ° 0 min 0,000 mm 0,9 UV-I 111 W/m² 5,1 °C 5,5 °C 11,3 km/h (2 Bft)
03.05.2019 09:45 6,6 °C 90 % 1008,6 hPa 0,0 mm 8,3 km/h (2 Bft) W 276 ° 0 min 0,000 mm 0,9 UV-I 113 W/m² 5,1 °C 4,9 °C 14,5 km/h (3 Bft)
03.05.2019 09:46 6,6 °C 90 % 1008,5 hPa 0,0 mm 4,8 km/h (1 Bft) W-SW 257 ° 0 min 0,000 mm 0,9 UV-I 113 W/m² 5,1 °C 6,0 °C 6,4 km/h (2 Bft)
03.05.2019 09:47 6,6 °C 90 % 1008,6 hPa 0,0 mm 10,6 km/h (2 Bft) W 261 ° 0 min 0,000 mm 0,9 UV-I 113 W/m² 5,1 °C 4,5 °C 14,5 km/h (3 Bft)
03.05.2019 09:48 6,7 °C 90 % 1008,6 hPa 0,0 mm 9,7 km/h (2 Bft) W 274 ° 0 min 0,000 mm 0,9 UV-I 113 W/m² 5,2 °C 4,8 °C 12,9 km/h (3 Bft)
03.05.2019 09:49 6,7 °C 90 % 1008,6 hPa 0,0 mm 6,1 km/h (2 Bft) W 262 ° 0 min 0,000 mm 0,9 UV-I 113 W/m² 5,2 °C 5,6 °C 9,7 km/h (2 Bft)
03.05.2019 09:50 6,7 °C 90 % 1008,6 hPa 0,0 mm 2,1 km/h (1 Bft) W 259 ° 0 min 0,000 mm 0,9 UV-I 113 W/m² 5,2 °C 6,7 °C 4,8 km/h (1 Bft)
03.05.2019 09:51 6,7 °C 90 % 1008,5 hPa 0,0 mm 2,3 km/h (1 Bft) W-SW 253 ° 0 min 0,000 mm 0,9 UV-I 113 W/m² 5,2 °C 6,7 °C 3,2 km/h (1 Bft)
03.05.2019 09:52 6,7 °C 90 % 1008,5 hPa 0,0 mm 2,7 km/h (1 Bft) W-SW 244 ° 0 min 0,000 mm 0,9 UV-I 114 W/m² 5,2 °C 6,7 °C 14,5 km/h (3 Bft)
03.05.2019 09:53 6,7 °C 90 % 1008,6 hPa 0,0 mm 9,1 km/h (2 Bft) W 259 ° 0 min 0,000 mm 0,9 UV-I 120 W/m² 5,2 °C 4,9 °C 14,5 km/h (3 Bft)
03.05.2019 09:54 6,7 °C 90 % 1008,6 hPa 0,0 mm 9,5 km/h (2 Bft) W-NW 297 ° 0 min 0,000 mm 1,0 UV-I 125 W/m² 5,2 °C 4,8 °C 17,7 km/h (3 Bft)
03.05.2019 09:55 6,8 °C 90 % 1008,6 hPa 0,0 mm 9,5 km/h (2 Bft) W 259 ° 0 min 0,000 mm 1,0 UV-I 132 W/m² 5,3 °C 4,9 °C 14,5 km/h (3 Bft)
03.05.2019 09:56 6,8 °C 90 % 1008,6 hPa 0,0 mm 11,0 km/h (2 Bft) W 276 ° 0 min 0,000 mm 1,1 UV-I 141 W/m² 5,3 °C 4,6 °C 16,1 km/h (3 Bft)
03.05.2019 09:57 6,8 °C 90 % 1008,6 hPa 0,0 mm 6,6 km/h (2 Bft) W-SW 242 ° 0 min 0,000 mm 1,1 UV-I 141 W/m² 5,3 °C 5,6 °C 9,7 km/h (2 Bft)
03.05.2019 09:58 6,8 °C 90 % 1008,7 hPa 0,0 mm 5,0 km/h (1 Bft) W-NW 288 ° 0 min 0,000 mm 1,2 UV-I 156 W/m² 5,3 °C 6,1 °C 6,4 km/h (2 Bft)
03.05.2019 09:59 6,8 °C 89 % 1008,6 hPa 0,0 mm 5,6 km/h (1 Bft) W-SW 250 ° 0 min 0,000 mm 1,2 UV-I 165 W/m² 5,1 °C 5,9 °C 11,3 km/h (2 Bft)
03.05.2019 10:00 6,9 °C 90 % 1008,6 hPa 0,0 mm 7,7 km/h (2 Bft) W-SW 257 ° 0 min 0,000 mm 1,3 UV-I 169 W/m² 5,4 °C 5,4 °C 12,9 km/h (3 Bft)
03.05.2019 10:01 6,9 °C 90 % 1008,6 hPa 0,0 mm 8,9 km/h (2 Bft) SW 225 ° 0 min 0,051 mm 1,3 UV-I 171 W/m² 5,4 °C 5,2 °C 14,5 km/h (3 Bft)
03.05.2019 10:02 6,9 °C 89 % 1008,6 hPa 0,0 mm 7,0 km/h (2 Bft) W 270 ° 0 min 0,000 mm 1,3 UV-I 171 W/m² 5,2 °C 5,6 °C 12,9 km/h (3 Bft)
03.05.2019 10:03 6,9 °C 89 % 1008,6 hPa 0,0 mm 6,6 km/h (2 Bft) W 259 ° 0 min 0,000 mm 1,3 UV-I 172 W/m² 5,2 °C 5,7 °C 9,7 km/h (2 Bft)
03.05.2019 10:04 6,9 °C 89 % 1008,6 hPa 0,0 mm 6,2 km/h (2 Bft) W 259 ° 0 min 0,000 mm 1,3 UV-I 171 W/m² 5,2 °C 5,8 °C 11,3 km/h (2 Bft)
03.05.2019 10:05 7,0 °C 89 % 1008,6 hPa 0,0 mm 7,9 km/h (2 Bft) W 273 ° 0 min 0,000 mm 1,3 UV-I 165 W/m² 5,3 °C 5,5 °C 12,9 km/h (3 Bft)
03.05.2019 10:06 7,0 °C 90 % 1008,6 hPa 0,0 mm 7,0 km/h (2 Bft) W 277 ° 0 min 0,000 mm 1,3 UV-I 160 W/m² 5,5 °C 5,7 °C 11,3 km/h (2 Bft)
03.05.2019 10:07 7,1 °C 89 % 1008,6 hPa 0,0 mm 6,0 km/h (2 Bft) W 259 ° 0 min 0,000 mm 1,3 UV-I 155 W/m² 5,4 °C 6,1 °C 9,7 km/h (2 Bft)
03.05.2019 10:08 7,0 °C 89 % 1008,5 hPa 0,0 mm 9,4 km/h (2 Bft) W 272 ° 0 min 0,000 mm 1,2 UV-I 153 W/m² 5,3 °C 5,2 °C 12,9 km/h (3 Bft)
03.05.2019 10:09 7,0 °C 89 % 1008,5 hPa 0,0 mm 5,6 km/h (1 Bft) SW 225 ° 0 min 0,000 mm 1,2 UV-I 149 W/m² 5,3 °C 6,1 °C 11,3 km/h (2 Bft)
03.05.2019 10:10 7,1 °C 89 % 1008,6 hPa 0,0 mm 3,5 km/h (1 Bft) W 274 ° 0 min 0,000 mm 1,3 UV-I 149 W/m² 5,4 °C 7,1 °C 9,7 km/h (2 Bft)
03.05.2019 10:11 7,1 °C 89 % 1008,6 hPa 0,0 mm 4,6 km/h (1 Bft) W 259 ° 0 min 0,000 mm 1,3 UV-I 149 W/m² 5,4 °C 6,6 °C 9,7 km/h (2 Bft)
03.05.2019 10:12 7,1 °C 89 % 1008,6 hPa 0,0 mm 3,5 km/h (1 Bft) SW 225 ° 0 min 0,000 mm 1,3 UV-I 151 W/m² 5,4 °C 7,1 °C 6,4 km/h (2 Bft)
03.05.2019 10:13 7,1 °C 89 % 1008,6 hPa 0,0 mm 11,4 km/h (2 Bft) W 266 ° 0 min 0,000 mm 1,3 UV-I 151 W/m² 5,4 °C 4,9 °C 17,7 km/h (3 Bft)
03.05.2019 10:14 7,1 °C 89 % 1008,5 hPa 0,0 mm 8,4 km/h (2 Bft) W-SW 255 ° 0 min 0,000 mm 1,3 UV-I 151 W/m² 5,4 °C 5,5 °C 14,5 km/h (3 Bft)
03.05.2019 10:15 7,1 °C 88 % 1008,5 hPa 0,0 mm 10,2 km/h (2 Bft) W-SW 245 ° 0 min 0,000 mm 1,4 UV-I 151 W/m² 5,2 °C 5,1 °C 16,1 km/h (3 Bft)
03.05.2019 10:16 7,1 °C 88 % 1008,6 hPa 0,0 mm 9,4 km/h (2 Bft) W-SW 243 ° 0 min 0,000 mm 1,4 UV-I 163 W/m² 5,2 °C 5,3 °C 12,9 km/h (3 Bft)
03.05.2019 10:17 7,1 °C 88 % 1008,6 hPa 0,0 mm 9,3 km/h (2 Bft) W 260 ° 0 min 0,000 mm 1,5 UV-I 174 W/m² 5,2 °C 5,3 °C 14,5 km/h (3 Bft)
03.05.2019 10:18 7,1 °C 88 % 1008,6 hPa 0,0 mm 10,1 km/h (2 Bft) W-SW 242 ° 0 min 0,000 mm 1,6 UV-I 188 W/m² 5,2 °C 5,1 °C 14,5 km/h (3 Bft)
03.05.2019 10:19 7,2 °C 88 % 1008,6 hPa 0,0 mm 13,1 km/h (3 Bft) SW 225 ° 0 min 0,000 mm 1,7 UV-I 206 W/m² 5,3 °C 4,7 °C 16,1 km/h (3 Bft)
03.05.2019 10:20 7,2 °C 88 % 1008,6 hPa 0,0 mm 14,5 km/h (3 Bft) W 261 ° 0 min 0,000 mm 1,7 UV-I 221 W/m² 5,3 °C 4,5 °C 19,3 km/h (3 Bft)
03.05.2019 10:21 7,2 °C 88 % 1008,6 hPa 0,0 mm 7,2 km/h (2 Bft) W 273 ° 0 min 0,000 mm 1,8 UV-I 236 W/m² 5,3 °C 5,9 °C 9,7 km/h (2 Bft)
03.05.2019 10:22 7,2 °C 88 % 1008,7 hPa 0,0 mm 8,0 km/h (2 Bft) W-NW 287 ° 0 min 0,000 mm 1,8 UV-I 239 W/m² 5,3 °C 5,7 °C 14,5 km/h (3 Bft)
03.05.2019 10:23 7,2 °C 88 % 1008,7 hPa 0,0 mm 9,6 km/h (2 Bft) NW 306 ° 0 min 0,000 mm 1,7 UV-I 236 W/m² 5,3 °C 5,4 °C 14,5 km/h (3 Bft)
03.05.2019 10:24 7,3 °C 88 % 1008,7 hPa 0,0 mm 7,7 km/h (2 Bft) W-SW 238 ° 0 min 0,000 mm 1,7 UV-I 230 W/m² 5,4 °C 5,9 °C 11,3 km/h (2 Bft)
03.05.2019 10:25 7,3 °C 89 % 1008,7 hPa 0,0 mm 12,1 km/h (2 Bft) W-NW 303 ° 0 min 0,000 mm 1,6 UV-I 221 W/m² 5,6 °C 5,0 °C 17,7 km/h (3 Bft)
03.05.2019 10:26 7,3 °C 88 % 1008,7 hPa 0,0 mm 11,8 km/h (2 Bft) W 272 ° 0 min 0,000 mm 1,5 UV-I 207 W/m² 5,4 °C 5,1 °C 19,3 km/h (3 Bft)
03.05.2019 10:27 7,3 °C 88 % 1008,8 hPa 0,0 mm 9,1 km/h (2 Bft) W 276 ° 0 min 0,000 mm 1,4 UV-I 197 W/m² 5,4 °C 5,6 °C 12,9 km/h (3 Bft)
03.05.2019 10:28 7,4 °C 88 % 1008,7 hPa 0,0 mm 11,6 km/h (2 Bft) W-SW 242 ° 0 min 0,000 mm 1,4 UV-I 186 W/m² 5,5 °C 5,2 °C 16,1 km/h (3 Bft)
03.05.2019 10:29 7,4 °C 88 % 1008,8 hPa 0,0 mm 16,4 km/h (3 Bft) W 261 ° 0 min 0,000 mm 1,4 UV-I 186 W/m² 5,5 °C 4,5 °C 22,5 km/h (4 Bft)
03.05.2019 10:30 7,3 °C 88 % 1008,8 hPa 0,0 mm 17,2 km/h (3 Bft) W-SW 257 ° 0 min 0,000 mm 1,4 UV-I 186 W/m² 5,4 °C 4,3 °C 22,5 km/h (4 Bft)
03.05.2019 10:31 7,3 °C 87 % 1008,8 hPa 0,0 mm 11,4 km/h (2 Bft) W 261 ° 0 min 0,000 mm 1,4 UV-I 185 W/m² 5,3 °C 5,1 °C 16,1 km/h (3 Bft)
03.05.2019 10:32 7,3 °C 88 % 1008,8 hPa 0,0 mm 8,8 km/h (2 Bft) NW 304 ° 0 min 0,000 mm 1,3 UV-I 179 W/m² 5,4 °C 5,7 °C 16,1 km/h (3 Bft)
03.05.2019 10:33 7,3 °C 88 % 1008,8 hPa 0,0 mm 11,1 km/h (2 Bft) W-SW 257 ° 0 min 0,000 mm 1,3 UV-I 174 W/m² 5,4 °C 5,2 °C 16,1 km/h (3 Bft)
03.05.2019 10:34 7,3 °C 88 % 1008,8 hPa 0,0 mm 15,1 km/h (3 Bft) W 277 ° 0 min 0,000 mm 1,2 UV-I 155 W/m² 5,4 °C 4,6 °C 17,7 km/h (3 Bft)
03.05.2019 10:35 7,3 °C 88 % 1008,8 hPa 0,0 mm 10,7 km/h (2 Bft) W 269 ° 0 min 0,000 mm 1,2 UV-I 144 W/m² 5,4 °C 5,3 °C 14,5 km/h (3 Bft)
03.05.2019 10:36 7,2 °C 88 % 1008,8 hPa 0,0 mm 4,6 km/h (1 Bft) W-NW 294 ° 0 min 0,000 mm 1,0 UV-I 137 W/m² 5,3 °C 6,7 °C 11,3 km/h (2 Bft)
03.05.2019 10:37 7,2 °C 88 % 1008,8 hPa 0,0 mm 5,1 km/h (1 Bft) W 281 ° 0 min 0,000 mm 1,0 UV-I 132 W/m² 5,3 °C 6,5 °C 6,4 km/h (2 Bft)
03.05.2019 10:38 7,1 °C 88 % 1008,8 hPa 0,0 mm 7,2 km/h (2 Bft) NW 308 ° 0 min 0,000 mm 1,0 UV-I 128 W/m² 5,2 °C 5,8 °C 11,3 km/h (2 Bft)
03.05.2019 10:39 7,1 °C 89 % 1008,8 hPa 0,0 mm 8,1 km/h (2 Bft) W 279 ° 0 min 0,000 mm 1,0 UV-I 128 W/m² 5,4 °C 5,6 °C 14,5 km/h (3 Bft)
03.05.2019 10:40 7,1 °C 89 % 1008,8 hPa 0,0 mm 8,9 km/h (2 Bft) NW 306 ° 0 min 0,000 mm 1,0 UV-I 128 W/m² 5,4 °C 5,4 °C 14,5 km/h (3 Bft)
03.05.2019 10:41 7,1 °C 89 % 1008,8 hPa 0,0 mm 10,8 km/h (2 Bft) W 267 ° 0 min 0,000 mm 1,0 UV-I 127 W/m² 5,4 °C 5,0 °C 16,1 km/h (3 Bft)
03.05.2019 10:42 7,1 °C 89 % 1008,8 hPa 0,0 mm 5,8 km/h (2 Bft) W-SW 240 ° 0 min 0,000 mm 1,0 UV-I 125 W/m² 5,4 °C 6,2 °C 12,9 km/h (3 Bft)
03.05.2019 10:43 7,0 °C 89 % 1008,8 hPa 0,0 mm 14,2 km/h (3 Bft) W-NW 283 ° 0 min 0,000 mm 1,0 UV-I 125 W/m² 5,3 °C 4,3 °C 17,7 km/h (3 Bft)
03.05.2019 10:44 6,9 °C 89 % 1008,8 hPa 0,0 mm 11,6 km/h (2 Bft) W 275 ° 0 min 0,000 mm 0,9 UV-I 123 W/m² 5,2 °C 4,6 °C 14,5 km/h (3 Bft)
03.05.2019 10:45 6,9 °C 89 % 1008,9 hPa 0,0 mm 8,6 km/h (2 Bft) W-NW 296 ° 0 min 0,000 mm 0,9 UV-I 121 W/m² 5,2 °C 5,2 °C 12,9 km/h (3 Bft)
03.05.2019 10:46 6,9 °C 89 % 1008,8 hPa 0,0 mm 7,9 km/h (2 Bft) W 280 ° 0 min 0,000 mm 0,9 UV-I 120 W/m² 5,2 °C 5,4 °C 12,9 km/h (3 Bft)
03.05.2019 10:47 6,9 °C 89 % 1008,8 hPa 0,0 mm 11,3 km/h (2 Bft) W 269 ° 0 min 0,000 mm 0,9 UV-I 118 W/m² 5,2 °C 4,7 °C 14,5 km/h (3 Bft)
03.05.2019 10:48 6,9 °C 89 % 1008,8 hPa 0,0 mm 9,2 km/h (2 Bft) W-NW 290 ° 0 min 0,000 mm 0,9 UV-I 114 W/m² 5,2 °C 5,1 °C 14,5 km/h (3 Bft)
03.05.2019 10:49 6,8 °C 89 % 1008,8 hPa 0,0 mm 9,9 km/h (2 Bft) W-SW 255 ° 0 min 0,000 mm 0,9 UV-I 113 W/m² 5,1 °C 4,8 °C 14,5 km/h (3 Bft)
03.05.2019 10:50 6,8 °C 89 % 1008,8 hPa 0,0 mm 4,2 km/h (1 Bft) W 278 ° 0 min 0,000 mm 0,9 UV-I 111 W/m² 5,1 °C 6,8 °C 6,4 km/h (2 Bft)
03.05.2019 10:51 6,9 °C 89 % 1008,8 hPa 0,0 mm 8,5 km/h (2 Bft) W-SW 237 ° 0 min 0,000 mm 0,8 UV-I 107 W/m² 5,2 °C 5,2 °C 12,9 km/h (3 Bft)
03.05.2019 10:52 6,8 °C 89 % 1008,8 hPa 0,0 mm 7,2 km/h (2 Bft) W-SW 253 ° 0 min 0,000 mm 0,8 UV-I 107 W/m² 5,1 °C 5,5 °C 11,3 km/h (2 Bft)
03.05.2019 10:53 6,9 °C 90 % 1008,8 hPa 0,0 mm 7,4 km/h (2 Bft) SW 221 ° 0 min 0,000 mm 0,8 UV-I 109 W/m² 5,4 °C 5,5 °C 11,3 km/h (2 Bft)
03.05.2019 10:54 6,8 °C 90 % 1008,8 hPa 0,0 mm 6,5 km/h (2 Bft) W 265 ° 0 min 0,000 mm 0,8 UV-I 113 W/m² 5,3 °C 5,6 °C 9,7 km/h (2 Bft)
03.05.2019 10:55 6,8 °C 90 % 1008,8 hPa 0,0 mm 8,3 km/h (2 Bft) W-SW 257 ° 0 min 0,000 mm 0,9 UV-I 114 W/m² 5,3 °C 5,2 °C 16,1 km/h (3 Bft)
03.05.2019 10:56 6,8 °C 90 % 1008,8 hPa 0,0 mm 12,9 km/h (3 Bft) W 276 ° 0 min 0,000 mm 0,9 UV-I 120 W/m² 5,3 °C 4,3 °C 16,1 km/h (3 Bft)
03.05.2019 10:57 6,8 °C 90 % 1008,8 hPa 0,0 mm 10,5 km/h (2 Bft) W-NW 294 ° 0 min 0,000 mm 0,9 UV-I 128 W/m² 5,3 °C 4,7 °C 12,9 km/h (3 Bft)
03.05.2019 10:58 6,8 °C 90 % 1008,8 hPa 0,0 mm 10,3 km/h (2 Bft) W 259 ° 0 min 0,000 mm 1,0 UV-I 130 W/m² 5,3 °C 4,7 °C 14,5 km/h (3 Bft)
03.05.2019 10:59 6,8 °C 90 % 1008,8 hPa 0,0 mm 6,7 km/h (2 Bft) NW 306 ° 0 min 0,000 mm 1,0 UV-I 132 W/m² 5,3 °C 5,6 °C 8,0 km/h (2 Bft)
03.05.2019 11:00 6,8 °C 90 % 1008,8 hPa 0,0 mm 6,1 km/h (2 Bft) W 275 ° 0 min 0,000 mm 1,0 UV-I 134 W/m² 5,3 °C 5,8 °C 11,3 km/h (2 Bft)
03.05.2019 11:01 6,8 °C 90 % 1008,8 hPa 0,0 mm 5,0 km/h (1 Bft) W-SW 246 ° 0 min 0,076 mm 1,0 UV-I 134 W/m² 5,3 °C 6,1 °C 9,7 km/h (2 Bft)
03.05.2019 11:02 6,8 °C 90 % 1008,8 hPa 0,0 mm 12,0 km/h (2 Bft) W-SW 257 ° 0 min 0,000 mm 1,0 UV-I 137 W/m² 5,3 °C 4,4 °C 19,3 km/h (3 Bft)
03.05.2019 11:03 6,8 °C 90 % 1008,8 hPa 0,0 mm 11,6 km/h (2 Bft) W-SW 256 ° 0 min 0,000 mm 1,1 UV-I 151 W/m² 5,3 °C 4,5 °C 16,1 km/h (3 Bft)
03.05.2019 11:04 6,8 °C 90 % 1008,9 hPa 0,0 mm 6,0 km/h (2 Bft) W 270 ° 0 min 0,000 mm 1,2 UV-I 162 W/m² 5,3 °C 5,8 °C 11,3 km/h (2 Bft)
03.05.2019 11:05 6,8 °C 90 % 1008,8 hPa 0,0 mm 3,2 km/h (1 Bft) W-NW 300 ° 0 min 0,000 mm 1,3 UV-I 174 W/m² 5,3 °C 6,8 °C 9,7 km/h (2 Bft)
03.05.2019 11:06 6,8 °C 90 % 1008,8 hPa 0,0 mm 5,0 km/h (1 Bft) W-NW 296 ° 0 min 0,000 mm 1,4 UV-I 186 W/m² 5,3 °C 6,1 °C 8,0 km/h (2 Bft)
03.05.2019 11:07 6,8 °C 90 % 1008,8 hPa 0,0 mm 2,9 km/h (1 Bft) W-NW 293 ° 0 min 0,000 mm 1,5 UV-I 200 W/m² 5,3 °C 6,8 °C 9,7 km/h (2 Bft)
03.05.2019 11:08 7,0 °C 91 % 1008,8 hPa 0,0 mm 4,6 km/h (1 Bft) SW 219 ° 0 min 0,000 mm 1,5 UV-I 213 W/m² 5,6 °C 6,5 °C 12,9 km/h (3 Bft)
03.05.2019 11:09 7,1 °C 91 % 1008,8 hPa 0,0 mm 4,2 km/h (1 Bft) W-SW 249 ° 0 min 0,000 mm 1,7 UV-I 232 W/m² 5,7 °C 7,1 °C 6,4 km/h (2 Bft)
03.05.2019 11:10 7,2 °C 90 % 1008,8 hPa 0,0 mm 6,5 km/h (2 Bft) W 271 ° 0 min 0,000 mm 1,8 UV-I 237 W/m² 5,7 °C 6,1 °C 9,7 km/h (2 Bft)
03.05.2019 11:11 7,1 °C 90 % 1008,8 hPa 0,0 mm 6,6 km/h (2 Bft) W 272 ° 0 min 0,000 mm 1,8 UV-I 239 W/m² 5,6 °C 6,0 °C 9,7 km/h (2 Bft)
03.05.2019 11:12 7,1 °C 90 % 1008,8 hPa 0,0 mm 0,6 km/h (0 Bft) W-NW 289 ° 0 min 0,000 mm 1,8 UV-I 239 W/m² 5,6 °C 7,1 °C 4,8 km/h (1 Bft)
03.05.2019 11:13 7,2 °C 90 % 1008,7 hPa 0,0 mm 5,8 km/h (2 Bft) W 265 ° 0 min 0,000 mm 1,7 UV-I 237 W/m² 5,7 °C 6,3 °C 11,3 km/h (2 Bft)
03.05.2019 11:14 7,3 °C 90 % 1008,7 hPa 0,0 mm 5,4 km/h (1 Bft) SW 214 ° 0 min 0,000 mm 1,7 UV-I 234 W/m² 5,8 °C 6,6 °C 9,7 km/h (2 Bft)
03.05.2019 11:15 7,4 °C 90 % 1008,7 hPa 0,0 mm 6,1 km/h (2 Bft) W 263 ° 0 min 0,000 mm 1,7 UV-I 232 W/m² 5,9 °C 6,5 °C 11,3 km/h (2 Bft)
03.05.2019 11:16 7,4 °C 90 % 1008,8 hPa 0,0 mm 7,1 km/h (2 Bft) W 275 ° 0 min 0,000 mm 1,7 UV-I 227 W/m² 5,9 °C 6,2 °C 11,3 km/h (2 Bft)
03.05.2019 11:17 7,5 °C 89 % 1008,8 hPa 0,0 mm 4,1 km/h (1 Bft) W 281 ° 0 min 0,000 mm 1,7 UV-I 230 W/m² 5,8 °C 7,5 °C 6,4 km/h (2 Bft)
03.05.2019 11:18 7,5 °C 89 % 1008,8 hPa 0,0 mm 7,0 km/h (2 Bft) W-NW 288 ° 0 min 0,000 mm 1,8 UV-I 243 W/m² 5,8 °C 6,3 °C 11,3 km/h (2 Bft)
03.05.2019 11:19 7,5 °C 89 % 1008,7 hPa 0,0 mm 3,8 km/h (1 Bft) W 262 ° 0 min 0,000 mm 1,9 UV-I 250 W/m² 5,8 °C 7,5 °C 6,4 km/h (2 Bft)
03.05.2019 11:20 7,6 °C 89 % 1008,7 hPa 0,0 mm 1,2 km/h (1 Bft) W 262 ° 0 min 0,000 mm 1,9 UV-I 255 W/m² 5,9 °C 7,6 °C 3,2 km/h (1 Bft)
03.05.2019 11:21 7,6 °C 89 % 1008,7 hPa 0,0 mm 3,4 km/h (1 Bft) S-SW 205 ° 0 min 0,000 mm 2,0 UV-I 274 W/m² 5,9 °C 7,6 °C 8,0 km/h (2 Bft)
03.05.2019 11:22 7,6 °C 88 % 1008,7 hPa 0,0 mm 1,9 km/h (1 Bft) W-SW 256 ° 0 min 0,000 mm 2,1 UV-I 285 W/m² 5,7 °C 7,6 °C 4,8 km/h (1 Bft)
03.05.2019 11:23 7,6 °C 89 % 1008,7 hPa 0,0 mm 1,9 km/h (1 Bft) W-SW 245 ° 0 min 0,000 mm 2,2 UV-I 292 W/m² 5,9 °C 7,6 °C 6,4 km/h (2 Bft)
03.05.2019 11:24 7,7 °C 89 % 1008,7 hPa 0,0 mm 4,2 km/h (1 Bft) W 263 ° 0 min 0,000 mm 2,3 UV-I 309 W/m² 6,0 °C 7,7 °C 8,0 km/h (2 Bft)
03.05.2019 11:25 7,7 °C 89 % 1008,7 hPa 0,0 mm 7,0 km/h (2 Bft) W 278 ° 0 min 0,000 mm 2,3 UV-I 320 W/m² 6,0 °C 6,6 °C 11,3 km/h (2 Bft)
03.05.2019 11:26 7,8 °C 89 % 1008,7 hPa 0,0 mm 3,9 km/h (1 Bft) SW 215 ° 0 min 0,000 mm 2,4 UV-I 343 W/m² 6,1 °C 7,8 °C 8,0 km/h (2 Bft)
03.05.2019 11:27 7,8 °C 89 % 1008,7 hPa 0,0 mm 3,8 km/h (1 Bft) NW 307 ° 0 min 0,000 mm 2,2 UV-I 327 W/m² 6,1 °C 7,8 °C 8,0 km/h (2 Bft)
03.05.2019 11:28 7,9 °C 89 % 1008,7 hPa 0,0 mm 4,5 km/h (1 Bft) W-NW 289 ° 0 min 0,000 mm 1,9 UV-I 292 W/m² 6,2 °C 7,9 °C 6,4 km/h (2 Bft)
03.05.2019 11:29 7,9 °C 89 % 1008,7 hPa 0,0 mm 5,5 km/h (1 Bft) W 260 ° 0 min 0,000 mm 1,5 UV-I 229 W/m² 6,2 °C 7,2 °C 11,3 km/h (2 Bft)
03.05.2019 11:30 8,1 °C 89 % 1008,7 hPa 0,0 mm 5,6 km/h (1 Bft) SW 233 ° 0 min 0,000 mm 1,1 UV-I 178 W/m² 6,4 °C 7,4 °C 9,7 km/h (2 Bft)
03.05.2019 11:31 8,0 °C 88 % 1008,7 hPa 0,0 mm 3,3 km/h (1 Bft) W 268 ° 0 min 0,000 mm 1,0 UV-I 148 W/m² 6,1 °C 8,0 °C 9,7 km/h (2 Bft)
03.05.2019 11:32 8,0 °C 88 % 1008,8 hPa 0,0 mm 7,7 km/h (2 Bft) W-NW 297 ° 0 min 0,000 mm 0,9 UV-I 137 W/m² 6,1 °C 6,7 °C 12,9 km/h (3 Bft)
03.05.2019 11:33 8,0 °C 88 % 1008,7 hPa 0,0 mm 5,5 km/h (1 Bft) W 270 ° 0 min 0,000 mm 1,0 UV-I 139 W/m² 6,1 °C 7,3 °C 8,0 km/h (2 Bft)
03.05.2019 11:34 8,0 °C 88 % 1008,7 hPa 0,0 mm 5,4 km/h (1 Bft) W 266 ° 0 min 0,000 mm 1,1 UV-I 146 W/m² 6,1 °C 7,4 °C 6,4 km/h (2 Bft)
03.05.2019 11:35 8,0 °C 88 % 1008,7 hPa 0,0 mm 5,1 km/h (1 Bft) W-NW 298 ° 0 min 0,000 mm 1,3 UV-I 165 W/m² 6,1 °C 7,5 °C 6,4 km/h (2 Bft)
03.05.2019 11:36 7,9 °C 87 % 1008,8 hPa 0,0 mm 2,5 km/h (1 Bft) W-NW 288 ° 0 min 0,000 mm 1,4 UV-I 185 W/m² 5,9 °C 7,9 °C 4,8 km/h (1 Bft)
03.05.2019 11:37 7,9 °C 87 % 1008,8 hPa 0,0 mm 2,0 km/h (1 Bft) W 279 ° 0 min 0,000 mm 1,4 UV-I 192 W/m² 5,9 °C 7,9 °C 4,8 km/h (1 Bft)
03.05.2019 11:38 7,8 °C 87 % 1008,7 hPa 0,0 mm 3,4 km/h (1 Bft) W 275 ° 0 min 0,000 mm 1,4 UV-I 178 W/m² 5,8 °C 7,8 °C 9,7 km/h (2 Bft)
03.05.2019 11:39 7,8 °C 87 % 1008,8 hPa 0,0 mm 6,1 km/h (2 Bft) S-SW 198 ° 0 min 0,000 mm 1,3 UV-I 167 W/m² 5,8 °C 6,9 °C 11,3 km/h (2 Bft)
03.05.2019 11:40 7,8 °C 87 % 1008,8 hPa 0,0 mm 4,9 km/h (1 Bft) SW 223 ° 0 min 0,000 mm 1,2 UV-I 162 W/m² 5,8 °C 7,3 °C 14,5 km/h (3 Bft)
03.05.2019 11:41 7,9 °C 87 % 1008,8 hPa 0,0 mm 4,6 km/h (1 Bft) W 262 ° 0 min 0,000 mm 1,3 UV-I 169 W/m² 5,9 °C 7,5 °C 6,4 km/h (2 Bft)
03.05.2019 11:42 7,9 °C 88 % 1008,7 hPa 0,0 mm 1,9 km/h (1 Bft) W 265 ° 0 min 0,000 mm 1,5 UV-I 179 W/m² 6,0 °C 7,9 °C 6,4 km/h (2 Bft)
03.05.2019 11:43 7,9 °C 88 % 1008,7 hPa 0,0 mm 9,2 km/h (2 Bft) W 260 ° 0 min 0,000 mm 1,6 UV-I 195 W/m² 6,0 °C 6,3 °C 12,9 km/h (3 Bft)
03.05.2019 11:44 8,0 °C 88 % 1008,8 hPa 0,0 mm 10,2 km/h (2 Bft) W-SW 253 ° 0 min 0,000 mm 1,8 UV-I 220 W/m² 6,1 °C 6,2 °C 16,1 km/h (3 Bft)
03.05.2019 11:45 8,1 °C 88 % 1008,8 hPa 0,0 mm 5,2 km/h (1 Bft) SW 219 ° 0 min 0,000 mm 2,1 UV-I 239 W/m² 6,2 °C 7,5 °C 9,7 km/h (2 Bft)
03.05.2019 11:46 8,1 °C 87 % 1008,8 hPa 0,0 mm 5,3 km/h (1 Bft) W-SW 258 ° 0 min 0,000 mm 2,2 UV-I 257 W/m² 6,1 °C 7,5 °C 11,3 km/h (2 Bft)
03.05.2019 11:47 8,1 °C 87 % 1008,8 hPa 0,0 mm 5,8 km/h (2 Bft) SW 232 ° 0 min 0,000 mm 2,3 UV-I 274 W/m² 6,1 °C 7,3 °C 11,3 km/h (2 Bft)
03.05.2019 11:48 8,0 °C 87 % 1008,8 hPa 0,0 mm 1,7 km/h (1 Bft) SW 227 ° 0 min 0,000 mm 2,5 UV-I 302 W/m² 6,0 °C 8,0 °C 8,0 km/h (2 Bft)
03.05.2019 11:49 8,1 °C 87 % 1008,8 hPa 0,0 mm 9,6 km/h (2 Bft) W 276 ° 0 min 0,000 mm 2,8 UV-I 373 W/m² 6,1 °C 6,4 °C 14,5 km/h (3 Bft)
03.05.2019 11:50 8,1 °C 87 % 1008,8 hPa 0,0 mm 7,9 km/h (2 Bft) W 275 ° 0 min 0,000 mm 3,1 UV-I 462 W/m² 6,1 °C 6,8 °C 11,3 km/h (2 Bft)
03.05.2019 11:51 8,3 °C 88 % 1008,8 hPa 0,0 mm 6,6 km/h (2 Bft) W 260 ° 0 min 0,000 mm 2,8 UV-I 450 W/m² 6,4 °C 7,4 °C 12,9 km/h (3 Bft)
03.05.2019 11:52 8,4 °C 88 % 1008,8 hPa 0,0 mm 8,0 km/h (2 Bft) SW 236 ° 0 min 0,000 mm 2,5 UV-I 374 W/m² 6,5 °C 7,1 °C 14,5 km/h (3 Bft)
03.05.2019 11:53 8,4 °C 87 % 1008,8 hPa 0,0 mm 9,3 km/h (2 Bft) W 261 ° 0 min 0,000 mm 2,9 UV-I 404 W/m² 6,4 °C 6,9 °C 14,5 km/h (3 Bft)
03.05.2019 11:54 8,4 °C 87 % 1008,8 hPa 0,0 mm 9,1 km/h (2 Bft) W 269 ° 0 min 0,000 mm 2,6 UV-I 485 W/m² 6,4 °C 6,9 °C 14,5 km/h (3 Bft)
03.05.2019 11:55 8,4 °C 86 % 1008,8 hPa 0,0 mm 9,4 km/h (2 Bft) S-SW 197 ° 0 min 0,000 mm 2,6 UV-I 485 W/m² 6,2 °C 6,8 °C 11,3 km/h (2 Bft)
03.05.2019 11:56 8,4 °C 86 % 1008,8 hPa 0,0 mm 10,2 km/h (2 Bft) W 279 ° 0 min 0,000 mm 1,5 UV-I 199 W/m² 6,2 °C 6,7 °C 14,5 km/h (3 Bft)
03.05.2019 11:57 8,4 °C 86 % 1008,8 hPa 0,0 mm 12,4 km/h (3 Bft) W-SW 247 ° 0 min 0,000 mm 1,4 UV-I 190 W/m² 6,2 °C 6,3 °C 16,1 km/h (3 Bft)
03.05.2019 11:58 8,4 °C 86 % 1008,8 hPa 0,0 mm 13,5 km/h (3 Bft) W-NW 296 ° 0 min 0,000 mm 1,3 UV-I 179 W/m² 6,2 °C 6,1 °C 17,7 km/h (3 Bft)
03.05.2019 11:59 8,4 °C 86 % 1008,9 hPa 0,0 mm 12,2 km/h (2 Bft) W-NW 284 ° 0 min 0,000 mm 1,2 UV-I 171 W/m² 6,2 °C 6,3 °C 17,7 km/h (3 Bft)
03.05.2019 12:00 8,4 °C 85 % 1008,9 hPa 0,0 mm 9,9 km/h (2 Bft) W-NW 288 ° 0 min 0,101 mm 1,3 UV-I 174 W/m² 6,0 °C 6,7 °C 14,5 km/h (3 Bft)
03.05.2019 12:01 8,4 °C 85 % 1008,8 hPa 0,0 mm 11,8 km/h (2 Bft) NW 316 ° 0 min 0,000 mm 1,4 UV-I 192 W/m² 6,0 °C 6,4 °C 16,1 km/h (3 Bft)
03.05.2019 12:02 8,4 °C 85 % 1008,9 hPa 0,0 mm 14,3 km/h (3 Bft) NW 324 ° 0 min 0,000 mm 1,6 UV-I 223 W/m² 6,0 °C 6,0 °C 20,9 km/h (4 Bft)
03.05.2019 12:03 8,4 °C 85 % 1008,9 hPa 0,0 mm 14,4 km/h (3 Bft) W 276 ° 0 min 0,000 mm 1,8 UV-I 241 W/m² 6,0 °C 6,0 °C 19,3 km/h (3 Bft)
03.05.2019 12:04 8,4 °C 86 % 1009,0 hPa 0,0 mm 17,5 km/h (3 Bft) W 263 ° 0 min 0,000 mm 2,2 UV-I 281 W/m² 6,2 °C 5,6 °C 22,5 km/h (4 Bft)
03.05.2019 12:05 8,5 °C 86 % 1008,9 hPa 0,0 mm 11,0 km/h (2 Bft) W 271 ° 0 min 0,000 mm 2,5 UV-I 330 W/m² 6,3 °C 6,7 °C 12,9 km/h (3 Bft)
03.05.2019 12:06 8,6 °C 85 % 1009,0 hPa 0,0 mm 9,6 km/h (2 Bft) W 265 ° 0 min 0,000 mm 2,8 UV-I 369 W/m² 6,2 °C 7,0 °C 14,5 km/h (3 Bft)
03.05.2019 12:07 8,6 °C 84 % 1008,9 hPa 0,0 mm 5,3 km/h (1 Bft) NW 307 ° 0 min 0,000 mm 3,0 UV-I 418 W/m² 6,1 °C 8,1 °C 9,7 km/h (2 Bft)
03.05.2019 12:08 8,6 °C 85 % 1008,9 hPa 0,0 mm 8,7 km/h (2 Bft) W 259 ° 0 min 0,000 mm 3,1 UV-I 401 W/m² 6,2 °C 7,2 °C 19,3 km/h (3 Bft)
03.05.2019 12:09 8,7 °C 85 % 1008,9 hPa 0,0 mm 16,9 km/h (3 Bft) W 276 ° 0 min 0,000 mm 2,8 UV-I 367 W/m² 6,3 °C 6,1 °C 20,9 km/h (4 Bft)
03.05.2019 12:10 8,7 °C 84 % 1008,9 hPa 0,0 mm 15,0 km/h (3 Bft) W 273 ° 0 min 0,000 mm 2,5 UV-I 336 W/m² 6,2 °C 6,3 °C 20,9 km/h (4 Bft)
03.05.2019 12:11 8,7 °C 84 % 1008,9 hPa 0,0 mm 9,5 km/h (2 Bft) W-NW 286 ° 0 min 0,000 mm 2,4 UV-I 311 W/m² 6,2 °C 7,2 °C 14,5 km/h (3 Bft)
03.05.2019 12:12 8,8 °C 84 % 1008,9 hPa 0,0 mm 11,9 km/h (2 Bft) W 260 ° 0 min 0,000 mm 2,4 UV-I 308 W/m² 6,2 °C 6,9 °C 19,3 km/h (3 Bft)
03.05.2019 12:13 8,7 °C 83 % 1008,9 hPa 0,0 mm 10,7 km/h (2 Bft) W 262 ° 0 min 0,000 mm 2,7 UV-I 387 W/m² 6,0 °C 7,0 °C 17,7 km/h (3 Bft)
03.05.2019 12:14 8,7 °C 83 % 1008,9 hPa 0,0 mm 13,5 km/h (3 Bft) W 267 ° 0 min 0,000 mm 4,2 UV-I 387 W/m² 6,0 °C 6,5 °C 17,7 km/h (3 Bft)
03.05.2019 12:15 8,9 °C 85 % 1008,9 hPa 0,0 mm 12,9 km/h (3 Bft) SW 228 ° 1 min 0,000 mm 4,8 UV-I 671 W/m² 6,5 °C 6,8 °C 20,9 km/h (4 Bft)
03.05.2019 12:16 9,0 °C 85 % 1008,8 hPa 0,0 mm 12,9 km/h (3 Bft) W-SW 248 ° 1 min 0,000 mm 4,8 UV-I 668 W/m² 6,6 °C 7,0 °C 24,1 km/h (4 Bft)
03.05.2019 12:17 9,2 °C 84 % 1008,9 hPa 0,0 mm 13,1 km/h (3 Bft) W-SW 244 ° 1 min 0,000 mm 5,0 UV-I 731 W/m² 6,6 °C 7,2 °C 16,1 km/h (3 Bft)
03.05.2019 12:18 9,2 °C 82 % 1008,9 hPa 0,0 mm 13,5 km/h (3 Bft) W-NW 288 ° 1 min 0,000 mm 4,4 UV-I 731 W/m² 6,3 °C 7,1 °C 19,3 km/h (3 Bft)
03.05.2019 12:19 9,2 °C 82 % 1008,9 hPa 0,0 mm 7,6 km/h (2 Bft) W 268 ° 1 min 0,000 mm 5,0 UV-I 849 W/m² 6,3 °C 8,2 °C 11,3 km/h (2 Bft)
03.05.2019 12:20 9,3 °C 83 % 1008,9 hPa 0,0 mm 13,8 km/h (3 Bft) W-NW 296 ° 1 min 0,000 mm 5,0 UV-I 849 W/m² 6,6 °C 7,2 °C 20,9 km/h (4 Bft)
03.05.2019 12:21 9,4 °C 83 % 1008,9 hPa 0,0 mm 10,9 km/h (2 Bft) W-NW 294 ° 1 min 0,000 mm 5,0 UV-I 784 W/m² 6,7 °C 7,8 °C 19,3 km/h (3 Bft)
03.05.2019 12:22 9,6 °C 84 % 1008,9 hPa 0,0 mm 16,3 km/h (3 Bft) W-NW 291 ° 1 min 0,000 mm 5,0 UV-I 789 W/m² 7,0 °C 7,3 °C 20,9 km/h (4 Bft)
03.05.2019 12:23 9,7 °C 83 % 1008,8 hPa 0,0 mm 11,7 km/h (2 Bft) NW 322 ° 1 min 0,000 mm 3,7 UV-I 789 W/m² 7,0 °C 8,0 °C 17,7 km/h (3 Bft)
03.05.2019 12:24 9,7 °C 82 % 1008,8 hPa 0,0 mm 9,2 km/h (2 Bft) W-NW 290 ° 0 min 0,000 mm 3,2 UV-I 422 W/m² 6,8 °C 8,4 °C 14,5 km/h (3 Bft)
03.05.2019 12:25 9,7 °C 82 % 1008,8 hPa 0,0 mm 11,9 km/h (2 Bft) W 261 ° 0 min 0,000 mm 2,6 UV-I 316 W/m² 6,8 °C 8,0 °C 19,3 km/h (3 Bft)
03.05.2019 12:26 9,6 °C 82 % 1008,9 hPa 0,0 mm 6,6 km/h (2 Bft) W-NW 296 ° 0 min 0,000 mm 2,6 UV-I 332 W/m² 6,7 °C 8,9 °C 9,7 km/h (2 Bft)
03.05.2019 12:27 9,5 °C 81 % 1008,8 hPa 0,0 mm 7,4 km/h (2 Bft) W-NW 289 ° 0 min 0,000 mm 3,0 UV-I 332 W/m² 6,4 °C 8,6 °C 16,1 km/h (3 Bft)
03.05.2019 12:28 9,4 °C 83 % 1008,8 hPa 0,0 mm 15,0 km/h (3 Bft) W 279 ° 0 min 0,000 mm 3,4 UV-I 432 W/m² 6,7 °C 7,2 °C 19,3 km/h (3 Bft)
03.05.2019 12:29 9,4 °C 82 % 1008,9 hPa 0,0 mm 10,7 km/h (2 Bft) W-NW 283 ° 0 min 0,000 mm 3,8 UV-I 503 W/m² 6,5 °C 7,8 °C 16,1 km/h (3 Bft)
03.05.2019 12:30 9,4 °C 83 % 1008,8 hPa 0,0 mm 13,0 km/h (3 Bft) S-SW 195 ° 0 min 0,000 mm 3,8 UV-I 522 W/m² 6,7 °C 7,4 °C 17,7 km/h (3 Bft)
03.05.2019 12:31 9,5 °C 82 % 1008,9 hPa 0,0 mm 11,1 km/h (2 Bft) W-SW 242 ° 0 min 0,000 mm 3,5 UV-I 454 W/m² 6,6 °C 7,8 °C 16,1 km/h (3 Bft)
03.05.2019 12:32 9,4 °C 81 % 1008,8 hPa 0,0 mm 8,5 km/h (2 Bft) S-SW 207 ° 0 min 0,000 mm 2,3 UV-I 454 W/m² 6,3 °C 8,2 °C 11,3 km/h (2 Bft)
03.05.2019 12:33 9,4 °C 81 % 1008,8 hPa 0,0 mm 10,7 km/h (2 Bft) S-SW 206 ° 0 min 0,000 mm 1,8 UV-I 255 W/m² 6,3 °C 7,8 °C 16,1 km/h (3 Bft)
03.05.2019 12:34 9,3 °C 80 % 1008,8 hPa 0,0 mm 9,0 km/h (2 Bft) W-NW 288 ° 0 min 0,000 mm 1,5 UV-I 213 W/m² 6,0 °C 8,0 °C 12,9 km/h (3 Bft)
03.05.2019 12:35 9,3 °C 81 % 1008,9 hPa 0,0 mm 8,5 km/h (2 Bft) W-SW 252 ° 0 min 0,000 mm 1,4 UV-I 199 W/m² 6,2 °C 8,1 °C 12,9 km/h (3 Bft)
03.05.2019 12:36 9,2 °C 81 % 1008,8 hPa 0,0 mm 12,3 km/h (3 Bft) W-SW 254 ° 0 min 0,000 mm 1,5 UV-I 202 W/m² 6,1 °C 7,3 °C 17,7 km/h (3 Bft)
03.05.2019 12:37 9,2 °C 81 % 1008,9 hPa 0,0 mm 11,1 km/h (2 Bft) W 280 ° 0 min 0,000 mm 1,6 UV-I 234 W/m² 6,1 °C 7,5 °C 17,7 km/h (3 Bft)
03.05.2019 12:38 9,1 °C 81 % 1008,8 hPa 0,0 mm 12,8 km/h (3 Bft) W-NW 302 ° 0 min 0,000 mm 1,9 UV-I 246 W/m² 6,0 °C 7,1 °C 20,9 km/h (4 Bft)
03.05.2019 12:39 9,1 °C 82 % 1008,9 hPa 0,0 mm 10,0 km/h (2 Bft) NW 311 ° 0 min 0,000 mm 2,0 UV-I 257 W/m² 6,2 °C 7,6 °C 17,7 km/h (3 Bft)
03.05.2019 12:40 9,2 °C 81 % 1008,9 hPa 0,0 mm 16,2 km/h (3 Bft) W-NW 302 ° 0 min 0,000 mm 2,2 UV-I 287 W/m² 6,1 °C 6,8 °C 24,1 km/h (4 Bft)
03.05.2019 12:41 9,1 °C 81 % 1008,9 hPa 0,0 mm 7,9 km/h (2 Bft) W-NW 282 ° 0 min 0,000 mm 2,4 UV-I 316 W/m² 6,0 °C 8,0 °C 14,5 km/h (3 Bft)
03.05.2019 12:42 9,2 °C 81 % 1008,8 hPa 0,0 mm 5,7 km/h (1 Bft) W-NW 295 ° 0 min 0,000 mm 2,6 UV-I 336 W/m² 6,1 °C 8,6 °C 6,4 km/h (2 Bft)
03.05.2019 12:43 9,2 °C 81 % 1008,8 hPa 0,0 mm 12,7 km/h (3 Bft) W 262 ° 0 min 0,000 mm 2,6 UV-I 334 W/m² 6,1 °C 7,2 °C 20,9 km/h (4 Bft)
03.05.2019 12:44 9,2 °C 82 % 1008,8 hPa 0,0 mm 10,2 km/h (2 Bft) SW 223 ° 0 min 0,000 mm 2,3 UV-I 322 W/m² 6,3 °C 7,6 °C 19,3 km/h (3 Bft)
03.05.2019 12:45 9,2 °C 81 % 1008,8 hPa 0,0 mm 9,1 km/h (2 Bft) W 263 ° 0 min 0,000 mm 2,3 UV-I 323 W/m² 6,1 °C 7,8 °C 16,1 km/h (3 Bft)
03.05.2019 12:46 9,2 °C 81 % 1008,9 hPa 0,0 mm 12,1 km/h (2 Bft) W 277 ° 0 min 0,000 mm 2,6 UV-I 362 W/m² 6,1 °C 7,3 °C 22,5 km/h (4 Bft)
03.05.2019 12:47 9,2 °C 80 % 1008,9 hPa 0,0 mm 11,8 km/h (2 Bft) W-NW 290 ° 0 min 0,000 mm 3,0 UV-I 408 W/m² 5,9 °C 7,4 °C 17,7 km/h (3 Bft)
03.05.2019 12:48 9,2 °C 80 % 1008,8 hPa 0,0 mm 12,6 km/h (3 Bft) W-SW 244 ° 0 min 0,000 mm 3,5 UV-I 475 W/m² 5,9 °C 7,3 °C 14,5 km/h (3 Bft)
03.05.2019 12:49 9,3 °C 79 % 1008,8 hPa 0,0 mm 11,4 km/h (2 Bft) NW 304 ° 0 min 0,000 mm 4,0 UV-I 547 W/m² 5,8 °C 7,6 °C 20,9 km/h (4 Bft)
03.05.2019 12:50 9,4 °C 80 % 1008,8 hPa 0,0 mm 11,9 km/h (2 Bft) W 262 ° 1 min 0,000 mm 4,5 UV-I 698 W/m² 6,1 °C 7,6 °C 17,7 km/h (3 Bft)
03.05.2019 12:51 9,6 °C 81 % 1008,8 hPa 0,2 mm 16,9 km/h (3 Bft) W 269 ° 1 min 0,000 mm 3,8 UV-I 698 W/m² 6,5 °C 7,2 °C 22,5 km/h (4 Bft)
03.05.2019 12:52 9,6 °C 81 % 1008,8 hPa 0,0 mm 17,2 km/h (3 Bft) SW 229 ° 0 min 0,000 mm 3,3 UV-I 501 W/m² 6,5 °C 7,2 °C 22,5 km/h (4 Bft)
03.05.2019 12:53 9,7 °C 80 % 1008,8 hPa 0,0 mm 10,4 km/h (2 Bft) W-SW 249 ° 0 min 0,000 mm 3,6 UV-I 578 W/m² 6,4 °C 8,2 °C 14,5 km/h (3 Bft)
03.05.2019 12:54 9,8 °C 79 % 1008,8 hPa 0,0 mm 9,9 km/h (2 Bft) W-NW 300 ° 0 min 0,000 mm 4,0 UV-I 577 W/m² 6,3 °C 8,4 °C 14,5 km/h (3 Bft)
03.05.2019 12:55 9,8 °C 80 % 1008,8 hPa 0,0 mm 12,2 km/h (2 Bft) W-NW 302 ° 0 min 0,000 mm 3,4 UV-I 548 W/m² 6,5 °C 8,0 °C 16,1 km/h (3 Bft)
03.05.2019 12:56 9,8 °C 80 % 1008,8 hPa 0,0 mm 5,9 km/h (2 Bft) W 279 ° 0 min 0,000 mm 4,1 UV-I 575 W/m² 6,5 °C 9,3 °C 14,5 km/h (3 Bft)
03.05.2019 12:57 9,9 °C 80 % 1008,8 hPa 0,0 mm 14,6 km/h (3 Bft) W-NW 292 ° 0 min 0,000 mm 3,5 UV-I 554 W/m² 6,6 °C 7,8 °C 22,5 km/h (4 Bft)
03.05.2019 12:58 9,9 °C 80 % 1008,8 hPa 0,0 mm 12,7 km/h (3 Bft) SW 229 ° 0 min 0,000 mm 2,7 UV-I 554 W/m² 6,6 °C 8,1 °C 16,1 km/h (3 Bft)
03.05.2019 12:59 9,9 °C 78 % 1008,8 hPa 0,0 mm 16,9 km/h (3 Bft) SW 221 ° 0 min 0,000 mm 3,3 UV-I 417 W/m² 6,2 °C 7,6 °C 22,5 km/h (4 Bft)
03.05.2019 13:00 9,8 °C 76 % 1008,8 hPa 0,0 mm 16,1 km/h (3 Bft) W 263 ° 0 min 0,000 mm 4,6 UV-I 596 W/m² 5,8 °C 7,5 °C 29,0 km/h (5 Bft)
03.05.2019 13:01 9,8 °C 77 % 1008,8 hPa 0,0 mm 19,3 km/h (3 Bft) W-SW 248 ° 0 min 0,229 mm 3,8 UV-I 515 W/m² 6,0 °C 7,2 °C 29,0 km/h (5 Bft)
03.05.2019 13:02 9,8 °C 77 % 1008,8 hPa 0,0 mm 14,6 km/h (3 Bft) W 269 ° 0 min 0,000 mm 3,1 UV-I 434 W/m² 6,0 °C 7,7 °C 19,3 km/h (3 Bft)
03.05.2019 13:03 9,8 °C 79 % 1008,8 hPa 0,0 mm 12,0 km/h (2 Bft) W 281 ° 0 min 0,000 mm 5,4 UV-I 513 W/m² 6,3 °C 8,1 °C 17,7 km/h (3 Bft)
03.05.2019 13:04 9,8 °C 77 % 1008,9 hPa 0,0 mm 11,8 km/h (2 Bft) W 265 ° 0 min 0,000 mm 2,5 UV-I 513 W/m² 6,0 °C 8,1 °C 19,3 km/h (3 Bft)
03.05.2019 13:05 9,8 °C 77 % 1008,8 hPa 0,0 mm 15,7 km/h (3 Bft) W 271 ° 0 min 0,000 mm 2,3 UV-I 306 W/m² 6,0 °C 7,6 °C 20,9 km/h (4 Bft)
03.05.2019 13:06 9,8 °C 77 % 1008,9 hPa 0,0 mm 18,2 km/h (3 Bft) W-NW 293 ° 0 min 0,000 mm 2,4 UV-I 311 W/m² 6,0 °C 7,3 °C 24,1 km/h (4 Bft)
03.05.2019 13:07 9,7 °C 76 % 1008,8 hPa 0,0 mm 15,0 km/h (3 Bft) W 268 ° 0 min 0,000 mm 1,9 UV-I 311 W/m² 5,7 °C 7,5 °C 22,5 km/h (4 Bft)
03.05.2019 13:08 9,6 °C 77 % 1008,7 hPa 0,0 mm 8,7 km/h (2 Bft) W-SW 248 ° 0 min 0,000 mm 1,8 UV-I 241 W/m² 5,8 °C 8,4 °C 14,5 km/h (3 Bft)
03.05.2019 13:09 9,6 °C 78 % 1008,9 hPa 0,0 mm 17,3 km/h (3 Bft) W 262 ° 0 min 0,000 mm 2,0 UV-I 262 W/m² 6,0 °C 7,2 °C 22,5 km/h (4 Bft)
03.05.2019 13:10 9,6 °C 79 % 1008,8 hPa 0,0 mm 19,2 km/h (3 Bft) W 260 ° 0 min 0,000 mm 2,1 UV-I 276 W/m² 6,1 °C 7,0 °C 25,7 km/h (4 Bft)
03.05.2019 13:11 9,5 °C 78 % 1008,9 hPa 0,0 mm 19,0 km/h (3 Bft) N-NW 335 ° 0 min 0,000 mm 2,1 UV-I 267 W/m² 5,9 °C 6,8 °C 24,1 km/h (4 Bft)
03.05.2019 13:12 9,4 °C 78 % 1008,9 hPa 0,0 mm 8,0 km/h (2 Bft) W-NW 300 ° 0 min 0,000 mm 2,2 UV-I 294 W/m² 5,8 °C 8,3 °C 14,5 km/h (3 Bft)
03.05.2019 13:13 9,3 °C 79 % 1008,9 hPa 0,0 mm 18,4 km/h (3 Bft) W-NW 290 ° 0 min 0,000 mm 2,3 UV-I 276 W/m² 5,8 °C 6,7 °C 29,0 km/h (5 Bft)
03.05.2019 13:14 9,3 °C 79 % 1008,9 hPa 0,0 mm 13,8 km/h (3 Bft) W 273 ° 0 min 0,000 mm 2,0 UV-I 227 W/m² 5,8 °C 7,2 °C 27,4 km/h (4 Bft)
03.05.2019 13:15 9,2 °C 77 % 1008,9 hPa 0,0 mm 9,5 km/h (2 Bft) W 269 ° 0 min 0,000 mm 2,0 UV-I 214 W/m² 5,4 °C 7,8 °C 19,3 km/h (3 Bft)
03.05.2019 13:16 9,2 °C 78 % 1008,9 hPa 0,0 mm 14,9 km/h (3 Bft) W-NW 301 ° 0 min 0,000 mm 2,3 UV-I 237 W/m² 5,6 °C 6,9 °C 25,7 km/h (4 Bft)
03.05.2019 13:17 9,1 °C 78 % 1008,9 hPa 0,0 mm 15,8 km/h (3 Bft) W-NW 284 ° 0 min 0,000 mm 2,5 UV-I 265 W/m² 5,5 °C 6,7 °C 22,5 km/h (4 Bft)
03.05.2019 13:18 9,1 °C 78 % 1008,9 hPa 0,0 mm 11,6 km/h (2 Bft) W-SW 254 ° 0 min 0,000 mm 2,3 UV-I 227 W/m² 5,5 °C 7,3 °C 19,3 km/h (3 Bft)
03.05.2019 13:19 9,0 °C 78 % 1008,9 hPa 0,0 mm 12,5 km/h (3 Bft) W-NW 296 ° 0 min 0,000 mm 2,3 UV-I 250 W/m² 5,4 °C 7,0 °C 16,1 km/h (3 Bft)
03.05.2019 13:20 9,0 °C 78 % 1008,9 hPa 0,0 mm 9,0 km/h (2 Bft) W 265 ° 0 min 0,000 mm 2,6 UV-I 287 W/m² 5,4 °C 7,6 °C 12,9 km/h (3 Bft)
03.05.2019 13:21 9,0 °C 78 % 1008,9 hPa 0,0 mm 11,4 km/h (2 Bft) W 275 ° 0 min 0,000 mm 3,0 UV-I 287 W/m² 5,4 °C 7,2 °C 17,7 km/h (3 Bft)
03.05.2019 13:22 8,9 °C 79 % 1008,9 hPa 0,0 mm 10,2 km/h (2 Bft) W 263 ° 0 min 0,000 mm 3,4 UV-I 287 W/m² 5,5 °C 7,3 °C 12,9 km/h (3 Bft)
03.05.2019 13:23 9,1 °C 80 % 1008,9 hPa 0,0 mm 15,8 km/h (3 Bft) W-NW 288 ° 0 min 0,000 mm 3,4 UV-I 287 W/m² 5,8 °C 6,7 °C 20,9 km/h (4 Bft)
03.05.2019 13:24 9,1 °C 79 % 1008,9 hPa 0,0 mm 12,2 km/h (2 Bft) W-NW 290 ° 0 min 0,000 mm 3,2 UV-I 287 W/m² 5,7 °C 7,2 °C 17,7 km/h (3 Bft)
03.05.2019 13:25 9,1 °C 79 % 1008,9 hPa 0,0 mm 14,6 km/h (3 Bft) NW 323 ° 0 min 0,000 mm 2,7 UV-I 311 W/m² 5,7 °C 6,9 °C 24,1 km/h (4 Bft)
03.05.2019 13:26 9,2 °C 78 % 1008,9 hPa 0,0 mm 4,9 km/h (1 Bft) W 272 ° 0 min 0,000 mm 2,9 UV-I 318 W/m² 5,6 °C 8,9 °C 8,0 km/h (2 Bft)
03.05.2019 13:27 9,2 °C 79 % 1008,9 hPa 0,0 mm 8,6 km/h (2 Bft) W 271 ° 0 min 0,000 mm 5,3 UV-I 318 W/m² 5,8 °C 7,9 °C 14,5 km/h (3 Bft)
03.05.2019 13:28 9,3 °C 80 % 1008,9 hPa 0,0 mm 10,7 km/h (2 Bft) W 261 ° 0 min 0,000 mm 3,0 UV-I 318 W/m² 6,0 °C 7,7 °C 19,3 km/h (3 Bft)
03.05.2019 13:29 9,3 °C 78 % 1008,9 hPa 0,0 mm 15,2 km/h (3 Bft) W-NW 292 ° 0 min 0,000 mm 3,3 UV-I 318 W/m² 5,7 °C 7,0 °C 22,5 km/h (4 Bft)
03.05.2019 13:30 9,4 °C 78 % 1008,9 hPa 0,0 mm 16,3 km/h (3 Bft) W-SW 240 ° 0 min 0,000 mm 2,7 UV-I 297 W/m² 5,8 °C 7,0 °C 24,1 km/h (4 Bft)
03.05.2019 13:31 9,5 °C 78 % 1009,0 hPa 0,0 mm 13,3 km/h (3 Bft) W-NW 289 ° 0 min 0,000 mm 2,6 UV-I 313 W/m² 5,9 °C 7,5 °C 17,7 km/h (3 Bft)
03.05.2019 13:32 9,4 °C 77 % 1009,0 hPa 0,0 mm 16,0 km/h (3 Bft) W 278 ° 0 min 0,000 mm 2,6 UV-I 327 W/m² 5,6 °C 7,1 °C 22,5 km/h (4 Bft)
03.05.2019 13:33 9,4 °C 77 % 1009,0 hPa 0,0 mm 14,5 km/h (3 Bft) W-NW 293 ° 0 min 0,000 mm 2,7 UV-I 350 W/m² 5,6 °C 7,2 °C 19,3 km/h (3 Bft)
03.05.2019 13:34 9,4 °C 77 % 1009,0 hPa 0,0 mm 7,4 km/h (2 Bft) W-SW 258 ° 0 min 0,000 mm 2,3 UV-I 327 W/m² 5,6 °C 8,4 °C 14,5 km/h (3 Bft)
03.05.2019 13:35 9,4 °C 77 % 1008,9 hPa 0,0 mm 13,2 km/h (3 Bft) W-NW 300 ° 0 min 0,000 mm 1,9 UV-I 220 W/m² 5,6 °C 7,4 °C 20,9 km/h (4 Bft)
03.05.2019 13:36 9,4 °C 77 % 1009,0 hPa 0,0 mm 10,8 km/h (2 Bft) W 278 ° 0 min 0,000 mm 1,5 UV-I 199 W/m² 5,6 °C 7,8 °C 20,9 km/h (4 Bft)
03.05.2019 13:37 9,4 °C 77 % 1008,9 hPa 0,0 mm 10,3 km/h (2 Bft) NW 326 ° 0 min 0,000 mm 1,4 UV-I 188 W/m² 5,6 °C 7,9 °C 19,3 km/h (3 Bft)
03.05.2019 13:38 9,3 °C 77 % 1008,9 hPa 0,0 mm 14,8 km/h (3 Bft) NW 311 ° 0 min 0,000 mm 1,5 UV-I 186 W/m² 5,5 °C 7,1 °C 22,5 km/h (4 Bft)
03.05.2019 13:39 9,3 °C 78 % 1009,0 hPa 0,0 mm 11,9 km/h (2 Bft) NW 308 ° 0 min 0,000 mm 1,5 UV-I 188 W/m² 5,7 °C 7,5 °C 17,7 km/h (3 Bft)
03.05.2019 13:40 9,3 °C 77 % 1009,0 hPa 0,0 mm 11,9 km/h (2 Bft) NW 311 ° 0 min 0,000 mm 1,6 UV-I 197 W/m² 5,5 °C 7,5 °C 17,7 km/h (3 Bft)
03.05.2019 13:41 9,2 °C 77 % 1008,9 hPa 0,0 mm 12,3 km/h (3 Bft) NW 308 ° 0 min 0,000 mm 1,6 UV-I 188 W/m² 5,4 °C 7,3 °C 17,7 km/h (3 Bft)
03.05.2019 13:42 9,2 °C 77 % 1009,0 hPa 0,0 mm 13,2 km/h (3 Bft) N 9 ° 0 min 0,000 mm 1,4 UV-I 171 W/m² 5,4 °C 7,2 °C 20,9 km/h (4 Bft)
03.05.2019 13:43 9,2 °C 77 % 1008,9 hPa 0,0 mm 11,4 km/h (2 Bft) NW 323 ° 0 min 0,000 mm 1,3 UV-I 165 W/m² 5,4 °C 7,4 °C 17,7 km/h (3 Bft)
03.05.2019 13:44 9,1 °C 77 % 1008,9 hPa 0,0 mm 8,2 km/h (2 Bft) NW 306 ° 0 min 0,000 mm 1,4 UV-I 169 W/m² 5,3 °C 7,9 °C 11,3 km/h (2 Bft)
03.05.2019 13:45 9,1 °C 78 % 1008,9 hPa 0,0 mm 8,8 km/h (2 Bft) W 262 ° 0 min 0,000 mm 1,4 UV-I 178 W/m² 5,5 °C 7,8 °C 12,9 km/h (3 Bft)
03.05.2019 13:46 9,1 °C 78 % 1008,9 hPa 0,0 mm 4,1 km/h (1 Bft) W 278 ° 0 min 0,000 mm 1,4 UV-I 181 W/m² 5,5 °C 9,1 °C 9,7 km/h (2 Bft)
03.05.2019 13:47 9,1 °C 79 % 1008,9 hPa 0,0 mm 10,1 km/h (2 Bft) W 273 ° 0 min 0,000 mm 1,4 UV-I 176 W/m² 5,7 °C 7,5 °C 14,5 km/h (3 Bft)
03.05.2019 13:48 9,1 °C 78 % 1009,0 hPa 0,0 mm 14,8 km/h (3 Bft) W-NW 286 ° 0 min 0,000 mm 1,4 UV-I 188 W/m² 5,5 °C 6,8 °C 20,9 km/h (4 Bft)
03.05.2019 13:49 9,1 °C 77 % 1008,9 hPa 0,0 mm 7,7 km/h (2 Bft) W-NW 296 ° 0 min 0,000 mm 1,7 UV-I 211 W/m² 5,3 °C 8,0 °C 16,1 km/h (3 Bft)
03.05.2019 13:50 9,0 °C 77 % 1008,9 hPa 0,0 mm 9,3 km/h (2 Bft) W-SW 244 ° 0 min 0,000 mm 2,0 UV-I 250 W/m² 5,2 °C 7,6 °C 17,7 km/h (3 Bft)
03.05.2019 13:51 9,0 °C 77 % 1009,0 hPa 0,0 mm 15,0 km/h (3 Bft) W-SW 255 ° 0 min 0,000 mm 2,2 UV-I 285 W/m² 5,2 °C 6,7 °C 17,7 km/h (3 Bft)
03.05.2019 13:52 9,1 °C 78 % 1008,9 hPa 0,0 mm 14,5 km/h (3 Bft) W 277 ° 0 min 0,000 mm 2,4 UV-I 308 W/m² 5,5 °C 6,9 °C 20,9 km/h (4 Bft)
03.05.2019 13:53 9,1 °C 79 % 1008,9 hPa 0,0 mm 6,6 km/h (2 Bft) W-SW 254 ° 0 min 0,000 mm 2,3 UV-I 287 W/m² 5,7 °C 8,3 °C 12,9 km/h (3 Bft)
03.05.2019 13:54 9,2 °C 78 % 1008,9 hPa 0,0 mm 12,7 km/h (3 Bft) W 279 ° 0 min 0,000 mm 1,7 UV-I 244 W/m² 5,6 °C 7,2 °C 17,7 km/h (3 Bft)
03.05.2019 13:55 9,2 °C 78 % 1008,9 hPa 0,0 mm 14,5 km/h (3 Bft) W 273 ° 0 min 0,000 mm 1,4 UV-I 206 W/m² 5,6 °C 7,0 °C 22,5 km/h (4 Bft)
03.05.2019 13:56 9,2 °C 77 % 1008,9 hPa 0,0 mm 14,5 km/h (3 Bft) NW 304 ° 0 min 0,000 mm 1,3 UV-I 183 W/m² 5,4 °C 7,0 °C 19,3 km/h (3 Bft)
03.05.2019 13:57 9,2 °C 76 % 1008,9 hPa 0,0 mm 13,9 km/h (3 Bft) W 281 ° 0 min 0,000 mm 1,2 UV-I 176 W/m² 5,2 °C 7,1 °C 20,9 km/h (4 Bft)
03.05.2019 13:58 9,1 °C 77 % 1008,9 hPa 0,0 mm 9,6 km/h (2 Bft) W-SW 248 ° 0 min 0,000 mm 1,3 UV-I 181 W/m² 5,3 °C 7,6 °C 17,7 km/h (3 Bft)
03.05.2019 13:59 9,1 °C 77 % 1008,9 hPa 0,0 mm 15,6 km/h (3 Bft) W-SW 257 ° 0 min 0,000 mm 1,5 UV-I 202 W/m² 5,3 °C 6,7 °C 22,5 km/h (4 Bft)
03.05.2019 14:00 9,1 °C 77 % 1008,9 hPa 0,0 mm 12,1 km/h (2 Bft) W-NW 288 ° 0 min 0,000 mm 1,6 UV-I 202 W/m² 5,3 °C 7,2 °C 19,3 km/h (3 Bft)
03.05.2019 14:01 9,1 °C 77 % 1008,9 hPa 0,0 mm 7,0 km/h (2 Bft) W 262 ° 0 min 0,152 mm 1,5 UV-I 209 W/m² 5,3 °C 8,2 °C 12,9 km/h (3 Bft)
03.05.2019 14:02 9,1 °C 78 % 1009,0 hPa 0,0 mm 9,5 km/h (2 Bft) W 261 ° 0 min 0,000 mm 1,5 UV-I 206 W/m² 5,5 °C 7,6 °C 17,7 km/h (3 Bft)
03.05.2019 14:03 9,1 °C 78 % 1008,9 hPa 0,0 mm 3,9 km/h (1 Bft) W 270 ° 0 min 0,000 mm 1,7 UV-I 225 W/m² 5,5 °C 9,1 °C 6,4 km/h (2 Bft)
03.05.2019 14:04 9,2 °C 78 % 1008,9 hPa 0,0 mm 14,0 km/h (3 Bft) W-SW 252 ° 0 min 0,000 mm 1,9 UV-I 253 W/m² 5,6 °C 7,1 °C 19,3 km/h (3 Bft)
03.05.2019 14:05 9,2 °C 78 % 1008,9 hPa 0,0 mm 13,3 km/h (3 Bft) W-SW 246 ° 0 min 0,000 mm 2,0 UV-I 257 W/m² 5,6 °C 7,2 °C 17,7 km/h (3 Bft)
03.05.2019 14:06 9,2 °C 78 % 1008,9 hPa 0,0 mm 12,5 km/h (3 Bft) W-SW 248 ° 0 min 0,000 mm 1,8 UV-I 243 W/m² 5,6 °C 7,3 °C 16,1 km/h (3 Bft)
03.05.2019 14:07 9,2 °C 77 % 1008,9 hPa 0,0 mm 12,0 km/h (2 Bft) W 269 ° 0 min 0,000 mm 2,0 UV-I 258 W/m² 5,4 °C 7,3 °C 17,7 km/h (3 Bft)
03.05.2019 14:08 9,2 °C 78 % 1009,0 hPa 0,0 mm 9,9 km/h (2 Bft) W-NW 290 ° 0 min 0,000 mm 2,2 UV-I 283 W/m² 5,6 °C 7,7 °C 16,1 km/h (3 Bft)
03.05.2019 14:09 9,2 °C 78 % 1008,9 hPa 0,0 mm 12,4 km/h (3 Bft) W-SW 246 ° 0 min 0,000 mm 2,2 UV-I 297 W/m² 5,6 °C 7,3 °C 17,7 km/h (3 Bft)
03.05.2019 14:10 9,3 °C 78 % 1009,0 hPa 0,0 mm 8,4 km/h (2 Bft) W 272 ° 0 min 0,000 mm 2,4 UV-I 329 W/m² 5,7 °C 8,1 °C 17,7 km/h (3 Bft)
03.05.2019 14:11 9,4 °C 78 % 1008,9 hPa 0,0 mm 7,6 km/h (2 Bft) W 272 ° 0 min 0,000 mm 2,8 UV-I 360 W/m² 5,8 °C 8,4 °C 11,3 km/h (2 Bft)
03.05.2019 14:12 9,4 °C 77 % 1008,9 hPa 0,0 mm 13,2 km/h (3 Bft) W 272 ° 0 min 0,000 mm 2,8 UV-I 373 W/m² 5,6 °C 7,4 °C 19,3 km/h (3 Bft)
03.05.2019 14:13 9,4 °C 77 % 1008,9 hPa 0,0 mm 7,6 km/h (2 Bft) W 274 ° 0 min 0,000 mm 2,8 UV-I 369 W/m² 5,6 °C 8,4 °C 12,9 km/h (3 Bft)
03.05.2019 14:14 9,4 °C 76 % 1008,9 hPa 0,0 mm 3,5 km/h (1 Bft) W 263 ° 0 min 0,000 mm 2,7 UV-I 360 W/m² 5,4 °C 9,4 °C 4,8 km/h (1 Bft)
03.05.2019 14:15 9,4 °C 77 % 1008,9 hPa 0,0 mm 6,6 km/h (2 Bft) W-NW 288 ° 0 min 0,000 mm 2,5 UV-I 334 W/m² 5,6 °C 8,6 °C 9,7 km/h (2 Bft)
03.05.2019 14:16 9,6 °C 77 % 1008,9 hPa 0,0 mm 12,0 km/h (2 Bft) W-NW 284 ° 0 min 0,000 mm 2,3 UV-I 271 W/m² 5,8 °C 7,8 °C 22,5 km/h (4 Bft)
03.05.2019 14:17 9,6 °C 77 % 1009,0 hPa 0,0 mm 20,4 km/h (4 Bft) W-NW 285 ° 0 min 0,000 mm 2,0 UV-I 253 W/m² 5,8 °C 6,8 °C 27,4 km/h (4 Bft)
03.05.2019 14:18 9,6 °C 77 % 1009,0 hPa 0,0 mm 8,4 km/h (2 Bft) W-SW 256 ° 0 min 0,000 mm 1,8 UV-I 246 W/m² 5,8 °C 8,5 °C 14,5 km/h (3 Bft)
03.05.2019 14:19 9,6 °C 76 % 1008,9 hPa 0,0 mm 12,9 km/h (3 Bft) W 279 ° 0 min 0,000 mm 1,8 UV-I 244 W/m² 5,6 °C 7,7 °C 19,3 km/h (3 Bft)
03.05.2019 14:20 9,6 °C 76 % 1008,9 hPa 0,0 mm 6,1 km/h (2 Bft) W-SW 248 ° 0 min 0,000 mm 2,0 UV-I 272 W/m² 5,6 °C 9,0 °C 11,3 km/h (2 Bft)
03.05.2019 14:21 9,5 °C 77 % 1008,9 hPa 0,0 mm 13,1 km/h (3 Bft) W-NW 288 ° 0 min 0,000 mm 2,2 UV-I 306 W/m² 5,7 °C 7,5 °C 17,7 km/h (3 Bft)
03.05.2019 14:22 9,6 °C 77 % 1008,9 hPa 0,0 mm 9,0 km/h (2 Bft) W 263 ° 0 min 0,000 mm 2,4 UV-I 343 W/m² 5,8 °C 8,3 °C 16,1 km/h (3 Bft)
03.05.2019 14:23 9,6 °C 77 % 1008,9 hPa 0,0 mm 10,4 km/h (2 Bft) W-NW 298 ° 0 min 0,000 mm 2,2 UV-I 308 W/m² 5,8 °C 8,1 °C 14,5 km/h (3 Bft)
03.05.2019 14:24 9,6 °C 78 % 1009,0 hPa 0,0 mm 4,6 km/h (1 Bft) W-NW 298 ° 0 min 0,000 mm 1,9 UV-I 264 W/m² 6,0 °C 9,4 °C 8,0 km/h (2 Bft)
03.05.2019 14:25 9,7 °C 79 % 1009,0 hPa 0,0 mm 7,5 km/h (2 Bft) NW 306 ° 0 min 0,000 mm 1,5 UV-I 218 W/m² 6,2 °C 8,8 °C 14,5 km/h (3 Bft)
03.05.2019 14:26 9,6 °C 78 % 1009,0 hPa 0,0 mm 8,9 km/h (2 Bft) N-NW 329 ° 0 min 0,000 mm 1,2 UV-I 178 W/m² 6,0 °C 8,4 °C 16,1 km/h (3 Bft)
03.05.2019 14:27 9,6 °C 78 % 1009,0 hPa 0,0 mm 10,1 km/h (2 Bft) N-NO 17 ° 0 min 0,000 mm 1,1 UV-I 155 W/m² 6,0 °C 8,1 °C 17,7 km/h (3 Bft)
03.05.2019 14:28 9,4 °C 79 % 1008,9 hPa 0,0 mm 13,9 km/h (3 Bft) N-NW 327 ° 0 min 0,000 mm 1,1 UV-I 148 W/m² 5,9 °C 7,3 °C 19,3 km/h (3 Bft)
03.05.2019 14:29 9,3 °C 78 % 1008,9 hPa 0,0 mm 8,7 km/h (2 Bft) W 275 ° 0 min 0,000 mm 1,2 UV-I 156 W/m² 5,7 °C 8,0 °C 14,5 km/h (3 Bft)
03.05.2019 14:30 9,2 °C 78 % 1008,9 hPa 0,0 mm 9,5 km/h (2 Bft) NW 318 ° 0 min 0,000 mm 1,2 UV-I 163 W/m² 5,6 °C 7,8 °C 14,5 km/h (3 Bft)
03.05.2019 14:31 9,1 °C 78 % 1009,0 hPa 0,0 mm 9,9 km/h (2 Bft) NW 313 ° 0 min 0,000 mm 1,2 UV-I 160 W/m² 5,5 °C 7,6 °C 14,5 km/h (3 Bft)
03.05.2019 14:32 9,1 °C 79 % 1009,0 hPa 0,0 mm 5,6 km/h (1 Bft) NW 304 ° 0 min 0,000 mm 1,1 UV-I 149 W/m² 5,7 °C 8,6 °C 12,9 km/h (3 Bft)
03.05.2019 14:33 9,1 °C 79 % 1009,0 hPa 0,0 mm 5,6 km/h (1 Bft) W-NW 282 ° 0 min 0,000 mm 1,0 UV-I 137 W/m² 5,7 °C 8,6 °C 11,3 km/h (2 Bft)
03.05.2019 14:34 9,1 °C 80 % 1008,9 hPa 0,0 mm 5,2 km/h (1 Bft) NW 325 ° 0 min 0,000 mm 0,9 UV-I 105 W/m² 5,8 °C 8,7 °C 6,4 km/h (2 Bft)
03.05.2019 14:35 9,1 °C 80 % 1009,0 hPa 0,0 mm 5,3 km/h (1 Bft) NW 313 ° 0 min 0,000 mm 0,7 UV-I 97 W/m² 5,8 °C 8,6 °C 8,0 km/h (2 Bft)
03.05.2019 14:36 9,1 °C 80 % 1009,0 hPa 0,0 mm 5,2 km/h (1 Bft) W-NW 297 ° 0 min 0,000 mm 0,6 UV-I 93 W/m² 5,8 °C 8,7 °C 11,3 km/h (2 Bft)
03.05.2019 14:37 9,1 °C 79 % 1008,9 hPa 0,0 mm 3,6 km/h (1 Bft) W-NW 294 ° 0 min 0,000 mm 0,6 UV-I 93 W/m² 5,7 °C 9,1 °C 6,4 km/h (2 Bft)
03.05.2019 14:38 9,0 °C 79 % 1008,9 hPa 0,0 mm 4,0 km/h (1 Bft) N-NW 348 ° 0 min 0,000 mm 0,7 UV-I 98 W/m² 5,6 °C 9,0 °C 8,0 km/h (2 Bft)
03.05.2019 14:39 9,0 °C 79 % 1008,9 hPa 0,0 mm 9,6 km/h (2 Bft) W-NW 296 ° 0 min 0,000 mm 0,8 UV-I 134 W/m² 5,6 °C 7,5 °C 14,5 km/h (3 Bft)
03.05.2019 14:40 9,0 °C 79 % 1009,0 hPa 0,0 mm 3,5 km/h (1 Bft) NW 313 ° 0 min 0,000 mm 0,9 UV-I 151 W/m² 5,6 °C 9,0 °C 8,0 km/h (2 Bft)
03.05.2019 14:41 9,1 °C 79 % 1009,0 hPa 0,0 mm 3,2 km/h (1 Bft) NW 310 ° 0 min 0,000 mm 1,2 UV-I 165 W/m² 5,7 °C 9,1 °C 6,4 km/h (2 Bft)
03.05.2019 14:42 9,1 °C 80 % 1009,0 hPa 0,0 mm 8,8 km/h (2 Bft) W-NW 300 ° 0 min 0,000 mm 1,2 UV-I 167 W/m² 5,8 °C 7,8 °C 12,9 km/h (3 Bft)
03.05.2019 14:43 9,2 °C 79 % 1009,0 hPa 0,0 mm 6,8 km/h (2 Bft) W-NW 290 ° 0 min 0,000 mm 1,1 UV-I 160 W/m² 5,8 °C 8,3 °C 12,9 km/h (3 Bft)
03.05.2019 14:44 9,1 °C 78 % 1009,0 hPa 0,0 mm 15,8 km/h (3 Bft) W-SW 252 ° 0 min 0,000 mm 1,1 UV-I 151 W/m² 5,5 °C 6,7 °C 27,4 km/h (4 Bft)
03.05.2019 14:45 9,1 °C 78 % 1008,9 hPa 0,0 mm 13,3 km/h (3 Bft) W 275 ° 0 min 0,000 mm 1,0 UV-I 151 W/m² 5,5 °C 7,0 °C 24,1 km/h (4 Bft)
03.05.2019 14:46 9,1 °C 77 % 1009,0 hPa 0,0 mm 13,8 km/h (3 Bft) W-NW 296 ° 0 min 0,000 mm 1,1 UV-I 158 W/m² 5,3 °C 7,0 °C 17,7 km/h (3 Bft)
03.05.2019 14:47 9,1 °C 77 % 1008,9 hPa 0,0 mm 7,8 km/h (2 Bft) W 270 ° 0 min 0,000 mm 1,2 UV-I 171 W/m² 5,3 °C 8,0 °C 14,5 km/h (3 Bft)
03.05.2019 14:48 9,2 °C 78 % 1008,9 hPa 0,0 mm 13,7 km/h (3 Bft) W-NW 289 ° 0 min 0,000 mm 1,3 UV-I 174 W/m² 5,6 °C 7,1 °C 17,7 km/h (3 Bft)
03.05.2019 14:49 9,2 °C 78 % 1008,9 hPa 0,0 mm 15,3 km/h (3 Bft) NW 314 ° 0 min 0,000 mm 1,1 UV-I 162 W/m² 5,6 °C 6,9 °C 20,9 km/h (4 Bft)
03.05.2019 14:50 9,2 °C 78 % 1008,9 hPa 0,0 mm 8,6 km/h (2 Bft) W-NW 288 ° 0 min 0,000 mm 1,0 UV-I 146 W/m² 5,6 °C 7,9 °C 16,1 km/h (3 Bft)
03.05.2019 14:51 9,2 °C 78 % 1009,0 hPa 0,0 mm 12,6 km/h (3 Bft) W-NW 286 ° 0 min 0,000 mm 0,9 UV-I 123 W/m² 5,6 °C 7,3 °C 17,7 km/h (3 Bft)
03.05.2019 14:52 9,2 °C 78 % 1009,0 hPa 0,0 mm 11,1 km/h (2 Bft) NW 309 ° 0 min 0,000 mm 0,8 UV-I 109 W/m² 5,6 °C 7,5 °C 17,7 km/h (3 Bft)
03.05.2019 14:53 9,1 °C 78 % 1008,9 hPa 0,0 mm 6,4 km/h (2 Bft) N-NW 327 ° 0 min 0,000 mm 0,7 UV-I 104 W/m² 5,5 °C 8,3 °C 11,3 km/h (2 Bft)
03.05.2019 14:54 9,1 °C 78 % 1009,0 hPa 0,0 mm 9,5 km/h (2 Bft) W 277 ° 0 min 0,000 mm 0,7 UV-I 100 W/m² 5,5 °C 7,6 °C 17,7 km/h (3 Bft)
03.05.2019 14:55 8,9 °C 78 % 1009,0 hPa 0,0 mm 12,8 km/h (3 Bft) NW 320 ° 0 min 0,000 mm 0,7 UV-I 104 W/m² 5,3 °C 6,9 °C 19,3 km/h (3 Bft)
03.05.2019 14:56 8,9 °C 78 % 1009,0 hPa 0,0 mm 8,6 km/h (2 Bft) N-NW 338 ° 0 min 0,000 mm 0,7 UV-I 114 W/m² 5,3 °C 7,6 °C 14,5 km/h (3 Bft)
03.05.2019 14:57 8,9 °C 78 % 1008,9 hPa 0,0 mm 9,9 km/h (2 Bft) W-NW 282 ° 0 min 0,000 mm 0,9 UV-I 158 W/m² 5,3 °C 7,3 °C 16,1 km/h (3 Bft)
03.05.2019 14:58 8,8 °C 78 % 1008,9 hPa 0,0 mm 10,3 km/h (2 Bft) W-NW 298 ° 0 min 0,000 mm 0,9 UV-I 183 W/m² 5,2 °C 7,1 °C 14,5 km/h (3 Bft)
03.05.2019 14:59 8,8 °C 79 % 1008,9 hPa 0,0 mm 10,0 km/h (2 Bft) W-NW 289 ° 0 min 0,000 mm 1,5 UV-I 213 W/m² 5,4 °C 7,2 °C 14,5 km/h (3 Bft)
03.05.2019 15:00 8,8 °C 79 % 1008,9 hPa 0,0 mm 8,7 km/h (2 Bft) N-NW 327 ° 0 min 0,000 mm 1,7 UV-I 246 W/m² 5,4 °C 7,4 °C 11,3 km/h (2 Bft)
03.05.2019 15:01 8,9 °C 79 % 1008,9 hPa 0,0 mm 12,5 km/h (3 Bft) W-NW 284 ° 0 min 0,102 mm 1,9 UV-I 274 W/m² 5,5 °C 6,9 °C 19,3 km/h (3 Bft)
03.05.2019 15:02 8,9 °C 78 % 1008,9 hPa 0,0 mm 14,4 km/h (3 Bft) NW 314 ° 0 min 0,000 mm 2,0 UV-I 290 W/m² 5,3 °C 6,6 °C 19,3 km/h (3 Bft)
03.05.2019 15:03 8,9 °C 79 % 1008,9 hPa 0,0 mm 12,7 km/h (3 Bft) W-NW 291 ° 0 min 0,000 mm 2,0 UV-I 269 W/m² 5,5 °C 6,9 °C 17,7 km/h (3 Bft)
03.05.2019 15:04 8,9 °C 79 % 1008,8 hPa 0,0 mm 8,4 km/h (2 Bft) NW 320 ° 0 min 0,000 mm 1,7 UV-I 246 W/m² 5,5 °C 7,6 °C 14,5 km/h (3 Bft)
03.05.2019 15:05 8,9 °C 79 % 1008,8 hPa 0,0 mm 9,1 km/h (2 Bft) NW 319 ° 0 min 0,000 mm 1,4 UV-I 211 W/m² 5,5 °C 7,5 °C 17,7 km/h (3 Bft)
03.05.2019 15:06 9,1 °C 80 % 1008,8 hPa 0,0 mm 8,7 km/h (2 Bft) W 274 ° 0 min 0,000 mm 1,2 UV-I 178 W/m² 5,8 °C 7,8 °C 14,5 km/h (3 Bft)
03.05.2019 15:07 9,1 °C 79 % 1008,8 hPa 0,0 mm 9,0 km/h (2 Bft) NW 313 ° 0 min 0,000 mm 1,0 UV-I 149 W/m² 5,7 °C 7,7 °C 14,5 km/h (3 Bft)
03.05.2019 15:08 9,1 °C 79 % 1008,8 hPa 0,0 mm 8,1 km/h (2 Bft) N-NW 336 ° 0 min 0,000 mm 0,9 UV-I 130 W/m² 5,7 °C 7,9 °C 11,3 km/h (2 Bft)
03.05.2019 15:09 9,1 °C 80 % 1008,8 hPa 0,0 mm 8,2 km/h (2 Bft) NW 305 ° 0 min 0,000 mm 0,8 UV-I 127 W/m² 5,8 °C 7,9 °C 12,9 km/h (3 Bft)
03.05.2019 15:10 9,0 °C 79 % 1008,8 hPa 0,0 mm 4,0 km/h (1 Bft) W-NW 290 ° 0 min 0,000 mm 0,9 UV-I 135 W/m² 5,6 °C 9,0 °C 8,0 km/h (2 Bft)
03.05.2019 15:11 9,0 °C 79 % 1008,9 hPa 0,0 mm 6,6 km/h (2 Bft) W-NW 298 ° 0 min 0,000 mm 1,0 UV-I 151 W/m² 5,6 °C 8,2 °C 8,0 km/h (2 Bft)
03.05.2019 15:12 9,0 °C 80 % 1008,8 hPa 0,0 mm 2,6 km/h (1 Bft) NW 311 ° 0 min 0,000 mm 1,2 UV-I 172 W/m² 5,7 °C 9,0 °C 8,0 km/h (2 Bft)
03.05.2019 15:13 8,9 °C 80 % 1008,8 hPa 0,0 mm 5,9 km/h (2 Bft) NW 313 ° 0 min 0,000 mm 1,3 UV-I 190 W/m² 5,6 °C 8,2 °C 12,9 km/h (3 Bft)
03.05.2019 15:14 8,9 °C 80 % 1008,8 hPa 0,0 mm 5,4 km/h (1 Bft) N-NW 336 ° 0 min 0,000 mm 1,4 UV-I 200 W/m² 5,6 °C 8,4 °C 12,9 km/h (3 Bft)
03.05.2019 15:15 8,9 °C 80 % 1008,8 hPa 0,0 mm 9,3 km/h (2 Bft) W 272 ° 0 min 0,000 mm 1,4 UV-I 204 W/m² 5,6 °C 7,4 °C 12,9 km/h (3 Bft)
03.05.2019 15:16 8,9 °C 80 % 1008,8 hPa 0,0 mm 5,3 km/h (1 Bft) W-NW 297 ° 0 min 0,000 mm 1,3 UV-I 197 W/m² 5,6 °C 8,4 °C 11,3 km/h (2 Bft)
03.05.2019 15:17 8,9 °C 80 % 1008,8 hPa 0,0 mm 2,0 km/h (1 Bft) NW 322 ° 0 min 0,000 mm 1,2 UV-I 178 W/m² 5,6 °C 8,9 °C 4,8 km/h (1 Bft)
03.05.2019 15:18 8,9 °C 81 % 1008,9 hPa 0,0 mm 6,2 km/h (2 Bft) W 281 ° 0 min 0,000 mm 1,1 UV-I 156 W/m² 5,8 °C 8,2 °C 9,7 km/h (2 Bft)
03.05.2019 15:19 9,0 °C 81 % 1008,9 hPa 0,0 mm 5,5 km/h (1 Bft) W 265 ° 0 min 0,000 mm 1,0 UV-I 141 W/m² 5,9 °C 8,5 °C 9,7 km/h (2 Bft)
03.05.2019 15:20 9,0 °C 80 % 1008,9 hPa 0,0 mm 6,9 km/h (2 Bft) W-NW 290 ° 0 min 0,000 mm 0,9 UV-I 132 W/m² 5,7 °C 8,1 °C 11,3 km/h (2 Bft)
03.05.2019 15:21 8,9 °C 80 % 1008,9 hPa 0,0 mm 6,8 km/h (2 Bft) NW 313 ° 0 min 0,000 mm 0,9 UV-I 125 W/m² 5,6 °C 8,0 °C 11,3 km/h (2 Bft)
03.05.2019 15:22 8,9 °C 80 % 1008,8 hPa 0,0 mm 5,4 km/h (1 Bft) W-NW 282 ° 0 min 0,000 mm 0,9 UV-I 118 W/m² 5,6 °C 8,4 °C 11,3 km/h (2 Bft)
03.05.2019 15:23 8,9 °C 80 % 1008,8 hPa 0,0 mm 6,0 km/h (2 Bft) NW 313 ° 0 min 0,000 mm 0,8 UV-I 113 W/m² 5,6 °C 8,2 °C 11,3 km/h (2 Bft)
03.05.2019 15:24 8,8 °C 80 % 1008,8 hPa 0,0 mm 7,0 km/h (2 Bft) W-NW 298 ° 0 min 0,000 mm 0,8 UV-I 105 W/m² 5,5 °C 7,8 °C 12,9 km/h (3 Bft)
03.05.2019 15:25 8,8 °C 80 % 1008,8 hPa 0,0 mm 6,2 km/h (2 Bft) W-NW 294 ° 0 min 0,000 mm 0,8 UV-I 98 W/m² 5,5 °C 8,0 °C 12,9 km/h (3 Bft)
03.05.2019 15:26 8,8 °C 80 % 1008,8 hPa 0,0 mm 9,1 km/h (2 Bft) W 275 ° 0 min 0,000 mm 0,6 UV-I 91 W/m² 5,5 °C 7,4 °C 14,5 km/h (3 Bft)
03.05.2019 15:27 8,8 °C 80 % 1008,8 hPa 0,0 mm 6,8 km/h (2 Bft) W-NW 293 ° 0 min 0,000 mm 0,6 UV-I 83 W/m² 5,5 °C 7,9 °C 12,9 km/h (3 Bft)
03.05.2019 15:28 8,8 °C 80 % 1008,8 hPa 0,0 mm 8,0 km/h (2 Bft) W 264 ° 0 min 0,000 mm 0,6 UV-I 84 W/m² 5,5 °C 7,6 °C 12,9 km/h (3 Bft)
03.05.2019 15:29 8,8 °C 80 % 1008,8 hPa 0,0 mm 12,6 km/h (3 Bft) W 272 ° 0 min 0,000 mm 0,6 UV-I 90 W/m² 5,5 °C 6,8 °C 14,5 km/h (3 Bft)
03.05.2019 15:30 8,8 °C 80 % 1008,8 hPa 0,0 mm 8,5 km/h (2 Bft) W 270 ° 0 min 0,000 mm 0,7 UV-I 97 W/m² 5,5 °C 7,5 °C 12,9 km/h (3 Bft)
03.05.2019 15:31 8,8 °C 80 % 1008,8 hPa 0,0 mm 12,1 km/h (2 Bft) W-NW 302 ° 0 min 0,000 mm 0,7 UV-I 102 W/m² 5,5 °C 6,8 °C 14,5 km/h (3 Bft)
03.05.2019 15:32 8,7 °C 79 % 1008,8 hPa 0,0 mm 11,1 km/h (2 Bft) W-NW 287 ° 0 min 0,000 mm 0,7 UV-I 105 W/m² 5,3 °C 6,9 °C 17,7 km/h (3 Bft)
03.05.2019 15:33 8,7 °C 79 % 1008,8 hPa 0,0 mm 9,6 km/h (2 Bft) W 264 ° 0 min 0,000 mm 0,7 UV-I 104 W/m² 5,3 °C 7,2 °C 14,5 km/h (3 Bft)
03.05.2019 15:34 8,6 °C 79 % 1008,8 hPa 0,0 mm 12,3 km/h (3 Bft) W 269 ° 0 min 0,000 mm 0,7 UV-I 104 W/m² 5,2 °C 6,6 °C 16,1 km/h (3 Bft)
03.05.2019 15:35 8,6 °C 79 % 1008,8 hPa 0,0 mm 10,4 km/h (2 Bft) NW 313 ° 0 min 0,000 mm 0,7 UV-I 102 W/m² 5,2 °C 6,9 °C 14,5 km/h (3 Bft)
03.05.2019 15:36 8,6 °C 79 % 1008,8 hPa 0,0 mm 3,8 km/h (1 Bft) NW 315 ° 0 min 0,000 mm 0,7 UV-I 104 W/m² 5,2 °C 8,6 °C 6,4 km/h (2 Bft)
03.05.2019 15:37 8,6 °C 80 % 1008,8 hPa 0,0 mm 8,6 km/h (2 Bft) NW 323 ° 0 min 0,000 mm 0,7 UV-I 104 W/m² 5,3 °C 7,2 °C 12,9 km/h (3 Bft)
03.05.2019 15:38 8,6 °C 81 % 1008,8 hPa 0,0 mm 5,3 km/h (1 Bft) N-NW 344 ° 0 min 0,000 mm 0,8 UV-I 111 W/m² 5,5 °C 8,1 °C 8,0 km/h (2 Bft)
03.05.2019 15:39 8,7 °C 81 % 1008,8 hPa 0,0 mm 6,2 km/h (2 Bft) NW 323 ° 0 min 0,000 mm 0,8 UV-I 107 W/m² 5,6 °C 7,9 °C 14,5 km/h (3 Bft)
03.05.2019 15:40 8,7 °C 81 % 1008,8 hPa 0,0 mm 6,3 km/h (2 Bft) NW 322 ° 0 min 0,000 mm 0,7 UV-I 98 W/m² 5,6 °C 7,9 °C 8,0 km/h (2 Bft)
03.05.2019 15:41 8,7 °C 81 % 1008,8 hPa 0,0 mm 9,9 km/h (2 Bft) W-NW 295 ° 0 min 0,000 mm 0,6 UV-I 90 W/m² 5,6 °C 7,1 °C 16,1 km/h (3 Bft)
03.05.2019 15:42 8,7 °C 80 % 1008,8 hPa 0,0 mm 12,8 km/h (3 Bft) W-NW 300 ° 0 min 0,000 mm 0,6 UV-I 83 W/m² 5,4 °C 6,6 °C 16,1 km/h (3 Bft)
03.05.2019 15:43 8,7 °C 80 % 1008,8 hPa 0,0 mm 14,4 km/h (3 Bft) W-NW 294 ° 0 min 0,000 mm 0,6 UV-I 77 W/m² 5,4 °C 6,4 °C 19,3 km/h (3 Bft)
03.05.2019 15:44 8,7 °C 80 % 1008,8 hPa 0,0 mm 8,0 km/h (2 Bft) W-NW 287 ° 0 min 0,000 mm 0,5 UV-I 67 W/m² 5,4 °C 7,5 °C 12,9 km/h (3 Bft)
03.05.2019 15:45 8,6 °C 80 % 1008,8 hPa 0,0 mm 8,6 km/h (2 Bft) W-NW 295 ° 0 min 0,000 mm 0,0 UV-I 62 W/m² 5,3 °C 7,2 °C 12,9 km/h (3 Bft)
03.05.2019 15:46 8,6 °C 80 % 1008,8 hPa 0,0 mm 11,4 km/h (2 Bft) W-SW 253 ° 0 min 0,000 mm 0,0 UV-I 60 W/m² 5,3 °C 6,7 °C 16,1 km/h (3 Bft)
03.05.2019 15:47 8,6 °C 80 % 1008,8 hPa 0,0 mm 9,5 km/h (2 Bft) W-NW 292 ° 0 min 0,000 mm 0,0 UV-I 60 W/m² 5,3 °C 7,1 °C 16,1 km/h (3 Bft)
03.05.2019 15:48 8,6 °C 80 % 1008,8 hPa 0,0 mm 6,0 km/h (2 Bft) W-SW 258 ° 0 min 0,000 mm 0,0 UV-I 60 W/m² 5,3 °C 7,9 °C 11,3 km/h (2 Bft)
03.05.2019 15:49 8,6 °C 80 % 1008,8 hPa 0,0 mm 5,1 km/h (1 Bft) W-NW 300 ° 0 min 0,000 mm 0,0 UV-I 62 W/m² 5,3 °C 8,1 °C 11,3 km/h (2 Bft)
03.05.2019 15:50 8,6 °C 80 % 1008,7 hPa 0,0 mm 5,9 km/h (2 Bft) W-NW 294 ° 0 min 0,000 mm 0,5 UV-I 69 W/m² 5,3 °C 7,9 °C 8,0 km/h (2 Bft)
03.05.2019 15:51 8,6 °C 81 % 1008,8 hPa 0,0 mm 4,1 km/h (1 Bft) NW 306 ° 0 min 0,000 mm 0,5 UV-I 69 W/m² 5,5 °C 8,6 °C 8,0 km/h (2 Bft)
03.05.2019 15:52 8,6 °C 80 % 1008,7 hPa 0,0 mm 3,0 km/h (1 Bft) W-NW 299 ° 0 min 0,000 mm 0,5 UV-I 69 W/m² 5,3 °C 8,6 °C 4,8 km/h (1 Bft)
03.05.2019 15:53 8,6 °C 80 % 1008,7 hPa 0,0 mm 6,8 km/h (2 Bft) NW 315 ° 0 min 0,000 mm 0,5 UV-I 69 W/m² 5,3 °C 7,6 °C 16,1 km/h (3 Bft)
03.05.2019 15:54 8,6 °C 80 % 1008,8 hPa 0,0 mm 8,9 km/h (2 Bft) W-SW 242 ° 0 min 0,000 mm 0,5 UV-I 70 W/m² 5,3 °C 7,2 °C 16,1 km/h (3 Bft)
03.05.2019 15:55 8,6 °C 80 % 1008,7 hPa 0,0 mm 9,4 km/h (2 Bft) W 261 ° 0 min 0,000 mm 0,5 UV-I 70 W/m² 5,3 °C 7,1 °C 11,3 km/h (2 Bft)
03.05.2019 15:56 8,6 °C 79 % 1008,7 hPa 0,0 mm 6,8 km/h (2 Bft) W-NW 291 ° 0 min 0,000 mm 0,5 UV-I 67 W/m² 5,2 °C 7,6 °C 11,3 km/h (2 Bft)
03.05.2019 15:57 8,6 °C 80 % 1008,7 hPa 0,0 mm 4,0 km/h (1 Bft) NW 304 ° 0 min 0,000 mm 0,5 UV-I 67 W/m² 5,3 °C 8,6 °C 6,4 km/h (2 Bft)
03.05.2019 15:58 8,6 °C 80 % 1008,7 hPa 0,0 mm 4,1 km/h (1 Bft) W 277 ° 0 min 0,000 mm 0,5 UV-I 74 W/m² 5,3 °C 8,6 °C 6,4 km/h (2 Bft)
03.05.2019 15:59 8,6 °C 81 % 1008,7 hPa 0,0 mm 3,7 km/h (1 Bft) W 273 ° 0 min 0,000 mm 0,6 UV-I 81 W/m² 5,5 °C 8,6 °C 6,4 km/h (2 Bft)
03.05.2019 16:00 8,6 °C 80 % 1008,7 hPa 0,0 mm 4,7 km/h (1 Bft) W 281 ° 0 min 0,000 mm 0,6 UV-I 88 W/m² 5,3 °C 8,3 °C 6,4 km/h (2 Bft)
03.05.2019 16:01 8,6 °C 80 % 1008,7 hPa 0,0 mm 5,8 km/h (2 Bft) W-NW 288 ° 0 min 0,076 mm 0,6 UV-I 93 W/m² 5,3 °C 7,9 °C 6,4 km/h (2 Bft)
03.05.2019 16:02 8,6 °C 81 % 1008,6 hPa 0,0 mm 4,8 km/h (1 Bft) W 275 ° 0 min 0,000 mm 0,7 UV-I 105 W/m² 5,5 °C 8,2 °C 6,4 km/h (2 Bft)
03.05.2019 16:03 8,6 °C 80 % 1008,7 hPa 0,0 mm 3,9 km/h (1 Bft) W-NW 284 ° 0 min 0,000 mm 0,8 UV-I 116 W/m² 5,3 °C 8,6 °C 6,4 km/h (2 Bft)
03.05.2019 16:04 8,6 °C 80 % 1008,6 hPa 0,0 mm 2,3 km/h (1 Bft) W-NW 293 ° 0 min 0,000 mm 0,8 UV-I 125 W/m² 5,3 °C 8,6 °C 4,8 km/h (1 Bft)
03.05.2019 16:05 8,6 °C 80 % 1008,6 hPa 0,0 mm 5,7 km/h (1 Bft) W-NW 292 ° 0 min 0,000 mm 0,9 UV-I 134 W/m² 5,3 °C 7,9 °C 8,0 km/h (2 Bft)
03.05.2019 16:06 8,7 °C 81 % 1008,6 hPa 0,0 mm 2,0 km/h (1 Bft) W-NW 292 ° 0 min 0,000 mm 1,0 UV-I 146 W/m² 5,6 °C 8,7 °C 4,8 km/h (1 Bft)
03.05.2019 16:07 8,7 °C 81 % 1008,6 hPa 0,0 mm 0,0 km/h (0 Bft) W-NW 292 ° 0 min 0,000 mm 1,1 UV-I 160 W/m² 5,6 °C 8,7 °C 0,0 km/h (0 Bft)
03.05.2019 16:08 8,8 °C 81 % 1008,5 hPa 0,0 mm 1,0 km/h (0 Bft) W-NW 290 ° 0 min 0,000 mm 1,2 UV-I 192 W/m² 5,7 °C 8,8 °C 4,8 km/h (1 Bft)
03.05.2019 16:09 8,8 °C 80 % 1008,5 hPa 0,0 mm 3,4 km/h (1 Bft) W 278 ° 0 min 0,000 mm 1,3 UV-I 202 W/m² 5,5 °C 8,8 °C 4,8 km/h (1 Bft)
03.05.2019 16:10 8,8 °C 80 % 1008,5 hPa 0,0 mm 4,5 km/h (1 Bft) NW 311 ° 0 min 0,000 mm 1,4 UV-I 209 W/m² 5,5 °C 8,8 °C 4,8 km/h (1 Bft)
03.05.2019 16:11 8,9 °C 80 % 1008,6 hPa 0,0 mm 4,9 km/h (1 Bft) NW 317 ° 0 min 0,000 mm 1,4 UV-I 211 W/m² 5,6 °C 8,5 °C 8,0 km/h (2 Bft)
03.05.2019 16:12 9,0 °C 79 % 1008,6 hPa 0,0 mm 8,3 km/h (2 Bft) W 271 ° 0 min 0,000 mm 1,4 UV-I 213 W/m² 5,6 °C 7,8 °C 16,1 km/h (3 Bft)
03.05.2019 16:13 8,9 °C 78 % 1008,5 hPa 0,0 mm 11,3 km/h (2 Bft) W-NW 297 ° 0 min 0,000 mm 1,4 UV-I 213 W/m² 5,3 °C 7,1 °C 14,5 km/h (3 Bft)
03.05.2019 16:14 8,9 °C 79 % 1008,5 hPa 0,0 mm 8,4 km/h (2 Bft) W-NW 300 ° 0 min 0,000 mm 1,5 UV-I 230 W/m² 5,5 °C 7,6 °C 12,9 km/h (3 Bft)
03.05.2019 16:15 8,9 °C 79 % 1008,5 hPa 0,0 mm 4,4 km/h (1 Bft) W 273 ° 0 min 0,000 mm 1,5 UV-I 230 W/m² 5,5 °C 8,9 °C 6,4 km/h (2 Bft)
03.05.2019 16:16 9,0 °C 78 % 1008,5 hPa 0,0 mm 5,6 km/h (1 Bft) W-NW 296 ° 0 min 0,000 mm 1,5 UV-I 216 W/m² 5,4 °C 8,4 °C 8,0 km/h (2 Bft)
03.05.2019 16:17 9,0 °C 78 % 1008,5 hPa 0,0 mm 9,1 km/h (2 Bft) W 268 ° 0 min 0,000 mm 1,4 UV-I 204 W/m² 5,4 °C 7,6 °C 19,3 km/h (3 Bft)
03.05.2019 16:18 9,1 °C 79 % 1008,6 hPa 0,0 mm 9,1 km/h (2 Bft) W 281 ° 0 min 0,000 mm 1,4 UV-I 202 W/m² 5,7 °C 7,7 °C 17,7 km/h (3 Bft)
03.05.2019 16:19 9,1 °C 79 % 1008,5 hPa 0,0 mm 5,6 km/h (1 Bft) W-NW 303 ° 0 min 0,000 mm 1,4 UV-I 209 W/m² 5,7 °C 8,6 °C 6,4 km/h (2 Bft)
03.05.2019 16:20 9,1 °C 79 % 1008,6 hPa 0,0 mm 9,5 km/h (2 Bft) W 271 ° 0 min 0,000 mm 1,5 UV-I 218 W/m² 5,7 °C 7,6 °C 14,5 km/h (3 Bft)
03.05.2019 16:21 9,1 °C 79 % 1008,6 hPa 0,0 mm 7,8 km/h (2 Bft) W 275 ° 0 min 0,000 mm 1,6 UV-I 232 W/m² 5,7 °C 8,0 °C 11,3 km/h (2 Bft)
03.05.2019 16:22 9,1 °C 79 % 1008,6 hPa 0,0 mm 10,8 km/h (2 Bft) W-NW 290 ° 0 min 0,000 mm 1,6 UV-I 230 W/m² 5,7 °C 7,4 °C 14,5 km/h (3 Bft)
03.05.2019 16:23 9,1 °C 78 % 1008,6 hPa 0,0 mm 6,5 km/h (2 Bft) NW 316 ° 0 min 0,000 mm 1,6 UV-I 225 W/m² 5,5 °C 8,3 °C 11,3 km/h (2 Bft)
03.05.2019 16:24 9,1 °C 79 % 1008,5 hPa 0,0 mm 5,6 km/h (1 Bft) W-NW 303 ° 0 min 0,000 mm 1,6 UV-I 229 W/m² 5,7 °C 8,6 °C 12,9 km/h (3 Bft)
03.05.2019 16:25 9,2 °C 79 % 1008,6 hPa 0,0 mm 11,0 km/h (2 Bft) NW 319 ° 0 min 0,000 mm 1,6 UV-I 243 W/m² 5,8 °C 7,5 °C 14,5 km/h (3 Bft)
03.05.2019 16:26 9,2 °C 78 % 1008,6 hPa 0,0 mm 9,0 km/h (2 Bft) W-NW 296 ° 0 min 0,000 mm 1,6 UV-I 237 W/m² 5,6 °C 7,9 °C 14,5 km/h (3 Bft)
03.05.2019 16:27 9,2 °C 79 % 1008,6 hPa 0,0 mm 15,2 km/h (3 Bft) W 261 ° 0 min 0,000 mm 1,6 UV-I 227 W/m² 5,8 °C 6,9 °C 19,3 km/h (3 Bft)
03.05.2019 16:28 9,2 °C 78 % 1008,6 hPa 0,0 mm 12,3 km/h (3 Bft) N-NW 336 ° 0 min 0,000 mm 1,5 UV-I 214 W/m² 5,6 °C 7,3 °C 19,3 km/h (3 Bft)
03.05.2019 16:29 9,2 °C 79 % 1008,5 hPa 0,0 mm 8,0 km/h (2 Bft) W-NW 291 ° 0 min 0,000 mm 1,4 UV-I 202 W/m² 5,8 °C 8,1 °C 14,5 km/h (3 Bft)
03.05.2019 16:30 9,2 °C 79 % 1008,6 hPa 0,0 mm 10,5 km/h (2 Bft) NW 307 ° 0 min 0,000 mm 1,4 UV-I 199 W/m² 5,8 °C 7,6 °C 16,1 km/h (3 Bft)
03.05.2019 16:31 9,2 °C 78 % 1008,6 hPa 0,0 mm 5,1 km/h (1 Bft) NW 316 ° 0 min 0,000 mm 1,4 UV-I 190 W/m² 5,6 °C 8,8 °C 9,7 km/h (2 Bft)
03.05.2019 16:32 9,2 °C 78 % 1008,5 hPa 0,0 mm 5,6 km/h (1 Bft) NW 321 ° 0 min 0,000 mm 1,3 UV-I 179 W/m² 5,6 °C 8,7 °C 11,3 km/h (2 Bft)
03.05.2019 16:33 9,1 °C 78 % 1008,5 hPa 0,0 mm 10,5 km/h (2 Bft) W-NW 290 ° 0 min 0,000 mm 1,2 UV-I 163 W/m² 5,5 °C 7,5 °C 17,7 km/h (3 Bft)
03.05.2019 16:34 9,1 °C 78 % 1008,6 hPa 0,0 mm 12,5 km/h (3 Bft) W 268 ° 0 min 0,000 mm 1,1 UV-I 149 W/m² 5,5 °C 7,1 °C 17,7 km/h (3 Bft)
03.05.2019 16:35 9,1 °C 77 % 1008,5 hPa 0,0 mm 10,5 km/h (2 Bft) W 275 ° 0 min 0,000 mm 1,1 UV-I 142 W/m² 5,3 °C 7,5 °C 16,1 km/h (3 Bft)
03.05.2019 16:36 8,9 °C 77 % 1008,6 hPa 0,0 mm 9,6 km/h (2 Bft) W 273 ° 0 min 0,000 mm 1,1 UV-I 137 W/m² 5,1 °C 7,4 °C 14,5 km/h (3 Bft)
03.05.2019 16:37 8,9 °C 77 % 1008,6 hPa 0,0 mm 11,1 km/h (2 Bft) W 267 ° 0 min 0,000 mm 1,1 UV-I 121 W/m² 5,1 °C 7,1 °C 16,1 km/h (3 Bft)
03.05.2019 16:38 8,8 °C 78 % 1008,6 hPa 0,0 mm 12,7 km/h (3 Bft) W-SW 256 ° 0 min 0,000 mm 0,9 UV-I 118 W/m² 5,2 °C 6,8 °C 19,3 km/h (3 Bft)
03.05.2019 16:39 8,8 °C 78 % 1008,5 hPa 0,0 mm 7,7 km/h (2 Bft) W 278 ° 0 min 0,000 mm 0,9 UV-I 120 W/m² 5,2 °C 7,7 °C 14,5 km/h (3 Bft)
03.05.2019 16:40 8,8 °C 78 % 1008,5 hPa 0,0 mm 9,1 km/h (2 Bft) NW 310 ° 0 min 0,000 mm 0,9 UV-I 125 W/m² 5,2 °C 7,4 °C 17,7 km/h (3 Bft)
03.05.2019 16:41 8,8 °C 78 % 1008,6 hPa 0,0 mm 9,7 km/h (2 Bft) W 273 ° 0 min 0,000 mm 0,9 UV-I 130 W/m² 5,2 °C 7,3 °C 14,5 km/h (3 Bft)
03.05.2019 16:42 8,8 °C 79 % 1008,6 hPa 0,0 mm 12,9 km/h (3 Bft) NW 320 ° 0 min 0,000 mm 1,0 UV-I 135 W/m² 5,4 °C 6,7 °C 19,3 km/h (3 Bft)
03.05.2019 16:43 8,7 °C 78 % 1008,6 hPa 0,0 mm 6,2 km/h (2 Bft) W 265 ° 0 min 0,000 mm 1,0 UV-I 146 W/m² 5,1 °C 7,9 °C 12,9 km/h (3 Bft)
03.05.2019 16:44 8,7 °C 79 % 1008,6 hPa 0,0 mm 6,4 km/h (2 Bft) NW 311 ° 0 min 0,000 mm 1,0 UV-I 153 W/m² 5,3 °C 7,9 °C 8,0 km/h (2 Bft)
03.05.2019 16:45 8,7 °C 79 % 1008,6 hPa 0,0 mm 6,0 km/h (2 Bft) W 262 ° 0 min 0,000 mm 1,1 UV-I 162 W/m² 5,3 °C 8,0 °C 12,9 km/h (3 Bft)
03.05.2019 16:46 8,7 °C 79 % 1008,6 hPa 0,0 mm 7,7 km/h (2 Bft) W-SW 248 ° 0 min 0,000 mm 1,2 UV-I 179 W/m² 5,3 °C 7,5 °C 11,3 km/h (2 Bft)
03.05.2019 16:47 8,8 °C 79 % 1008,6 hPa 0,0 mm 12,9 km/h (3 Bft) W-NW 302 ° 0 min 0,000 mm 1,3 UV-I 202 W/m² 5,4 °C 6,7 °C 14,5 km/h (3 Bft)
03.05.2019 16:48 8,8 °C 79 % 1008,6 hPa 0,0 mm 11,1 km/h (2 Bft) W 269 ° 0 min 0,000 mm 1,5 UV-I 229 W/m² 5,4 °C 7,0 °C 16,1 km/h (3 Bft)
03.05.2019 16:49 8,8 °C 79 % 1008,6 hPa 0,0 mm 10,7 km/h (2 Bft) W 264 ° 0 min 0,000 mm 1,6 UV-I 253 W/m² 5,4 °C 7,1 °C 14,5 km/h (3 Bft)
03.05.2019 16:50 8,9 °C 79 % 1008,6 hPa 0,0 mm 6,6 km/h (2 Bft) W-NW 296 ° 0 min 0,000 mm 1,5 UV-I 227 W/m² 5,5 °C 8,0 °C 11,3 km/h (2 Bft)
03.05.2019 16:51 8,9 °C 79 % 1008,6 hPa 0,0 mm 8,3 km/h (2 Bft) W 273 ° 0 min 0,000 mm 1,5 UV-I 186 W/m² 5,5 °C 7,7 °C 11,3 km/h (2 Bft)
03.05.2019 16:52 8,9 °C 79 % 1008,6 hPa 0,0 mm 9,5 km/h (2 Bft) NW 318 ° 0 min 0,000 mm 1,1 UV-I 153 W/m² 5,5 °C 7,4 °C 12,9 km/h (3 Bft)
03.05.2019 16:53 8,9 °C 79 % 1008,6 hPa 0,0 mm 13,9 km/h (3 Bft) W-NW 300 ° 0 min 0,000 mm 0,9 UV-I 128 W/m² 5,5 °C 6,7 °C 17,7 km/h (3 Bft)
03.05.2019 16:54 8,9 °C 80 % 1008,7 hPa 0,0 mm 9,2 km/h (2 Bft) NW 308 ° 0 min 0,000 mm 0,8 UV-I 113 W/m² 5,6 °C 7,5 °C 16,1 km/h (3 Bft)
03.05.2019 16:55 8,9 °C 80 % 1008,7 hPa 0,0 mm 9,4 km/h (2 Bft) NW 321 ° 0 min 0,000 mm 0,8 UV-I 109 W/m² 5,6 °C 7,4 °C 14,5 km/h (3 Bft)
03.05.2019 16:56 8,8 °C 80 % 1008,7 hPa 0,0 mm 6,2 km/h (2 Bft) NW 318 ° 0 min 0,000 mm 0,8 UV-I 109 W/m² 5,5 °C 8,0 °C 14,5 km/h (3 Bft)
03.05.2019 16:57 8,8 °C 80 % 1008,8 hPa 0,0 mm 8,6 km/h (2 Bft) NW 319 ° 0 min 0,000 mm 0,8 UV-I 113 W/m² 5,5 °C 7,5 °C 16,1 km/h (3 Bft)
03.05.2019 16:58 8,7 °C 81 % 1008,8 hPa 0,0 mm 10,0 km/h (2 Bft) NW 323 ° 0 min 0,000 mm 0,8 UV-I 121 W/m² 5,6 °C 7,1 °C 17,7 km/h (3 Bft)
03.05.2019 16:59 8,6 °C 81 % 1008,8 hPa 0,0 mm 8,3 km/h (2 Bft) W-NW 292 ° 0 min 0,000 mm 0,9 UV-I 137 W/m² 5,5 °C 7,3 °C 14,5 km/h (3 Bft)
03.05.2019 17:00 8,6 °C 81 % 1008,8 hPa 0,0 mm 9,5 km/h (2 Bft) NW 315 ° 0 min 0,000 mm 1,1 UV-I 195 W/m² 5,5 °C 7,1 °C 14,5 km/h (3 Bft)
03.05.2019 17:01 8,4 °C 82 % 1008,8 hPa 0,0 mm 10,9 km/h (2 Bft) NW 317 ° 0 min 0,102 mm 1,4 UV-I 207 W/m² 5,5 °C 6,6 °C 16,1 km/h (3 Bft)
03.05.2019 17:02 8,4 °C 82 % 1008,8 hPa 0,0 mm 10,8 km/h (2 Bft) NW 310 ° 0 min 0,000 mm 1,4 UV-I 202 W/m² 5,5 °C 6,6 °C 14,5 km/h (3 Bft)
03.05.2019 17:03 8,4 °C 82 % 1008,8 hPa 0,0 mm 10,7 km/h (2 Bft) N-NW 341 ° 0 min 0,000 mm 1,3 UV-I 179 W/m² 5,5 °C 6,6 °C 14,5 km/h (3 Bft)
03.05.2019 17:04 8,4 °C 83 % 1008,8 hPa 0,0 mm 5,1 km/h (1 Bft) W 278 ° 0 min 0,000 mm 1,2 UV-I 155 W/m² 5,7 °C 7,9 °C 11,3 km/h (2 Bft)
03.05.2019 17:05 8,4 °C 83 % 1008,8 hPa 0,0 mm 7,4 km/h (2 Bft) N-NW 330 ° 0 min 0,000 mm 1,0 UV-I 132 W/m² 5,7 °C 7,3 °C 11,3 km/h (2 Bft)
03.05.2019 17:06 8,4 °C 83 % 1008,9 hPa 0,0 mm 5,4 km/h (1 Bft) NW 314 ° 0 min 0,000 mm 0,9 UV-I 102 W/m² 5,7 °C 7,8 °C 9,7 km/h (2 Bft)
03.05.2019 17:07 8,3 °C 83 % 1008,8 hPa 0,0 mm 5,4 km/h (1 Bft) N-NW 327 ° 0 min 0,000 mm 0,7 UV-I 95 W/m² 5,6 °C 7,7 °C 9,7 km/h (2 Bft)
03.05.2019 17:08 8,3 °C 83 % 1008,8 hPa 0,0 mm 5,6 km/h (1 Bft) NW 313 ° 0 min 0,000 mm 0,8 UV-I 97 W/m² 5,6 °C 7,6 °C 9,7 km/h (2 Bft)
03.05.2019 17:09 8,3 °C 83 % 1008,8 hPa 0,0 mm 5,9 km/h (2 Bft) NW 319 ° 0 min 0,000 mm 0,8 UV-I 107 W/m² 5,6 °C 7,5 °C 9,7 km/h (2 Bft)
03.05.2019 17:10 8,3 °C 84 % 1008,8 hPa 0,0 mm 7,4 km/h (2 Bft) N 355 ° 0 min 0,000 mm 0,8 UV-I 109 W/m² 5,8 °C 7,1 °C 12,9 km/h (3 Bft)
03.05.2019 17:11 8,3 °C 83 % 1008,9 hPa 0,0 mm 7,4 km/h (2 Bft) NW 317 ° 0 min 0,000 mm 0,7 UV-I 97 W/m² 5,6 °C 7,1 °C 14,5 km/h (3 Bft)
03.05.2019 17:12 8,3 °C 83 % 1008,9 hPa 0,0 mm 3,9 km/h (1 Bft) W-NW 301 ° 0 min 0,000 mm 0,7 UV-I 88 W/m² 5,6 °C 8,3 °C 6,4 km/h (2 Bft)
03.05.2019 17:13 8,2 °C 84 % 1008,9 hPa 0,0 mm 8,2 km/h (2 Bft) NW 309 ° 0 min 0,000 mm 0,8 UV-I 107 W/m² 5,7 °C 6,8 °C 16,1 km/h (3 Bft)
03.05.2019 17:14 8,2 °C 84 % 1008,9 hPa 0,0 mm 11,7 km/h (2 Bft) N-NO 23 ° 0 min 0,000 mm 0,7 UV-I 113 W/m² 5,7 °C 6,2 °C 16,1 km/h (3 Bft)
03.05.2019 17:15 8,1 °C 84 % 1008,9 hPa 0,0 mm 10,7 km/h (2 Bft) NW 316 ° 0 min 0,000 mm 0,7 UV-I 109 W/m² 5,6 °C 6,2 °C 16,1 km/h (3 Bft)
03.05.2019 17:16 8,1 °C 84 % 1008,9 hPa 0,0 mm 9,3 km/h (2 Bft) W-NW 287 ° 0 min 0,000 mm 0,6 UV-I 97 W/m² 5,6 °C 6,5 °C 12,9 km/h (3 Bft)
03.05.2019 17:17 8,1 °C 84 % 1008,9 hPa 0,0 mm 6,7 km/h (2 Bft) N-NW 335 ° 0 min 0,000 mm 0,6 UV-I 86 W/m² 5,6 °C 7,1 °C 9,7 km/h (2 Bft)
03.05.2019 17:18 8,1 °C 84 % 1008,9 hPa 0,0 mm 6,4 km/h (2 Bft) NW 311 ° 0 min 0,000 mm 0,6 UV-I 97 W/m² 5,6 °C 7,2 °C 9,7 km/h (2 Bft)
03.05.2019 17:19 8,0 °C 84 % 1008,9 hPa 0,0 mm 5,2 km/h (1 Bft) N 360 ° 0 min 0,000 mm 0,6 UV-I 95 W/m² 5,5 °C 7,4 °C 8,0 km/h (2 Bft)
03.05.2019 17:20 7,9 °C 84 % 1008,9 hPa 0,0 mm 5,8 km/h (2 Bft) N 351 ° 0 min 0,000 mm 0,5 UV-I 84 W/m² 5,4 °C 7,1 °C 9,7 km/h (2 Bft)
03.05.2019 17:21 8,0 °C 84 % 1008,9 hPa 0,0 mm 8,9 km/h (2 Bft) NW 317 ° 0 min 0,000 mm 0,5 UV-I 69 W/m² 5,5 °C 6,5 °C 12,9 km/h (3 Bft)
03.05.2019 17:22 7,9 °C 85 % 1008,9 hPa 0,0 mm 4,2 km/h (1 Bft) NW 319 ° 0 min 0,000 mm 0,0 UV-I 56 W/m² 5,5 °C 7,9 °C 4,8 km/h (1 Bft)
03.05.2019 17:23 8,0 °C 85 % 1008,9 hPa 0,0 mm 5,1 km/h (1 Bft) N-NW 333 ° 0 min 0,000 mm 0,0 UV-I 51 W/m² 5,6 °C 7,5 °C 8,0 km/h (2 Bft)
03.05.2019 17:24 7,9 °C 85 % 1009,0 hPa 0,0 mm 10,1 km/h (2 Bft) N-NW 347 ° 0 min 0,000 mm 0,0 UV-I 49 W/m² 5,5 °C 6,1 °C 17,7 km/h (3 Bft)
03.05.2019 17:25 7,9 °C 85 % 1008,9 hPa 0,0 mm 8,6 km/h (2 Bft) W-NW 298 ° 0 min 0,000 mm 0,0 UV-I 53 W/m² 5,5 °C 6,4 °C 14,5 km/h (3 Bft)
03.05.2019 17:26 7,8 °C 85 % 1008,9 hPa 0,0 mm 7,0 km/h (2 Bft) NW 323 ° 0 min 0,000 mm 0,0 UV-I 60 W/m² 5,4 °C 6,7 °C 12,9 km/h (3 Bft)
03.05.2019 17:27 7,8 °C 85 % 1008,9 hPa 0,0 mm 5,0 km/h (1 Bft) NW 315 ° 0 min 0,000 mm 0,5 UV-I 67 W/m² 5,4 °C 7,3 °C 9,7 km/h (2 Bft)
03.05.2019 17:28 7,8 °C 85 % 1008,9 hPa 0,0 mm 6,0 km/h (2 Bft) W 275 ° 0 min 0,000 mm 0,5 UV-I 79 W/m² 5,4 °C 6,9 °C 12,9 km/h (3 Bft)
03.05.2019 17:29 7,8 °C 85 % 1009,0 hPa 0,0 mm 6,7 km/h (2 Bft) W 281 ° 0 min 0,000 mm 0,6 UV-I 107 W/m² 5,4 °C 6,7 °C 9,7 km/h (2 Bft)
03.05.2019 17:30 7,7 °C 86 % 1009,0 hPa 0,0 mm 6,4 km/h (2 Bft) W-NW 293 ° 0 min 0,000 mm 0,7 UV-I 111 W/m² 5,5 °C 6,7 °C 11,3 km/h (2 Bft)
03.05.2019 17:31 7,7 °C 86 % 1008,9 hPa 0,0 mm 5,8 km/h (2 Bft) W-NW 290 ° 0 min 0,000 mm 0,8 UV-I 116 W/m² 5,5 °C 6,9 °C 6,4 km/h (2 Bft)
03.05.2019 17:32 7,7 °C 86 % 1009,0 hPa 0,0 mm 5,6 km/h (1 Bft) NW 323 ° 0 min 0,000 mm 0,8 UV-I 132 W/m² 5,5 °C 6,9 °C 9,7 km/h (2 Bft)
03.05.2019 17:33 7,7 °C 86 % 1009,0 hPa 0,0 mm 4,6 km/h (1 Bft) W-NW 286 ° 0 min 0,000 mm 1,0 UV-I 162 W/m² 5,5 °C 7,3 °C 6,4 km/h (2 Bft)
03.05.2019 17:34 7,7 °C 86 % 1009,0 hPa 0,0 mm 6,4 km/h (2 Bft) N-NW 329 ° 0 min 0,000 mm 1,1 UV-I 200 W/m² 5,5 °C 6,7 °C 16,1 km/h (3 Bft)
03.05.2019 17:35 7,7 °C 86 % 1008,9 hPa 0,0 mm 4,0 km/h (1 Bft) NW 320 ° 0 min 0,000 mm 1,2 UV-I 181 W/m² 5,5 °C 7,7 °C 8,0 km/h (2 Bft)
03.05.2019 17:36 7,8 °C 86 % 1009,0 hPa 0,0 mm 7,7 km/h (2 Bft) N-NW 327 ° 0 min 0,000 mm 1,2 UV-I 144 W/m² 5,6 °C 6,5 °C 12,9 km/h (3 Bft)
03.05.2019 17:37 7,8 °C 86 % 1008,9 hPa 0,0 mm 5,7 km/h (1 Bft) NW 323 ° 0 min 0,000 mm 1,0 UV-I 128 W/m² 5,6 °C 7,0 °C 9,7 km/h (2 Bft)
03.05.2019 17:38 7,8 °C 86 % 1009,0 hPa 0,0 mm 7,6 km/h (2 Bft) NW 312 ° 0 min 0,000 mm 0,9 UV-I 123 W/m² 5,6 °C 6,5 °C 14,5 km/h (3 Bft)
03.05.2019 17:39 7,8 °C 85 % 1009,0 hPa 0,0 mm 6,6 km/h (2 Bft) N-NW 334 ° 0 min 0,000 mm 0,9 UV-I 116 W/m² 5,4 °C 6,8 °C 12,9 km/h (3 Bft)
03.05.2019 17:40 7,8 °C 85 % 1009,0 hPa 0,0 mm 12,4 km/h (3 Bft) NW 319 ° 0 min 0,000 mm 0,8 UV-I 116 W/m² 5,4 °C 5,6 °C 17,7 km/h (3 Bft)
03.05.2019 17:41 7,8 °C 85 % 1009,0 hPa 0,0 mm 7,9 km/h (2 Bft) NW 315 ° 0 min 0,000 mm 0,8 UV-I 86 W/m² 5,4 °C 6,4 °C 12,9 km/h (3 Bft)
03.05.2019 17:42 7,8 °C 85 % 1009,0 hPa 0,0 mm 6,0 km/h (2 Bft) N-NW 341 ° 0 min 0,000 mm 0,6 UV-I 77 W/m² 5,4 °C 6,9 °C 11,3 km/h (2 Bft)
03.05.2019 17:43 7,8 °C 85 % 1009,0 hPa 0,0 mm 10,2 km/h (2 Bft) NW 311 ° 0 min 0,000 mm 0,6 UV-I 76 W/m² 5,4 °C 6,0 °C 16,1 km/h (3 Bft)
03.05.2019 17:44 7,7 °C 85 % 1009,1 hPa 0,0 mm 8,3 km/h (2 Bft) N 5 ° 0 min 0,000 mm 0,6 UV-I 84 W/m² 5,3 °C 6,2 °C 12,9 km/h (3 Bft)
03.05.2019 17:45 7,7 °C 84 % 1009,0 hPa 0,0 mm 5,9 km/h (2 Bft) N-NW 336 ° 0 min 0,000 mm 0,7 UV-I 97 W/m² 5,2 °C 6,9 °C 8,0 km/h (2 Bft)
03.05.2019 17:46 7,7 °C 85 % 1009,0 hPa 0,0 mm 3,0 km/h (1 Bft) NW 323 ° 0 min 0,000 mm 0,7 UV-I 98 W/m² 5,3 °C 7,7 °C 6,4 km/h (2 Bft)
03.05.2019 17:47 7,7 °C 85 % 1009,1 hPa 0,0 mm 2,2 km/h (1 Bft) NW 323 ° 0 min 0,000 mm 0,7 UV-I 86 W/m² 5,3 °C 7,7 °C 6,4 km/h (2 Bft)
03.05.2019 17:48 7,7 °C 85 % 1009,0 hPa 0,0 mm 5,1 km/h (1 Bft) NW 319 ° 0 min 0,000 mm 0,6 UV-I 81 W/m² 5,3 °C 7,1 °C 12,9 km/h (3 Bft)
03.05.2019 17:49 7,7 °C 85 % 1009,0 hPa 0,0 mm 4,9 km/h (1 Bft) NW 311 ° 0 min 0,000 mm 0,5 UV-I 77 W/m² 5,3 °C 7,2 °C 6,4 km/h (2 Bft)
03.05.2019 17:50 7,7 °C 85 % 1009,0 hPa 0,0 mm 9,0 km/h (2 Bft) NW 304 ° 0 min 0,000 mm 0,5 UV-I 83 W/m² 5,3 °C 6,1 °C 16,1 km/h (3 Bft)
03.05.2019 17:51 7,7 °C 85 % 1009,1 hPa 0,0 mm 8,3 km/h (2 Bft) NW 324 ° 0 min 0,000 mm 0,6 UV-I 104 W/m² 5,3 °C 6,2 °C 14,5 km/h (3 Bft)
03.05.2019 17:52 7,6 °C 85 % 1009,0 hPa 0,0 mm 6,5 km/h (2 Bft) N 355 ° 0 min 0,000 mm 0,8 UV-I 144 W/m² 5,2 °C 6,6 °C 9,7 km/h (2 Bft)
03.05.2019 17:53 7,7 °C 85 % 1009,0 hPa 0,0 mm 8,3 km/h (2 Bft) N-NW 339 ° 0 min 0,000 mm 0,9 UV-I 156 W/m² 5,3 °C 6,2 °C 12,9 km/h (3 Bft)
03.05.2019 17:54 7,7 °C 85 % 1009,0 hPa 0,0 mm 7,0 km/h (2 Bft) NW 319 ° 0 min 0,000 mm 0,9 UV-I 137 W/m² 5,3 °C 6,6 °C 12,9 km/h (3 Bft)
03.05.2019 17:55 7,7 °C 86 % 1008,9 hPa 0,0 mm 7,0 km/h (2 Bft) NW 323 ° 0 min 0,000 mm 0,7 UV-I 120 W/m² 5,5 °C 6,6 °C 9,7 km/h (2 Bft)
03.05.2019 17:56 7,8 °C 86 % 1009,0 hPa 0,0 mm 4,5 km/h (1 Bft) N-NW 334 ° 0 min 0,000 mm 0,6 UV-I 120 W/m² 5,6 °C 7,8 °C 6,4 km/h (2 Bft)
03.05.2019 17:57 7,8 °C 85 % 1009,0 hPa 0,0 mm 4,5 km/h (1 Bft) NW 316 ° 0 min 0,000 mm 0,6 UV-I 93 W/m² 5,4 °C 7,8 °C 8,0 km/h (2 Bft)
03.05.2019 17:58 7,8 °C 85 % 1009,0 hPa 0,0 mm 5,0 km/h (1 Bft) N-NW 327 ° 0 min 0,000 mm 0,6 UV-I 91 W/m² 5,4 °C 7,3 °C 6,4 km/h (2 Bft)
03.05.2019 17:59 7,8 °C 85 % 1009,0 hPa 0,0 mm 5,4 km/h (1 Bft) N-NW 332 ° 0 min 0,000 mm 0,6 UV-I 104 W/m² 5,4 °C 7,1 °C 8,0 km/h (2 Bft)
03.05.2019 18:00 7,8 °C 85 % 1009,0 hPa 0,0 mm 4,7 km/h (1 Bft) NW 324 ° 0 min 0,000 mm 0,6 UV-I 105 W/m² 5,4 °C 7,4 °C 6,4 km/h (2 Bft)
03.05.2019 18:01 7,8 °C 85 % 1009,0 hPa 0,0 mm 4,4 km/h (1 Bft) W-NW 303 ° 0 min 0,051 mm 0,7 UV-I 111 W/m² 5,4 °C 7,8 °C 6,4 km/h (2 Bft)
03.05.2019 18:02 7,8 °C 85 % 1009,0 hPa 0,0 mm 5,2 km/h (1 Bft) NW 317 ° 0 min 0,000 mm 0,7 UV-I 118 W/m² 5,4 °C 7,2 °C 6,4 km/h (2 Bft)
03.05.2019 18:03 7,9 °C 85 % 1009,0 hPa 0,0 mm 5,2 km/h (1 Bft) N-NW 327 ° 0 min 0,000 mm 0,7 UV-I 113 W/m² 5,5 °C 7,3 °C 8,0 km/h (2 Bft)
03.05.2019 18:04 7,9 °C 85 % 1009,1 hPa 0,0 mm 6,0 km/h (2 Bft) NW 324 ° 0 min 0,000 mm 0,6 UV-I 98 W/m² 5,5 °C 7,1 °C 9,7 km/h (2 Bft)
03.05.2019 18:05 7,9 °C 85 % 1009,0 hPa 0,0 mm 4,9 km/h (1 Bft) NW 323 ° 0 min 0,000 mm 0,5 UV-I 83 W/m² 5,5 °C 7,4 °C 6,4 km/h (2 Bft)
03.05.2019 18:06 7,9 °C 85 % 1009,0 hPa 0,0 mm 4,6 km/h (1 Bft) NW 304 ° 0 min 0,000 mm 0,5 UV-I 77 W/m² 5,5 °C 7,5 °C 6,4 km/h (2 Bft)
03.05.2019 18:07 7,9 °C 85 % 1009,0 hPa 0,0 mm 2,5 km/h (1 Bft) NW 304 ° 0 min 0,000 mm 0,5 UV-I 69 W/m² 5,5 °C 7,9 °C 3,2 km/h (1 Bft)
03.05.2019 18:08 7,8 °C 85 % 1009,0 hPa 0,0 mm 2,3 km/h (1 Bft) NW 306 ° 0 min 0,000 mm 0,0 UV-I 67 W/m² 5,4 °C 7,8 °C 4,8 km/h (1 Bft)
03.05.2019 18:09 7,8 °C 85 % 1009,0 hPa 0,0 mm 3,1 km/h (1 Bft) NW 311 ° 0 min 0,000 mm 0,0 UV-I 72 W/m² 5,4 °C 7,8 °C 6,4 km/h (2 Bft)
03.05.2019 18:10 7,9 °C 85 % 1009,1 hPa 0,0 mm 4,7 km/h (1 Bft) NW 306 ° 0 min 0,000 mm 0,5 UV-I 84 W/m² 5,5 °C 7,5 °C 6,4 km/h (2 Bft)
03.05.2019 18:11 7,9 °C 85 % 1009,1 hPa 0,0 mm 6,1 km/h (2 Bft) NW 315 ° 0 min 0,000 mm 0,5 UV-I 104 W/m² 5,5 °C 7,0 °C 9,7 km/h (2 Bft)
03.05.2019 18:12 7,9 °C 85 % 1009,1 hPa 0,0 mm 5,3 km/h (1 Bft) W 275 ° 0 min 0,000 mm 0,6 UV-I 105 W/m² 5,5 °C 7,3 °C 8,0 km/h (2 Bft)
03.05.2019 18:13 8,0 °C 85 % 1009,1 hPa 0,0 mm 3,8 km/h (1 Bft) NW 315 ° 0 min 0,000 mm 0,6 UV-I 109 W/m² 5,6 °C 8,0 °C 12,9 km/h (3 Bft)
03.05.2019 18:14 8,0 °C 85 % 1009,0 hPa 0,0 mm 6,6 km/h (2 Bft) N-NW 329 ° 0 min 0,000 mm 0,6 UV-I 111 W/m² 5,6 °C 7,0 °C 11,3 km/h (2 Bft)
03.05.2019 18:15 8,1 °C 84 % 1009,1 hPa 0,0 mm 5,3 km/h (1 Bft) W 275 ° 0 min 0,000 mm 0,6 UV-I 116 W/m² 5,6 °C 7,5 °C 9,7 km/h (2 Bft)
03.05.2019 18:16 8,1 °C 84 % 1009,1 hPa 0,0 mm 7,8 km/h (2 Bft) W 275 ° 0 min 0,000 mm 0,6 UV-I 139 W/m² 5,6 °C 6,8 °C 12,9 km/h (3 Bft)
03.05.2019 18:17 8,1 °C 84 % 1009,0 hPa 0,0 mm 11,3 km/h (2 Bft) W-NW 288 ° 0 min 0,000 mm 0,6 UV-I 144 W/m² 5,6 °C 6,1 °C 16,1 km/h (3 Bft)
03.05.2019 18:18 8,1 °C 84 % 1009,0 hPa 0,0 mm 8,0 km/h (2 Bft) W 269 ° 0 min 0,000 mm 0,7 UV-I 151 W/m² 5,6 °C 6,8 °C 16,1 km/h (3 Bft)
03.05.2019 18:19 8,1 °C 83 % 1009,0 hPa 0,0 mm 11,4 km/h (2 Bft) NW 304 ° 0 min 0,000 mm 0,7 UV-I 148 W/m² 5,4 °C 6,1 °C 14,5 km/h (3 Bft)
03.05.2019 18:20 8,2 °C 83 % 1009,0 hPa 0,0 mm 6,1 km/h (2 Bft) NW 323 ° 0 min 0,000 mm 0,7 UV-I 148 W/m² 5,5 °C 7,4 °C 8,0 km/h (2 Bft)
03.05.2019 18:21 8,2 °C 84 % 1009,0 hPa 0,0 mm 8,2 km/h (2 Bft) N-NW 329 ° 0 min 0,000 mm 0,7 UV-I 155 W/m² 5,7 °C 6,8 °C 14,5 km/h (3 Bft)
03.05.2019 18:22 8,3 °C 84 % 1009,0 hPa 0,0 mm 4,7 km/h (1 Bft) W-NW 302 ° 0 min 0,000 mm 0,8 UV-I 178 W/m² 5,8 °C 7,9 °C 9,7 km/h (2 Bft)
03.05.2019 18:23 8,3 °C 84 % 1009,0 hPa 0,0 mm 6,0 km/h (2 Bft) N-NW 340 ° 0 min 0,000 mm 0,8 UV-I 229 W/m² 5,8 °C 7,5 °C 8,0 km/h (2 Bft)
03.05.2019 18:24 8,3 °C 83 % 1008,9 hPa 0,0 mm 4,7 km/h (1 Bft) W-NW 292 ° 0 min 0,000 mm 0,9 UV-I 214 W/m² 5,6 °C 7,9 °C 9,7 km/h (2 Bft)
03.05.2019 18:25 8,4 °C 84 % 1008,9 hPa 0,0 mm 5,3 km/h (1 Bft) W-NW 290 ° 0 min 0,000 mm 0,9 UV-I 197 W/m² 5,9 °C 7,8 °C 6,4 km/h (2 Bft)
03.05.2019 18:26 8,4 °C 83 % 1008,9 hPa 0,0 mm 7,1 km/h (2 Bft) W-NW 288 ° 0 min 0,000 mm 0,9 UV-I 185 W/m² 5,7 °C 7,3 °C 12,9 km/h (3 Bft)
03.05.2019 18:27 8,4 °C 83 % 1008,9 hPa 0,0 mm 4,7 km/h (1 Bft) NW 309 ° 0 min 0,000 mm 0,9 UV-I 169 W/m² 5,7 °C 8,0 °C 8,0 km/h (2 Bft)
03.05.2019 18:28 8,4 °C 83 % 1009,0 hPa 0,0 mm 5,0 km/h (1 Bft) NW 319 ° 0 min 0,000 mm 0,8 UV-I 171 W/m² 5,7 °C 7,9 °C 9,7 km/h (2 Bft)
03.05.2019 18:29 8,3 °C 82 % 1008,9 hPa 0,0 mm 6,3 km/h (2 Bft) NW 320 ° 0 min 0,000 mm 0,8 UV-I 174 W/m² 5,4 °C 7,4 °C 9,7 km/h (2 Bft)
03.05.2019 18:30 8,3 °C 82 % 1009,0 hPa 0,0 mm 4,8 km/h (1 Bft) N-NW 336 ° 0 min 0,000 mm 0,8 UV-I 183 W/m² 5,4 °C 7,9 °C 9,7 km/h (2 Bft)
03.05.2019 18:31 8,3 °C 82 % 1008,9 hPa 0,0 mm 6,2 km/h (2 Bft) W 279 ° 0 min 0,000 mm 0,8 UV-I 202 W/m² 5,4 °C 7,5 °C 12,9 km/h (3 Bft)
03.05.2019 18:32 8,3 °C 83 % 1008,9 hPa 0,0 mm 8,0 km/h (2 Bft) W-NW 302 ° 0 min 0,000 mm 0,8 UV-I 218 W/m² 5,6 °C 7,0 °C 14,5 km/h (3 Bft)
03.05.2019 18:33 8,4 °C 84 % 1009,0 hPa 0,0 mm 7,1 km/h (2 Bft) W-NW 286 ° 0 min 0,000 mm 0,8 UV-I 221 W/m² 5,9 °C 7,3 °C 9,7 km/h (2 Bft)
03.05.2019 18:34 8,3 °C 83 % 1009,0 hPa 0,0 mm 5,3 km/h (1 Bft) W-NW 294 ° 0 min 0,000 mm 0,7 UV-I 192 W/m² 5,6 °C 7,7 °C 8,0 km/h (2 Bft)
03.05.2019 18:35 8,3 °C 83 % 1009,0 hPa 0,0 mm 6,3 km/h (2 Bft) NW 316 ° 0 min 0,000 mm 0,7 UV-I 188 W/m² 5,6 °C 7,4 °C 12,9 km/h (3 Bft)
03.05.2019 18:36 8,3 °C 82 % 1008,9 hPa 0,0 mm 4,3 km/h (1 Bft) NW 315 ° 0 min 0,000 mm 0,7 UV-I 178 W/m² 5,4 °C 8,3 °C 8,0 km/h (2 Bft)
03.05.2019 18:37 8,3 °C 83 % 1009,0 hPa 0,0 mm 6,7 km/h (2 Bft) W-NW 291 ° 0 min 0,000 mm 0,7 UV-I 169 W/m² 5,6 °C 7,3 °C 9,7 km/h (2 Bft)
03.05.2019 18:38 8,3 °C 84 % 1009,0 hPa 0,0 mm 8,7 km/h (2 Bft) W-NW 287 ° 0 min 0,000 mm 0,7 UV-I 163 W/m² 5,8 °C 6,9 °C 12,9 km/h (3 Bft)
03.05.2019 18:39 8,3 °C 83 % 1008,9 hPa 0,0 mm 5,9 km/h (2 Bft) W-NW 294 ° 0 min 0,000 mm 0,7 UV-I 160 W/m² 5,6 °C 7,5 °C 8,0 km/h (2 Bft)
03.05.2019 18:40 8,3 °C 83 % 1008,9 hPa 0,0 mm 3,5 km/h (1 Bft) NW 323 ° 0 min 0,000 mm 0,7 UV-I 163 W/m² 5,6 °C 8,3 °C 4,8 km/h (1 Bft)
03.05.2019 18:41 8,3 °C 83 % 1008,9 hPa 0,0 mm 4,6 km/h (1 Bft) NW 317 ° 0 min 0,000 mm 0,7 UV-I 174 W/m² 5,6 °C 8,0 °C 6,4 km/h (2 Bft)
03.05.2019 18:42 8,3 °C 83 % 1008,9 hPa 0,0 mm 3,9 km/h (1 Bft) W 259 ° 0 min 0,000 mm 0,6 UV-I 172 W/m² 5,6 °C 8,3 °C 6,4 km/h (2 Bft)
03.05.2019 18:43 8,3 °C 83 % 1008,9 hPa 0,0 mm 5,7 km/h (1 Bft) W-SW 252 ° 0 min 0,000 mm 0,6 UV-I 165 W/m² 5,6 °C 7,6 °C 11,3 km/h (2 Bft)
03.05.2019 18:44 8,2 °C 82 % 1008,9 hPa 0,0 mm 5,6 km/h (1 Bft) W 279 ° 0 min 0,000 mm 0,6 UV-I 160 W/m² 5,3 °C 7,5 °C 6,4 km/h (2 Bft)
03.05.2019 18:45 8,2 °C 83 % 1008,9 hPa 0,0 mm 2,9 km/h (1 Bft) W 263 ° 0 min 0,000 mm 0,5 UV-I 148 W/m² 5,5 °C 8,2 °C 9,7 km/h (2 Bft)
03.05.2019 18:46 8,2 °C 83 % 1008,9 hPa 0,0 mm 4,6 km/h (1 Bft) SW 219 ° 0 min 0,000 mm 0,5 UV-I 116 W/m² 5,5 °C 7,9 °C 9,7 km/h (2 Bft)
03.05.2019 18:47 8,2 °C 83 % 1008,9 hPa 0,0 mm 6,6 km/h (2 Bft) W-NW 290 ° 0 min 0,000 mm 0,0 UV-I 107 W/m² 5,5 °C 7,2 °C 11,3 km/h (2 Bft)
03.05.2019 18:48 8,2 °C 83 % 1008,9 hPa 0,0 mm 2,4 km/h (1 Bft) W-NW 300 ° 0 min 0,000 mm 0,0 UV-I 105 W/m² 5,5 °C 8,2 °C 3,2 km/h (1 Bft)
03.05.2019 18:49 8,2 °C 83 % 1008,9 hPa 0,0 mm 0,6 km/h (0 Bft) W-NW 300 ° 0 min 0,000 mm 0,0 UV-I 107 W/m² 5,5 °C 8,2 °C 3,2 km/h (1 Bft)
03.05.2019 18:50 8,1 °C 82 % 1008,9 hPa 0,0 mm 1,1 km/h (1 Bft) W 271 ° 0 min 0,000 mm 0,0 UV-I 111 W/m² 5,2 °C 8,1 °C 4,8 km/h (1 Bft)
03.05.2019 18:51 8,1 °C 83 % 1008,9 hPa 0,0 mm 4,7 km/h (1 Bft) W-SW 250 ° 0 min 0,000 mm 0,0 UV-I 114 W/m² 5,4 °C 7,7 °C 6,4 km/h (2 Bft)
03.05.2019 18:52 8,1 °C 83 % 1008,9 hPa 0,0 mm 4,4 km/h (1 Bft) W 263 ° 0 min 0,000 mm 0,0 UV-I 120 W/m² 5,4 °C 8,1 °C 4,8 km/h (1 Bft)
03.05.2019 18:53 8,2 °C 83 % 1008,9 hPa 0,0 mm 5,3 km/h (1 Bft) W-NW 289 ° 0 min 0,000 mm 0,0 UV-I 125 W/m² 5,5 °C 7,6 °C 11,3 km/h (2 Bft)
03.05.2019 18:54 8,2 °C 83 % 1008,9 hPa 0,0 mm 3,7 km/h (1 Bft) W-NW 288 ° 0 min 0,000 mm 0,0 UV-I 120 W/m² 5,5 °C 8,2 °C 6,4 km/h (2 Bft)
03.05.2019 18:55 8,2 °C 83 % 1008,9 hPa 0,0 mm 2,9 km/h (1 Bft) W-NW 290 ° 0 min 0,000 mm 0,0 UV-I 114 W/m² 5,5 °C 8,2 °C 4,8 km/h (1 Bft)
03.05.2019 18:56 8,2 °C 83 % 1008,9 hPa 0,0 mm 1,8 km/h (1 Bft) W-NW 289 ° 0 min 0,000 mm 0,0 UV-I 114 W/m² 5,5 °C 8,2 °C 3,2 km/h (1 Bft)
03.05.2019 18:57 8,2 °C 83 % 1008,9 hPa 0,0 mm 1,4 km/h (1 Bft) W-NW 290 ° 0 min 0,000 mm 0,0 UV-I 114 W/m² 5,5 °C 8,2 °C 6,4 km/h (2 Bft)
03.05.2019 18:58 8,2 °C 83 % 1008,9 hPa 0,0 mm 5,8 km/h (2 Bft) NW 321 ° 0 min 0,000 mm 0,0 UV-I 123 W/m² 5,5 °C 7,5 °C 8,0 km/h (2 Bft)
03.05.2019 18:59 8,2 °C 83 % 1008,9 hPa 0,0 mm 5,2 km/h (1 Bft) NW 315 ° 0 min 0,000 mm 0,0 UV-I 118 W/m² 5,5 °C 7,6 °C 6,4 km/h (2 Bft)
03.05.2019 19:00 8,2 °C 83 % 1008,9 hPa 0,0 mm 2,2 km/h (1 Bft) NW 316 ° 0 min 0,000 mm 0,0 UV-I 105 W/m² 5,5 °C 8,2 °C 6,4 km/h (2 Bft)
03.05.2019 19:01 8,2 °C 82 % 1008,9 hPa 0,0 mm 3,5 km/h (1 Bft) NW 312 ° 0 min 0,076 mm 0,0 UV-I 95 W/m² 5,3 °C 8,2 °C 4,8 km/h (1 Bft)
03.05.2019 19:02 8,1 °C 83 % 1008,9 hPa 0,0 mm 5,2 km/h (1 Bft) N-NW 327 ° 0 min 0,000 mm 0,0 UV-I 79 W/m² 5,4 °C 7,5 °C 8,0 km/h (2 Bft)
03.05.2019 19:03 8,1 °C 83 % 1008,9 hPa 0,0 mm 4,0 km/h (1 Bft) NW 325 ° 0 min 0,000 mm 0,0 UV-I 58 W/m² 5,4 °C 8,1 °C 6,4 km/h (2 Bft)
03.05.2019 19:04 8,2 °C 83 % 1008,9 hPa 0,0 mm 3,3 km/h (1 Bft) NW 307 ° 0 min 0,000 mm 0,0 UV-I 49 W/m² 5,5 °C 8,2 °C 8,0 km/h (2 Bft)
03.05.2019 19:05 8,2 °C 83 % 1009,0 hPa 0,0 mm 4,1 km/h (1 Bft) W-NW 288 ° 0 min 0,000 mm 0,0 UV-I 44 W/m² 5,5 °C 8,2 °C 8,0 km/h (2 Bft)
03.05.2019 19:06 8,2 °C 83 % 1008,9 hPa 0,0 mm 3,6 km/h (1 Bft) W-NW 298 ° 0 min 0,000 mm 0,0 UV-I 40 W/m² 5,5 °C 8,2 °C 11,3 km/h (2 Bft)
03.05.2019 19:07 8,1 °C 83 % 1009,0 hPa 0,0 mm 5,0 km/h (1 Bft) W 274 ° 0 min 0,000 mm 0,0 UV-I 39 W/m² 5,4 °C 7,6 °C 9,7 km/h (2 Bft)
03.05.2019 19:08 8,1 °C 82 % 1008,9 hPa 0,0 mm 5,0 km/h (1 Bft) W-NW 282 ° 0 min 0,000 mm 0,0 UV-I 37 W/m² 5,2 °C 7,6 °C 6,4 km/h (2 Bft)
03.05.2019 19:09 8,0 °C 82 % 1009,0 hPa 0,0 mm 4,5 km/h (1 Bft) W 276 ° 0 min 0,000 mm 0,0 UV-I 35 W/m² 5,1 °C 8,0 °C 6,4 km/h (2 Bft)
03.05.2019 19:10 8,0 °C 83 % 1009,0 hPa 0,0 mm 3,8 km/h (1 Bft) W 277 ° 0 min 0,000 mm 0,0 UV-I 35 W/m² 5,3 °C 8,0 °C 6,4 km/h (2 Bft)
03.05.2019 19:11 7,9 °C 83 % 1008,9 hPa 0,0 mm 1,0 km/h (0 Bft) W 277 ° 0 min 0,000 mm 0,0 UV-I 33 W/m² 5,2 °C 7,9 °C 3,2 km/h (1 Bft)
03.05.2019 19:12 7,9 °C 83 % 1009,0 hPa 0,0 mm 5,1 km/h (1 Bft) W-NW 290 ° 0 min 0,000 mm 0,0 UV-I 33 W/m² 5,2 °C 7,3 °C 11,3 km/h (2 Bft)
03.05.2019 19:13 7,9 °C 83 % 1009,0 hPa 0,0 mm 5,4 km/h (1 Bft) W-NW 296 ° 0 min 0,000 mm 0,0 UV-I 33 W/m² 5,2 °C 7,2 °C 8,0 km/h (2 Bft)
03.05.2019 19:14 7,9 °C 83 % 1009,0 hPa 0,0 mm 5,3 km/h (1 Bft) W 281 ° 0 min 0,000 mm 0,0 UV-I 33 W/m² 5,2 °C 7,3 °C 6,4 km/h (2 Bft)
03.05.2019 19:15 7,9 °C 83 % 1009,0 hPa 0,0 mm 5,7 km/h (1 Bft) W-NW 296 ° 0 min 0,000 mm 0,0 UV-I 32 W/m² 5,2 °C 7,1 °C 9,7 km/h (2 Bft)
03.05.2019 19:16 7,9 °C 83 % 1009,0 hPa 0,0 mm 4,0 km/h (1 Bft) W-NW 296 ° 0 min 0,000 mm 0,0 UV-I 32 W/m² 5,2 °C 7,9 °C 6,4 km/h (2 Bft)
03.05.2019 19:17 7,9 °C 84 % 1009,1 hPa 0,0 mm 4,7 km/h (1 Bft) W-NW 291 ° 0 min 0,000 mm 0,0 UV-I 30 W/m² 5,4 °C 7,5 °C 9,7 km/h (2 Bft)
03.05.2019 19:18 7,9 °C 84 % 1009,1 hPa 0,0 mm 3,7 km/h (1 Bft) W-NW 298 ° 0 min 0,000 mm 0,0 UV-I 30 W/m² 5,4 °C 7,9 °C 6,4 km/h (2 Bft)
03.05.2019 19:19 7,9 °C 84 % 1009,0 hPa 0,0 mm 1,9 km/h (1 Bft) W-NW 299 ° 0 min 0,000 mm 0,0 UV-I 32 W/m² 5,4 °C 7,9 °C 4,8 km/h (1 Bft)
03.05.2019 19:20 7,9 °C 84 % 1009,1 hPa 0,0 mm 5,0 km/h (1 Bft) W-NW 288 ° 0 min 0,000 mm 0,0 UV-I 35 W/m² 5,4 °C 7,4 °C 6,4 km/h (2 Bft)
03.05.2019 19:21 7,9 °C 84 % 1009,0 hPa 0,0 mm 3,3 km/h (1 Bft) W 273 ° 0 min 0,000 mm 0,0 UV-I 40 W/m² 5,4 °C 7,9 °C 6,4 km/h (2 Bft)
03.05.2019 19:22 7,8 °C 84 % 1009,1 hPa 0,0 mm 0,8 km/h (0 Bft) W 273 ° 0 min 0,000 mm 0,0 UV-I 40 W/m² 5,3 °C 7,8 °C 1,6 km/h (1 Bft)
03.05.2019 19:23 7,8 °C 84 % 1009,1 hPa 0,0 mm 0,6 km/h (0 Bft) W 273 ° 0 min 0,000 mm 0,0 UV-I 40 W/m² 5,3 °C 7,8 °C 1,6 km/h (1 Bft)
03.05.2019 19:24 7,8 °C 83 % 1009,1 hPa 0,0 mm 3,4 km/h (1 Bft) W 281 ° 0 min 0,000 mm 0,0 UV-I 39 W/m² 5,1 °C 7,8 °C 4,8 km/h (1 Bft)
03.05.2019 19:25 7,8 °C 84 % 1009,1 hPa 0,0 mm 2,7 km/h (1 Bft) W-NW 282 ° 0 min 0,000 mm 0,0 UV-I 37 W/m² 5,3 °C 7,8 °C 3,2 km/h (1 Bft)
03.05.2019 19:26 7,8 °C 84 % 1009,1 hPa 0,0 mm 2,5 km/h (1 Bft) W-NW 287 ° 0 min 0,000 mm 0,0 UV-I 35 W/m² 5,3 °C 7,8 °C 4,8 km/h (1 Bft)
03.05.2019 19:27 7,9 °C 84 % 1009,1 hPa 0,0 mm 3,6 km/h (1 Bft) W-NW 286 ° 0 min 0,000 mm 0,0 UV-I 32 W/m² 5,4 °C 7,9 °C 4,8 km/h (1 Bft)
03.05.2019 19:28 7,9 °C 84 % 1009,1 hPa 0,0 mm 4,4 km/h (1 Bft) W-NW 298 ° 0 min 0,000 mm 0,0 UV-I 30 W/m² 5,4 °C 7,9 °C 6,4 km/h (2 Bft)
03.05.2019 19:29 7,8 °C 84 % 1009,1 hPa 0,0 mm 4,4 km/h (1 Bft) W-NW 291 ° 0 min 0,000 mm 0,0 UV-I 30 W/m² 5,3 °C 7,8 °C 8,0 km/h (2 Bft)
03.05.2019 19:30 7,8 °C 84 % 1009,1 hPa 0,0 mm 3,3 km/h (1 Bft) W-NW 298 ° 0 min 0,000 mm 0,0 UV-I 28 W/m² 5,3 °C 7,8 °C 4,8 km/h (1 Bft)
03.05.2019 19:31 7,8 °C 84 % 1009,1 hPa 0,0 mm 1,0 km/h (0 Bft) W-NW 298 ° 0 min 0,000 mm 0,0 UV-I 28 W/m² 5,3 °C 7,8 °C 3,2 km/h (1 Bft)
03.05.2019 19:32 7,8 °C 84 % 1009,2 hPa 0,0 mm 0,1 km/h (0 Bft) W-NW 298 ° 0 min 0,000 mm 0,0 UV-I 28 W/m² 5,3 °C 7,8 °C 1,6 km/h (1 Bft)
03.05.2019 19:33 7,8 °C 83 % 1009,1 hPa 0,0 mm 0,2 km/h (0 Bft) W-NW 298 ° 0 min 0,000 mm 0,0 UV-I 28 W/m² 5,1 °C 7,8 °C 1,6 km/h (1 Bft)
03.05.2019 19:34 7,8 °C 84 % 1009,1 hPa 0,0 mm 3,8 km/h (1 Bft) NW 305 ° 0 min 0,000 mm 0,0 UV-I 26 W/m² 5,3 °C 7,8 °C 6,4 km/h (2 Bft)
03.05.2019 19:35 7,8 °C 84 % 1009,1 hPa 0,0 mm 0,1 km/h (0 Bft) NW 305 ° 0 min 0,000 mm 0,0 UV-I 25 W/m² 5,3 °C 7,8 °C 1,6 km/h (1 Bft)
03.05.2019 19:36 7,8 °C 84 % 1009,1 hPa 0,0 mm 1,1 km/h (1 Bft) W-NW 284 ° 0 min 0,000 mm 0,0 UV-I 25 W/m² 5,3 °C 7,8 °C 4,8 km/h (1 Bft)
03.05.2019 19:37 7,8 °C 84 % 1009,1 hPa 0,0 mm 3,8 km/h (1 Bft) W 269 ° 0 min 0,000 mm 0,0 UV-I 23 W/m² 5,3 °C 7,8 °C 4,8 km/h (1 Bft)
03.05.2019 19:38 7,8 °C 84 % 1009,1 hPa 0,0 mm 2,6 km/h (1 Bft) W 269 ° 0 min 0,000 mm 0,0 UV-I 18 W/m² 5,3 °C 7,8 °C 4,8 km/h (1 Bft)
03.05.2019 19:39 7,8 °C 84 % 1009,1 hPa 0,0 mm 0,6 km/h (0 Bft) W 269 ° 0 min 0,000 mm 0,0 UV-I 16 W/m² 5,3 °C 7,8 °C 1,6 km/h (1 Bft)
03.05.2019 19:40 7,8 °C 84 % 1009,1 hPa 0,0 mm 2,2 km/h (1 Bft) W 269 ° 0 min 0,000 mm 0,0 UV-I 14 W/m² 5,3 °C 7,8 °C 3,2 km/h (1 Bft)
03.05.2019 19:41 7,8 °C 84 % 1009,1 hPa 0,0 mm 0,6 km/h (0 Bft) W 269 ° 0 min 0,000 mm 0,0 UV-I 12 W/m² 5,3 °C 7,8 °C 3,2 km/h (1 Bft)
03.05.2019 19:42 7,8 °C 84 % 1009,1 hPa 0,0 mm 1,4 km/h (1 Bft) W 269 ° 0 min 0,000 mm 0,0 UV-I 12 W/m² 5,3 °C 7,8 °C 3,2 km/h (1 Bft)
03.05.2019 19:43 7,8 °C 84 % 1009,1 hPa 0,0 mm 2,0 km/h (1 Bft) W 269 ° 0 min 0,000 mm 0,0 UV-I 11 W/m² 5,3 °C 7,8 °C 4,8 km/h (1 Bft)
03.05.2019 19:44 7,7 °C 84 % 1009,1 hPa 0,0 mm 2,1 km/h (1 Bft) W 269 ° 0 min 0,000 mm 0,0 UV-I 9 W/m² 5,2 °C 7,7 °C 3,2 km/h (1 Bft)
03.05.2019 19:45 7,7 °C 84 % 1009,1 hPa 0,0 mm 0,0 km/h (0 Bft) W 269 ° 0 min 0,000 mm 0,0 UV-I 9 W/m² 5,2 °C 7,7 °C 0,0 km/h (0 Bft)
03.05.2019 19:46 7,7 °C 84 % 1009,1 hPa 0,0 mm 0,0 km/h (0 Bft) W 269 ° 0 min 0,000 mm 0,0 UV-I 7 W/m² 5,2 °C 7,7 °C 0,0 km/h (0 Bft)
03.05.2019 19:47 7,7 °C 84 % 1009,1 hPa 0,0 mm 0,0 km/h (0 Bft) W 269 ° 0 min 0,000 mm 0,0 UV-I 7 W/m² 5,2 °C 7,7 °C 0,0 km/h (0 Bft)
03.05.2019 19:48 7,7 °C 84 % 1009,1 hPa 0,0 mm 1,5 km/h (1 Bft) W 269 ° 0 min 0,000 mm 0,0 UV-I 7 W/m² 5,2 °C 7,7 °C 3,2 km/h (1 Bft)
03.05.2019 19:49 7,7 °C 84 % 1009,1 hPa 0,0 mm 2,4 km/h (1 Bft) W 268 ° 0 min 0,000 mm 0,0 UV-I 7 W/m² 5,2 °C 7,7 °C 6,4 km/h (2 Bft)
03.05.2019 19:50 7,7 °C 84 % 1009,1 hPa 0,0 mm 1,9 km/h (1 Bft) W 267 ° 0 min 0,000 mm 0,0 UV-I 7 W/m² 5,2 °C 7,7 °C 3,2 km/h (1 Bft)
03.05.2019 19:51 7,7 °C 84 % 1009,0 hPa 0,0 mm 0,7 km/h (0 Bft) W 267 ° 0 min 0,000 mm 0,0 UV-I 7 W/m² 5,2 °C 7,7 °C 4,8 km/h (1 Bft)
03.05.2019 19:52 7,7 °C 85 % 1009,0 hPa 0,0 mm 3,1 km/h (1 Bft) W 268 ° 0 min 0,000 mm 0,0 UV-I 7 W/m² 5,3 °C 7,7 °C 4,8 km/h (1 Bft)
03.05.2019 19:53 7,6 °C 85 % 1009,0 hPa 0,0 mm 3,5 km/h (1 Bft) W 265 ° 0 min 0,000 mm 0,0 UV-I 7 W/m² 5,2 °C 7,6 °C 4,8 km/h (1 Bft)
03.05.2019 19:54 7,6 °C 85 % 1009,0 hPa 0,0 mm 2,5 km/h (1 Bft) W 262 ° 0 min 0,000 mm 0,0 UV-I 7 W/m² 5,2 °C 7,6 °C 4,8 km/h (1 Bft)
03.05.2019 19:55 7,6 °C 85 % 1009,0 hPa 0,0 mm 3,4 km/h (1 Bft) W 262 ° 0 min 0,000 mm 0,0 UV-I 7 W/m² 5,2 °C 7,6 °C 4,8 km/h (1 Bft)
03.05.2019 19:56 7,6 °C 85 % 1009,0 hPa 0,0 mm 2,9 km/h (1 Bft) W 261 ° 0 min 0,000 mm 0,0 UV-I 7 W/m² 5,2 °C 7,6 °C 4,8 km/h (1 Bft)
03.05.2019 19:57 7,6 °C 85 % 1009,0 hPa 0,0 mm 0,0 km/h (0 Bft) W 261 ° 0 min 0,000 mm 0,0 UV-I 9 W/m² 5,2 °C 7,6 °C 0,0 km/h (0 Bft)
03.05.2019 19:58 7,6 °C 85 % 1009,0 hPa 0,0 mm 0,0 km/h (0 Bft) W 261 ° 0 min 0,000 mm 0,0 UV-I 9 W/m² 5,2 °C 7,6 °C 0,0 km/h (0 Bft)
03.05.2019 19:59 7,6 °C 85 % 1009,0 hPa 0,0 mm 1,7 km/h (1 Bft) W 261 ° 0 min 0,000 mm 0,0 UV-I 9 W/m² 5,2 °C 7,6 °C 3,2 km/h (1 Bft)
03.05.2019 20:00 7,5 °C 85 % 1009,0 hPa 0,0 mm 0,0 km/h (0 Bft) W 262 ° 0 min 0,000 mm 0,0 UV-I 11 W/m² 5,1 °C 7,5 °C 0,0 km/h (0 Bft)
03.05.2019 20:01 7,5 °C 85 % 1009,0 hPa 0,0 mm 0,0 km/h (0 Bft) W 262 ° 0 min 0,025 mm 0,0 UV-I 11 W/m² 5,1 °C 7,5 °C 0,0 km/h (0 Bft)
03.05.2019 20:02 7,5 °C 86 % 1009,0 hPa 0,0 mm 0,0 km/h (0 Bft) W 262 ° 0 min 0,000 mm 0,0 UV-I 11 W/m² 5,3 °C 7,5 °C 0,0 km/h (0 Bft)
03.05.2019 20:03 7,5 °C 86 % 1009,0 hPa 0,0 mm 0,0 km/h (0 Bft) W 261 ° 0 min 0,000 mm 0,0 UV-I 11 W/m² 5,3 °C 7,5 °C 0,0 km/h (0 Bft)
03.05.2019 20:04 7,5 °C 85 % 1009,0 hPa 0,0 mm 0,0 km/h (0 Bft) W 261 ° 0 min 0,000 mm 0,0 UV-I 11 W/m² 5,1 °C 7,5 °C 0,0 km/h (0 Bft)
03.05.2019 20:05 7,5 °C 86 % 1009,0 hPa 0,0 mm 0,0 km/h (0 Bft) W 261 ° 0 min 0,000 mm 0,0 UV-I 9 W/m² 5,3 °C 7,5 °C 0,0 km/h (0 Bft)
03.05.2019 20:06 7,4 °C 86 % 1009,0 hPa 0,0 mm 0,0 km/h (0 Bft) W 261 ° 0 min 0,000 mm 0,0 UV-I 9 W/m² 5,2 °C 7,4 °C 0,0 km/h (0 Bft)
03.05.2019 20:07 7,4 °C 86 % 1009,0 hPa 0,0 mm 0,0 km/h (0 Bft) W 261 ° 0 min 0,000 mm 0,0 UV-I 9 W/m² 5,2 °C 7,4 °C 0,0 km/h (0 Bft)
03.05.2019 20:08 7,4 °C 86 % 1009,0 hPa 0,0 mm 0,0 km/h (0 Bft) W 261 ° 0 min 0,000 mm 0,0 UV-I 7 W/m² 5,2 °C 7,4 °C 0,0 km/h (0 Bft)
03.05.2019 20:09 7,4 °C 86 % 1009,0 hPa 0,0 mm 0,0 km/h (0 Bft) W 261 ° 0 min 0,000 mm 0,0 UV-I 7 W/m² 5,2 °C 7,4 °C 0,0 km/h (0 Bft)
03.05.2019 20:10 7,4 °C 86 % 1009,1 hPa 0,0 mm 0,0 km/h (0 Bft) W 261 ° 0 min 0,000 mm 0,0 UV-I 7 W/m² 5,2 °C 7,4 °C 0,0 km/h (0 Bft)
03.05.2019 20:11 7,4 °C 86 % 1009,0 hPa 0,0 mm 0,0 km/h (0 Bft) W 261 ° 0 min 0,000 mm 0,0 UV-I 5 W/m² 5,2 °C 7,4 °C 0,0 km/h (0 Bft)
03.05.2019 20:12 7,4 °C 86 % 1009,1 hPa 0,0 mm 0,0 km/h (0 Bft) W 261 ° 0 min 0,000 mm 0,0 UV-I 5 W/m² 5,2 °C 7,4 °C 0,0 km/h (0 Bft)
03.05.2019 20:13 7,4 °C 86 % 1009,0 hPa 0,0 mm 0,0 km/h (0 Bft) W-SW 238 ° 0 min 0,000 mm 0,0 UV-I 5 W/m² 5,2 °C 7,4 °C 0,0 km/h (0 Bft)
03.05.2019 20:14 7,4 °C 86 % 1009,1 hPa 0,0 mm 0,0 km/h (0 Bft) W-SW 238 ° 0 min 0,000 mm 0,0 UV-I 5 W/m² 5,2 °C 7,4 °C 0,0 km/h (0 Bft)
03.05.2019 20:15 7,4 °C 86 % 1009,1 hPa 0,0 mm 0,0 km/h (0 Bft) W-SW 238 ° 0 min 0,000 mm 0,0 UV-I 5 W/m² 5,2 °C 7,4 °C 0,0 km/h (0 Bft)
03.05.2019 20:16 7,4 °C 86 % 1009,0 hPa 0,0 mm 0,0 km/h (0 Bft) W-SW 238 ° 0 min 0,000 mm 0,0 UV-I 5 W/m² 5,2 °C 7,4 °C 0,0 km/h (0 Bft)
03.05.2019 20:17 7,4 °C 86 % 1009,1 hPa 0,0 mm 0,0 km/h (0 Bft) W-SW 238 ° 0 min 0,000 mm 0,0 UV-I 5 W/m² 5,2 °C 7,4 °C 0,0 km/h (0 Bft)
03.05.2019 20:18 7,4 °C 86 % 1009,1 hPa 0,0 mm 0,0 km/h (0 Bft) W-SW 238 ° 0 min 0,000 mm 0,0 UV-I 0 W/m² 5,2 °C 7,4 °C 0,0 km/h (0 Bft)
03.05.2019 20:19 7,3 °C 86 % 1009,1 hPa 0,0 mm 0,0 km/h (0 Bft) W-SW 238 ° 0 min 0,000 mm 0,0 UV-I 0 W/m² 5,1 °C 7,3 °C 0,0 km/h (0 Bft)
03.05.2019 20:20 7,3 °C 86 % 1009,1 hPa 0,0 mm 0,0 km/h (0 Bft) W-SW 238 ° 0 min 0,000 mm 0,0 UV-I 0 W/m² 5,1 °C 7,3 °C 0,0 km/h (0 Bft)
03.05.2019 20:21 7,3 °C 86 % 1009,1 hPa 0,0 mm 0,0 km/h (0 Bft) W-SW 238 ° 0 min 0,000 mm 0,0 UV-I 0 W/m² 5,1 °C 7,3 °C 0,0 km/h (0 Bft)
03.05.2019 20:22 7,3 °C 86 % 1009,2 hPa 0,0 mm 0,0 km/h (0 Bft) W-SW 238 ° 0 min 0,000 mm 0,0 UV-I 0 W/m² 5,1 °C 7,3 °C 0,0 km/h (0 Bft)
03.05.2019 20:23 7,3 °C 86 % 1009,1 hPa 0,0 mm 0,0 km/h (0 Bft) W-SW 238 ° 0 min 0,000 mm 0,0 UV-I 0 W/m² 5,1 °C 7,3 °C 0,0 km/h (0 Bft)
03.05.2019 20:24 7,3 °C 86 % 1009,1 hPa 0,0 mm 0,0 km/h (0 Bft) W-SW 238 ° 0 min 0,000 mm 0,0 UV-I 0 W/m² 5,1 °C 7,3 °C 0,0 km/h (0 Bft)
03.05.2019 20:25 7,3 °C 86 % 1009,2 hPa 0,0 mm 0,0 km/h (0 Bft) W-SW 238 ° 0 min 0,000 mm 0,0 UV-I 0 W/m² 5,1 °C 7,3 °C 0,0 km/h (0 Bft)
03.05.2019 20:26 7,3 °C 86 % 1009,2 hPa 0,0 mm 0,0 km/h (0 Bft) W-SW 238 ° 0 min 0,000 mm 0,0 UV-I 0 W/m² 5,1 °C 7,3 °C 0,0 km/h (0 Bft)
03.05.2019 20:27 7,3 °C 86 % 1009,2 hPa 0,0 mm 0,0 km/h (0 Bft) W-SW 238 ° 0 min 0,000 mm 0,0 UV-I 0 W/m² 5,1 °C 7,3 °C 0,0 km/h (0 Bft)
03.05.2019 20:28 7,3 °C 86 % 1009,2 hPa 0,0 mm 0,0 km/h (0 Bft) W-SW 238 ° 0 min 0,000 mm 0,0 UV-I 0 W/m² 5,1 °C 7,3 °C 0,0 km/h (0 Bft)
03.05.2019 20:29 7,3 °C 87 % 1009,2 hPa 0,0 mm 0,0 km/h (0 Bft) W-SW 238 ° 0 min 0,000 mm 0,0 UV-I 0 W/m² 5,3 °C 7,3 °C 0,0 km/h (0 Bft)
03.05.2019 20:30 7,3 °C 87 % 1009,2 hPa 0,0 mm 0,0 km/h (0 Bft) W-SW 238 ° 0 min 0,000 mm 0,0 UV-I 0 W/m² 5,3 °C 7,3 °C 0,0 km/h (0 Bft)
03.05.2019 20:31 7,3 °C 87 % 1009,3 hPa 0,0 mm 0,2 km/h (0 Bft) S-SW 213 ° 0 min 0,000 mm 0,0 UV-I 0 W/m² 5,3 °C 7,3 °C 1,6 km/h (1 Bft)
03.05.2019 20:32 7,3 °C 87 % 1009,3 hPa 0,0 mm 0,0 km/h (0 Bft) S-SW 213 ° 0 min 0,000 mm 0,0 UV-I 0 W/m² 5,3 °C 7,3 °C 0,0 km/h (0 Bft)
03.05.2019 20:33 7,3 °C 87 % 1009,3 hPa 0,0 mm 0,6 km/h (0 Bft) S-SW 213 ° 0 min 0,000 mm 0,0 UV-I 0 W/m² 5,3 °C 7,3 °C 1,6 km/h (1 Bft)
03.05.2019 20:34 7,2 °C 87 % 1009,3 hPa 0,0 mm 0,0 km/h (0 Bft) S-SW 213 ° 0 min 0,000 mm 0,0 UV-I 0 W/m² 5,2 °C 7,2 °C 0,0 km/h (0 Bft)
03.05.2019 20:35 7,2 °C 87 % 1009,3 hPa 0,0 mm 1,3 km/h (1 Bft) S-SW 213 ° 0 min 0,000 mm 0,0 UV-I 0 W/m² 5,2 °C 7,2 °C 4,8 km/h (1 Bft)
03.05.2019 20:36 7,2 °C 87 % 1009,3 hPa 0,0 mm 0,0 km/h (0 Bft) S-SW 213 ° 0 min 0,000 mm 0,0 UV-I 0 W/m² 5,2 °C 7,2 °C 0,0 km/h (0 Bft)
03.05.2019 20:37 7,2 °C 87 % 1009,3 hPa 0,0 mm 0,0 km/h (0 Bft) S-SW 213 ° 0 min 0,000 mm 0,0 UV-I 0 W/m² 5,2 °C 7,2 °C 0,0 km/h (0 Bft)
03.05.2019 20:38 7,2 °C 87 % 1009,3 hPa 0,0 mm 0,0 km/h (0 Bft) S-SW 213 ° 0 min 0,000 mm 0,0 UV-I 0 W/m² 5,2 °C 7,2 °C 0,0 km/h (0 Bft)
03.05.2019 20:39 7,2 °C 87 % 1009,3 hPa 0,0 mm 0,0 km/h (0 Bft) S-SW 213 ° 0 min 0,000 mm 0,0 UV-I 0 W/m² 5,2 °C 7,2 °C 0,0 km/h (0 Bft)
03.05.2019 20:40 7,2 °C 87 % 1009,3 hPa 0,0 mm 0,0 km/h (0 Bft) S-SW 213 ° 0 min 0,000 mm 0,0 UV-I 0 W/m² 5,2 °C 7,2 °C 0,0 km/h (0 Bft)
03.05.2019 20:41 7,2 °C 87 % 1009,4 hPa 0,0 mm 0,0 km/h (0 Bft) S-SW 213 ° 0 min 0,000 mm 0,0 UV-I 0 W/m² 5,2 °C 7,2 °C 0,0 km/h (0 Bft)
03.05.2019 20:42 7,2 °C 87 % 1009,3 hPa 0,0 mm 0,0 km/h (0 Bft) S-SW 213 ° 0 min 0,000 mm 0,0 UV-I 0 W/m² 5,2 °C 7,2 °C 0,0 km/h (0 Bft)
03.05.2019 20:43 7,2 °C 87 % 1009,4 hPa 0,0 mm 0,0 km/h (0 Bft) S-SW 213 ° 0 min 0,000 mm 0,0 UV-I 0 W/m² 5,2 °C 7,2 °C 0,0 km/h (0 Bft)
03.05.2019 20:44 7,2 °C 87 % 1009,4 hPa 0,0 mm 0,0 km/h (0 Bft) S-SW 213 ° 0 min 0,000 mm 0,0 UV-I 0 W/m² 5,2 °C 7,2 °C 0,0 km/h (0 Bft)
03.05.2019 20:45 7,2 °C 87 % 1009,4 hPa 0,0 mm 0,0 km/h (0 Bft) S-SW 213 ° 0 min 0,000 mm 0,0 UV-I 0 W/m² 5,2 °C 7,2 °C 0,0 km/h (0 Bft)
03.05.2019 20:46 7,2 °C 87 % 1009,4 hPa 0,0 mm 0,0 km/h (0 Bft) S-SW 213 ° 0 min 0,000 mm 0,0 UV-I 0 W/m² 5,2 °C 7,2 °C 0,0 km/h (0 Bft)
03.05.2019 20:47 7,2 °C 87 % 1009,4 hPa 0,0 mm 0,0 km/h (0 Bft) S-SW 213 ° 0 min 0,000 mm 0,0 UV-I 0 W/m² 5,2 °C 7,2 °C 0,0 km/h (0 Bft)
03.05.2019 20:48 7,1 °C 88 % 1009,4 hPa 0,0 mm 0,0 km/h (0 Bft) S-SW 212 ° 0 min 0,000 mm 0,0 UV-I 0 W/m² 5,2 °C 7,1 °C 0,0 km/h (0 Bft)
03.05.2019 20:49 7,1 °C 88 % 1009,4 hPa 0,0 mm 0,0 km/h (0 Bft) S-SW 212 ° 0 min 0,000 mm 0,0 UV-I 0 W/m² 5,2 °C 7,1 °C 0,0 km/h (0 Bft)
03.05.2019 20:50 7,1 °C 88 % 1009,5 hPa 0,0 mm 0,0 km/h (0 Bft) S-SW 212 ° 0 min 0,000 mm 0,0 UV-I 0 W/m² 5,2 °C 7,1 °C 0,0 km/h (0 Bft)
03.05.2019 20:51 7,1 °C 87 % 1009,5 hPa 0,0 mm 0,0 km/h (0 Bft) S-SW 212 ° 0 min 0,000 mm 0,0 UV-I 0 W/m² 5,1 °C 7,1 °C 0,0 km/h (0 Bft)
03.05.2019 20:52 7,1 °C 87 % 1009,4 hPa 0,0 mm 0,0 km/h (0 Bft) S-SW 212 ° 0 min 0,000 mm 0,0 UV-I 0 W/m² 5,1 °C 7,1 °C 0,0 km/h (0 Bft)
03.05.2019 20:53 7,1 °C 88 % 1009,5 hPa 0,0 mm 0,0 km/h (0 Bft) S-SW 212 ° 0 min 0,000 mm 0,0 UV-I 0 W/m² 5,2 °C 7,1 °C 0,0 km/h (0 Bft)
03.05.2019 20:54 7,1 °C 88 % 1009,6 hPa 0,0 mm 0,0 km/h (0 Bft) SW 214 ° 0 min 0,000 mm 0,0 UV-I 0 W/m² 5,2 °C 7,1 °C 0,0 km/h (0 Bft)
03.05.2019 20:55 7,1 °C 88 % 1009,5 hPa 0,0 mm 0,0 km/h (0 Bft) SW 214 ° 0 min 0,000 mm 0,0 UV-I 0 W/m² 5,2 °C 7,1 °C 0,0 km/h (0 Bft)
03.05.2019 20:56 7,1 °C 87 % 1009,5 hPa 0,0 mm 0,0 km/h (0 Bft) SW 214 ° 0 min 0,000 mm 0,0 UV-I 0 W/m² 5,1 °C 7,1 °C 0,0 km/h (0 Bft)
03.05.2019 20:57 7,1 °C 87 % 1009,5 hPa 0,0 mm 0,0 km/h (0 Bft) SW 214 ° 0 min 0,000 mm 0,0 UV-I 0 W/m² 5,1 °C 7,1 °C 0,0 km/h (0 Bft)
03.05.2019 20:58 7,1 °C 87 % 1009,5 hPa 0,0 mm 0,0 km/h (0 Bft) SW 214 ° 0 min 0,000 mm 0,0 UV-I 0 W/m² 5,1 °C 7,1 °C 0,0 km/h (0 Bft)
03.05.2019 20:59 7,1 °C 87 % 1009,5 hPa 0,0 mm 0,0 km/h (0 Bft) SW 214 ° 0 min 0,000 mm 0,0 UV-I 0 W/m² 5,1 °C 7,1 °C 0,0 km/h (0 Bft)
03.05.2019 21:00 7,1 °C 87 % 1009,5 hPa 0,0 mm 0,0 km/h (0 Bft) SW 214 ° 0 min 0,000 mm 0,0 UV-I 0 W/m² 5,1 °C 7,1 °C 0,0 km/h (0 Bft)
03.05.2019 21:01 7,1 °C 87 % 1009,5 hPa 0,0 mm 0,0 km/h (0 Bft) SW 214 ° 0 min 0,000 mm 0,0 UV-I 0 W/m² 5,1 °C 7,1 °C 0,0 km/h (0 Bft)
03.05.2019 21:02 7,1 °C 87 % 1009,6 hPa 0,0 mm 0,0 km/h (0 Bft) SW 214 ° 0 min 0,000 mm 0,0 UV-I 0 W/m² 5,1 °C 7,1 °C 0,0 km/h (0 Bft)
03.05.2019 21:03 7,1 °C 87 % 1009,6 hPa 0,0 mm 0,0 km/h (0 Bft) SW 214 ° 0 min 0,000 mm 0,0 UV-I 0 W/m² 5,1 °C 7,1 °C 0,0 km/h (0 Bft)
03.05.2019 21:04 7,1 °C 87 % 1009,6 hPa 0,0 mm 0,0 km/h (0 Bft) SW 214 ° 0 min 0,000 mm 0,0 UV-I 0 W/m² 5,1 °C 7,1 °C 0,0 km/h (0 Bft)
03.05.2019 21:05 7,1 °C 87 % 1009,6 hPa 0,0 mm 0,0 km/h (0 Bft) SW 225 ° 0 min 0,000 mm 0,0 UV-I 0 W/m² 5,1 °C 7,1 °C 0,0 km/h (0 Bft)
03.05.2019 21:06 7,1 °C 87 % 1009,7 hPa 0,0 mm 0,8 km/h (0 Bft) S-SW 194 ° 0 min 0,000 mm 0,0 UV-I 0 W/m² 5,1 °C 7,1 °C 3,2 km/h (1 Bft)
03.05.2019 21:07 7,1 °C 87 % 1009,7 hPa 0,0 mm 0,0 km/h (0 Bft) S-SW 194 ° 0 min 0,000 mm 0,0 UV-I 0 W/m² 5,1 °C 7,1 °C 0,0 km/h (0 Bft)
03.05.2019 21:08 7,1 °C 87 % 1009,7 hPa 0,0 mm 0,0 km/h (0 Bft) S-SW 194 ° 0 min 0,000 mm 0,0 UV-I 0 W/m² 5,1 °C 7,1 °C 0,0 km/h (0 Bft)
03.05.2019 21:09 7,1 °C 87 % 1009,7 hPa 0,0 mm 0,0 km/h (0 Bft) S-SW 194 ° 0 min 0,000 mm 0,0 UV-I 0 W/m² 5,1 °C 7,1 °C 0,0 km/h (0 Bft)
03.05.2019 21:10 7,1 °C 87 % 1009,6 hPa 0,0 mm 0,0 km/h (0 Bft) S-SW 194 ° 0 min 0,000 mm 0,0 UV-I 0 W/m² 5,1 °C 7,1 °C 0,0 km/h (0 Bft)
03.05.2019 21:11 7,1 °C 87 % 1009,7 hPa 0,0 mm 0,0 km/h (0 Bft) S-SW 194 ° 0 min 0,000 mm 0,0 UV-I 0 W/m² 5,1 °C 7,1 °C 0,0 km/h (0 Bft)
03.05.2019 21:12 7,1 °C 87 % 1009,7 hPa 0,0 mm 0,0 km/h (0 Bft) S-SW 194 ° 0 min 0,000 mm 0,0 UV-I 0 W/m² 5,1 °C 7,1 °C 0,0 km/h (0 Bft)
03.05.2019 21:13 7,1 °C 87 % 1009,7 hPa 0,0 mm 0,0 km/h (0 Bft) S-SW 194 ° 0 min 0,000 mm 0,0 UV-I 0 W/m² 5,1 °C 7,1 °C 0,0 km/h (0 Bft)
03.05.2019 21:14 7,1 °C 87 % 1009,6 hPa 0,0 mm 0,0 km/h (0 Bft) S-SW 195 ° 0 min 0,000 mm 0,0 UV-I 0 W/m² 5,1 °C 7,1 °C 0,0 km/h (0 Bft)
03.05.2019 21:15 7,1 °C 87 % 1009,6 hPa 0,0 mm 0,0 km/h (0 Bft) S-SW 195 ° 0 min 0,000 mm 0,0 UV-I 0 W/m² 5,1 °C 7,1 °C 0,0 km/h (0 Bft)
03.05.2019 21:16 7,1 °C 87 % 1009,7 hPa 0,0 mm 0,0 km/h (0 Bft) S-SW 195 ° 0 min 0,000 mm 0,0 UV-I 0 W/m² 5,1 °C 7,1 °C 0,0 km/h (0 Bft)
03.05.2019 21:17 7,1 °C 88 % 1009,7 hPa 0,0 mm 0,0 km/h (0 Bft) S-SW 195 ° 0 min 0,000 mm 0,0 UV-I 0 W/m² 5,2 °C 7,1 °C 0,0 km/h (0 Bft)
03.05.2019 21:18 7,1 °C 88 % 1009,7 hPa 0,0 mm 0,0 km/h (0 Bft) S-SW 195 ° 0 min 0,000 mm 0,0 UV-I 0 W/m² 5,2 °C 7,1 °C 0,0 km/h (0 Bft)
03.05.2019 21:19 7,1 °C 88 % 1009,7 hPa 0,0 mm 0,0 km/h (0 Bft) S-SW 195 ° 0 min 0,000 mm 0,0 UV-I 0 W/m² 5,2 °C 7,1 °C 0,0 km/h (0 Bft)
03.05.2019 21:20 7,1 °C 88 % 1009,7 hPa 0,0 mm 0,0 km/h (0 Bft) S-SW 195 ° 0 min 0,000 mm 0,0 UV-I 0 W/m² 5,2 °C 7,1 °C 0,0 km/h (0 Bft)
03.05.2019 21:21 7,1 °C 88 % 1009,7 hPa 0,0 mm 0,0 km/h (0 Bft) S-SW 195 ° 0 min 0,000 mm 0,0 UV-I 0 W/m² 5,2 °C 7,1 °C 0,0 km/h (0 Bft)
03.05.2019 21:22 7,1 °C 88 % 1009,7 hPa 0,0 mm 0,0 km/h (0 Bft) S-SW 195 ° 0 min 0,000 mm 0,0 UV-I 0 W/m² 5,2 °C 7,1 °C 0,0 km/h (0 Bft)
03.05.2019 21:23 7,1 °C 88 % 1009,7 hPa 0,0 mm 0,9 km/h (0 Bft) S-SW 195 ° 0 min 0,000 mm 0,0 UV-I 0 W/m² 5,2 °C 7,1 °C 3,2 km/h (1 Bft)
03.05.2019 21:24 7,1 °C 88 % 1009,7 hPa 0,0 mm 1,2 km/h (1 Bft) S-SW 195 ° 0 min 0,000 mm 0,0 UV-I 0 W/m² 5,2 °C 7,1 °C 3,2 km/h (1 Bft)
03.05.2019 21:25 7,1 °C 88 % 1009,7 hPa 0,0 mm 0,9 km/h (0 Bft) S-SW 195 ° 0 min 0,000 mm 0,0 UV-I 0 W/m² 5,2 °C 7,1 °C 3,2 km/h (1 Bft)
03.05.2019 21:26 7,1 °C 88 % 1009,7 hPa 0,0 mm 2,8 km/h (1 Bft) S-SW 195 ° 0 min 0,000 mm 0,0 UV-I 0 W/m² 5,2 °C 7,1 °C 4,8 km/h (1 Bft)
03.05.2019 21:27 7,1 °C 88 % 1009,7 hPa 0,0 mm 3,0 km/h (1 Bft) SW 216 ° 0 min 0,000 mm 0,0 UV-I 0 W/m² 5,2 °C 7,1 °C 6,4 km/h (2 Bft)
03.05.2019 21:28 7,1 °C 88 % 1009,7 hPa 0,0 mm 3,6 km/h (1 Bft) SW 216 ° 0 min 0,000 mm 0,0 UV-I 0 W/m² 5,2 °C 7,1 °C 4,8 km/h (1 Bft)
03.05.2019 21:29 7,1 °C 88 % 1009,7 hPa 0,0 mm 3,4 km/h (1 Bft) S-SW 205 ° 0 min 0,000 mm 0,0 UV-I 0 W/m² 5,2 °C 7,1 °C 4,8 km/h (1 Bft)
03.05.2019 21:30 7,1 °C 88 % 1009,7 hPa 0,0 mm 0,7 km/h (0 Bft) S-SW 205 ° 0 min 0,000 mm 0,0 UV-I 0 W/m² 5,2 °C 7,1 °C 3,2 km/h (1 Bft)
03.05.2019 21:31 7,1 °C 88 % 1009,7 hPa 0,0 mm 0,7 km/h (0 Bft) S-SW 204 ° 0 min 0,000 mm 0,0 UV-I 0 W/m² 5,2 °C 7,1 °C 1,6 km/h (1 Bft)
03.05.2019 21:32 7,1 °C 88 % 1009,7 hPa 0,0 mm 5,9 km/h (2 Bft) SW 228 ° 0 min 0,000 mm 0,0 UV-I 0 W/m² 5,2 °C 6,2 °C 9,7 km/h (2 Bft)
03.05.2019 21:33 7,0 °C 87 % 1009,7 hPa 0,0 mm 3,2 km/h (1 Bft) SW 228 ° 0 min 0,000 mm 0,0 UV-I 0 W/m² 5,0 °C 7,0 °C 4,8 km/h (1 Bft)
03.05.2019 21:34 7,0 °C 87 % 1009,7 hPa 0,0 mm 0,2 km/h (0 Bft) SW 228 ° 0 min 0,000 mm 0,0 UV-I 0 W/m² 5,0 °C 7,0 °C 1,6 km/h (1 Bft)
03.05.2019 21:35 7,0 °C 87 % 1009,7 hPa 0,0 mm 1,4 km/h (1 Bft) SW 228 ° 0 min 0,000 mm 0,0 UV-I 0 W/m² 5,0 °C 7,0 °C 3,2 km/h (1 Bft)
03.05.2019 21:36 7,1 °C 87 % 1009,7 hPa 0,0 mm 3,7 km/h (1 Bft) S-SW 210 ° 0 min 0,000 mm 0,0 UV-I 0 W/m² 5,1 °C 7,1 °C 4,8 km/h (1 Bft)
03.05.2019 21:37 7,1 °C 87 % 1009,7 hPa 0,0 mm 0,8 km/h (0 Bft) S-SW 210 ° 0 min 0,000 mm 0,0 UV-I 0 W/m² 5,1 °C 7,1 °C 3,2 km/h (1 Bft)
03.05.2019 21:38 7,1 °C 87 % 1009,7 hPa 0,0 mm 0,0 km/h (0 Bft) S-SW 210 ° 0 min 0,000 mm 0,0 UV-I 0 W/m² 5,1 °C 7,1 °C 0,0 km/h (0 Bft)
03.05.2019 21:39 7,1 °C 88 % 1009,7 hPa 0,0 mm 0,0 km/h (0 Bft) S-SW 210 ° 0 min 0,000 mm 0,0 UV-I 0 W/m² 5,2 °C 7,1 °C 0,0 km/h (0 Bft)
03.05.2019 21:40 7,0 °C 88 % 1009,7 hPa 0,0 mm 0,0 km/h (0 Bft) S-SW 210 ° 0 min 0,000 mm 0,0 UV-I 0 W/m² 5,2 °C 7,0 °C 0,0 km/h (0 Bft)
03.05.2019 21:41 7,0 °C 88 % 1009,7 hPa 0,0 mm 0,0 km/h (0 Bft) S-SW 210 ° 0 min 0,000 mm 0,0 UV-I 0 W/m² 5,2 °C 7,0 °C 0,0 km/h (0 Bft)
03.05.2019 21:42 6,9 °C 88 % 1009,7 hPa 0,0 mm 0,0 km/h (0 Bft) S-SW 210 ° 0 min 0,000 mm 0,0 UV-I 0 W/m² 5,1 °C 6,9 °C 0,0 km/h (0 Bft)
03.05.2019 21:43 6,9 °C 88 % 1009,8 hPa 0,0 mm 0,0 km/h (0 Bft) S-SW 210 ° 0 min 0,000 mm 0,0 UV-I 0 W/m² 5,1 °C 6,9 °C 0,0 km/h (0 Bft)
03.05.2019 21:44 6,9 °C 88 % 1009,7 hPa 0,0 mm 0,0 km/h (0 Bft) S-SW 210 ° 0 min 0,000 mm 0,0 UV-I 0 W/m² 5,1 °C 6,9 °C 0,0 km/h (0 Bft)
03.05.2019 21:45 6,9 °C 88 % 1009,7 hPa 0,0 mm 0,0 km/h (0 Bft) S-SW 210 ° 0 min 0,000 mm 0,0 UV-I 0 W/m² 5,1 °C 6,9 °C 0,0 km/h (0 Bft)
03.05.2019 21:46 6,9 °C 88 % 1009,8 hPa 0,0 mm 0,0 km/h (0 Bft) S-SW 210 ° 0 min 0,000 mm 0,0 UV-I 0 W/m² 5,1 °C 6,9 °C 0,0 km/h (0 Bft)
03.05.2019 21:47 6,9 °C 88 % 1009,8 hPa 0,0 mm 0,0 km/h (0 Bft) S-SW 210 ° 0 min 0,000 mm 0,0 UV-I 0 W/m² 5,1 °C 6,9 °C 0,0 km/h (0 Bft)
03.05.2019 21:48 6,9 °C 88 % 1009,8 hPa 0,0 mm 0,0 km/h (0 Bft) S-SW 211 ° 0 min 0,000 mm 0,0 UV-I 0 W/m² 5,1 °C 6,9 °C 0,0 km/h (0 Bft)
03.05.2019 21:49 6,9 °C 88 % 1009,8 hPa 0,0 mm 0,0 km/h (0 Bft) S-SW 211 ° 0 min 0,000 mm 0,0 UV-I 0 W/m² 5,1 °C 6,9 °C 0,0 km/h (0 Bft)
03.05.2019 21:50 6,9 °C 88 % 1009,8 hPa 0,0 mm 0,0 km/h (0 Bft) S-SW 211 ° 0 min 0,000 mm 0,0 UV-I 0 W/m² 5,1 °C 6,9 °C 0,0 km/h (0 Bft)
03.05.2019 21:51 6,9 °C 88 % 1009,9 hPa 0,0 mm 0,0 km/h (0 Bft) S-SW 211 ° 0 min 0,000 mm 0,0 UV-I 0 W/m² 5,1 °C 6,9 °C 0,0 km/h (0 Bft)
03.05.2019 21:52 6,9 °C 88 % 1009,8 hPa 0,0 mm 0,0 km/h (0 Bft) S-SW 211 ° 0 min 0,000 mm 0,0 UV-I 0 W/m² 5,1 °C 6,9 °C 0,0 km/h (0 Bft)
03.05.2019 21:53 6,9 °C 88 % 1009,8 hPa 0,0 mm 0,0 km/h (0 Bft) S-SW 211 ° 0 min 0,000 mm 0,0 UV-I 0 W/m² 5,1 °C 6,9 °C 0,0 km/h (0 Bft)
03.05.2019 21:54 6,9 °C 88 % 1009,8 hPa 0,0 mm 0,0 km/h (0 Bft) S-SW 211 ° 0 min 0,000 mm 0,0 UV-I 0 W/m² 5,1 °C 6,9 °C 0,0 km/h (0 Bft)
03.05.2019 21:55 6,9 °C 88 % 1009,9 hPa 0,0 mm 0,0 km/h (0 Bft) S-SW 211 ° 0 min 0,000 mm 0,0 UV-I 0 W/m² 5,1 °C 6,9 °C 0,0 km/h (0 Bft)
03.05.2019 21:56 6,8 °C 88 % 1009,9 hPa 0,0 mm 0,0 km/h (0 Bft) S-SW 211 ° 0 min 0,000 mm 0,0 UV-I 0 W/m² 5,0 °C 6,8 °C 0,0 km/h (0 Bft)
03.05.2019 21:57 6,8 °C 88 % 1009,9 hPa 0,0 mm 0,0 km/h (0 Bft) S-SW 211 ° 0 min 0,000 mm 0,0 UV-I 0 W/m² 5,0 °C 6,8 °C 0,0 km/h (0 Bft)
03.05.2019 21:58 6,8 °C 88 % 1009,8 hPa 0,0 mm 0,0 km/h (0 Bft) S-SW 211 ° 0 min 0,000 mm 0,0 UV-I 0 W/m² 5,0 °C 6,8 °C 0,0 km/h (0 Bft)
03.05.2019 21:59 6,8 °C 88 % 1009,8 hPa 0,0 mm 0,0 km/h (0 Bft) S-SW 211 ° 0 min 0,000 mm 0,0 UV-I 0 W/m² 5,0 °C 6,8 °C 0,0 km/h (0 Bft)
03.05.2019 22:00 6,8 °C 88 % 1009,8 hPa 0,0 mm 0,0 km/h (0 Bft) S-SW 211 ° 0 min 0,000 mm 0,0 UV-I 0 W/m² 5,0 °C 6,8 °C 0,0 km/h (0 Bft)
03.05.2019 22:01 6,8 °C 88 % 1009,8 hPa 0,0 mm 0,0 km/h (0 Bft) S-SW 211 ° 0 min 0,000 mm 0,0 UV-I 0 W/m² 5,0 °C 6,8 °C 0,0 km/h (0 Bft)
03.05.2019 22:02 6,7 °C 89 % 1009,8 hPa 0,0 mm 0,0 km/h (0 Bft) S-SW 211 ° 0 min 0,000 mm 0,0 UV-I 0 W/m² 5,0 °C 6,7 °C 0,0 km/h (0 Bft)
03.05.2019 22:03 6,7 °C 89 % 1009,8 hPa 0,0 mm 0,0 km/h (0 Bft) S-SW 211 ° 0 min 0,000 mm 0,0 UV-I 0 W/m² 5,0 °C 6,7 °C 0,0 km/h (0 Bft)
03.05.2019 22:04 6,7 °C 89 % 1009,8 hPa 0,0 mm 0,0 km/h (0 Bft) S-SW 211 ° 0 min 0,000 mm 0,0 UV-I 0 W/m² 5,0 °C 6,7 °C 0,0 km/h (0 Bft)
03.05.2019 22:05 6,7 °C 89 % 1009,8 hPa 0,0 mm 0,0 km/h (0 Bft) S-SW 211 ° 0 min 0,000 mm 0,0 UV-I 0 W/m² 5,0 °C 6,7 °C 0,0 km/h (0 Bft)
03.05.2019 22:06 6,7 °C 89 % 1009,8 hPa 0,0 mm 0,0 km/h (0 Bft) S-SW 211 ° 0 min 0,000 mm 0,0 UV-I 0 W/m² 5,0 °C 6,7 °C 0,0 km/h (0 Bft)
03.05.2019 22:07 6,7 °C 89 % 1009,9 hPa 0,0 mm 0,0 km/h (0 Bft) S-SW 211 ° 0 min 0,000 mm 0,0 UV-I 0 W/m² 5,0 °C 6,7 °C 0,0 km/h (0 Bft)
03.05.2019 22:08 6,7 °C 89 % 1009,8 hPa 0,0 mm 0,0 km/h (0 Bft) S-SW 211 ° 0 min 0,000 mm 0,0 UV-I 0 W/m² 5,0 °C 6,7 °C 0,0 km/h (0 Bft)
03.05.2019 22:09 6,7 °C 89 % 1009,8 hPa 0,0 mm 0,0 km/h (0 Bft) S-SW 211 ° 0 min 0,000 mm 0,0 UV-I 0 W/m² 5,0 °C 6,7 °C 0,0 km/h (0 Bft)
03.05.2019 22:10 6,7 °C 89 % 1009,8 hPa 0,0 mm 0,0 km/h (0 Bft) S-SW 211 ° 0 min 0,000 mm 0,0 UV-I 0 W/m² 5,0 °C 6,7 °C 0,0 km/h (0 Bft)
03.05.2019 22:11 6,7 °C 89 % 1009,8 hPa 0,0 mm 0,0 km/h (0 Bft) S-SW 211 ° 0 min 0,000 mm 0,0 UV-I 0 W/m² 5,0 °C 6,7 °C 0,0 km/h (0 Bft)
03.05.2019 22:12 6,7 °C 89 % 1009,8 hPa 0,0 mm 0,0 km/h (0 Bft) S-SW 211 ° 0 min 0,000 mm 0,0 UV-I 0 W/m² 5,0 °C 6,7 °C 0,0 km/h (0 Bft)
03.05.2019 22:13 6,7 °C 88 % 1009,8 hPa 0,0 mm 0,0 km/h (0 Bft) S-SW 211 ° 0 min 0,000 mm 0,0 UV-I 0 W/m² 4,9 °C 6,7 °C 0,0 km/h (0 Bft)
03.05.2019 22:14 6,7 °C 88 % 1009,8 hPa 0,0 mm 0,0 km/h (0 Bft) S-SW 211 ° 0 min 0,000 mm 0,0 UV-I 0 W/m² 4,9 °C 6,7 °C 0,0 km/h (0 Bft)
03.05.2019 22:15 6,7 °C 88 % 1009,8 hPa 0,0 mm 0,0 km/h (0 Bft) S-SW 211 ° 0 min 0,000 mm 0,0 UV-I 0 W/m² 4,9 °C 6,7 °C 0,0 km/h (0 Bft)
03.05.2019 22:16 6,7 °C 88 % 1009,8 hPa 0,0 mm 0,0 km/h (0 Bft) S-SW 211 ° 0 min 0,000 mm 0,0 UV-I 0 W/m² 4,9 °C 6,7 °C 0,0 km/h (0 Bft)
03.05.2019 22:17 6,7 °C 89 % 1009,8 hPa 0,0 mm 0,0 km/h (0 Bft) S-SW 211 ° 0 min 0,000 mm 0,0 UV-I 0 W/m² 5,0 °C 6,7 °C 0,0 km/h (0 Bft)
03.05.2019 22:18 6,7 °C 89 % 1009,9 hPa 0,0 mm 0,0 km/h (0 Bft) S-SW 211 ° 0 min 0,000 mm 0,0 UV-I 0 W/m² 5,0 °C 6,7 °C 0,0 km/h (0 Bft)
03.05.2019 22:19 6,7 °C 89 % 1009,8 hPa 0,0 mm 0,0 km/h (0 Bft) S-SW 211 ° 0 min 0,000 mm 0,0 UV-I 0 W/m² 5,0 °C 6,7 °C 0,0 km/h (0 Bft)
03.05.2019 22:20 6,7 °C 89 % 1009,8 hPa 0,0 mm 0,0 km/h (0 Bft) S-SW 211 ° 0 min 0,000 mm 0,0 UV-I 0 W/m² 5,0 °C 6,7 °C 0,0 km/h (0 Bft)
03.05.2019 22:21 6,7 °C 89 % 1009,8 hPa 0,0 mm 0,0 km/h (0 Bft) S-SW 211 ° 0 min 0,000 mm 0,0 UV-I 0 W/m² 5,0 °C 6,7 °C 0,0 km/h (0 Bft)
03.05.2019 22:22 6,7 °C 89 % 1009,8 hPa 0,0 mm 0,0 km/h (0 Bft) S-SW 211 ° 0 min 0,000 mm 0,0 UV-I 0 W/m² 5,0 °C 6,7 °C 0,0 km/h (0 Bft)
03.05.2019 22:23 6,7 °C 89 % 1009,8 hPa 0,0 mm 0,0 km/h (0 Bft) S-SW 211 ° 0 min 0,000 mm 0,0 UV-I 0 W/m² 5,0 °C 6,7 °C 0,0 km/h (0 Bft)
03.05.2019 22:24 6,6 °C 89 % 1009,8 hPa 0,0 mm 0,0 km/h (0 Bft) S-SW 211 ° 0 min 0,000 mm 0,0 UV-I 0 W/m² 4,9 °C 6,6 °C 0,0 km/h (0 Bft)
03.05.2019 22:25 6,6 °C 89 % 1009,8 hPa 0,0 mm 0,0 km/h (0 Bft) S-SW 211 ° 0 min 0,000 mm 0,0 UV-I 0 W/m² 4,9 °C 6,6 °C 0,0 km/h (0 Bft)
03.05.2019 22:26 6,6 °C 89 % 1009,8 hPa 0,0 mm 0,0 km/h (0 Bft) S-SW 211 ° 0 min 0,000 mm 0,0 UV-I 0 W/m² 4,9 °C 6,6 °C 0,0 km/h (0 Bft)
03.05.2019 22:27 6,6 °C 89 % 1009,8 hPa 0,0 mm 0,0 km/h (0 Bft) S-SW 210 ° 0 min 0,000 mm 0,0 UV-I 0 W/m² 4,9 °C 6,6 °C 0,0 km/h (0 Bft)
03.05.2019 22:28 6,6 °C 89 % 1009,8 hPa 0,0 mm 0,0 km/h (0 Bft) S-SW 210 ° 0 min 0,000 mm 0,0 UV-I 0 W/m² 4,9 °C 6,6 °C 0,0 km/h (0 Bft)
03.05.2019 22:29 6,5 °C 89 % 1009,8 hPa 0,0 mm 0,0 km/h (0 Bft) S-SW 210 ° 0 min 0,000 mm 0,0 UV-I 0 W/m² 4,8 °C 6,5 °C 0,0 km/h (0 Bft)
03.05.2019 22:30 6,5 °C 89 % 1009,8 hPa 0,0 mm 0,0 km/h (0 Bft) S-SW 210 ° 0 min 0,000 mm 0,0 UV-I 0 W/m² 4,8 °C 6,5 °C 0,0 km/h (0 Bft)
03.05.2019 22:31 6,4 °C 89 % 1009,8 hPa 0,0 mm 0,0 km/h (0 Bft) S-SW 210 ° 0 min 0,000 mm 0,0 UV-I 0 W/m² 4,7 °C 6,4 °C 0,0 km/h (0 Bft)
03.05.2019 22:32 6,4 °C 90 % 1009,8 hPa 0,0 mm 0,0 km/h (0 Bft) S-SW 210 ° 0 min 0,000 mm 0,0 UV-I 0 W/m² 4,9 °C 6,4 °C 0,0 km/h (0 Bft)
03.05.2019 22:33 6,4 °C 90 % 1009,8 hPa 0,0 mm 0,0 km/h (0 Bft) S-SW 210 ° 0 min 0,000 mm 0,0 UV-I 0 W/m² 4,9 °C 6,4 °C 0,0 km/h (0 Bft)
03.05.2019 22:34 6,3 °C 90 % 1009,8 hPa 0,0 mm 0,0 km/h (0 Bft) S-SW 210 ° 0 min 0,000 mm 0,0 UV-I 0 W/m² 4,8 °C 6,3 °C 0,0 km/h (0 Bft)
03.05.2019 22:35 6,3 °C 90 % 1009,8 hPa 0,0 mm 0,0 km/h (0 Bft) S-SW 210 ° 0 min 0,000 mm 0,0 UV-I 0 W/m² 4,8 °C 6,3 °C 0,0 km/h (0 Bft)
03.05.2019 22:36 6,3 °C 90 % 1009,7 hPa 0,0 mm 0,0 km/h (0 Bft) S-SW 210 ° 0 min 0,000 mm 0,0 UV-I 0 W/m² 4,8 °C 6,3 °C 0,0 km/h (0 Bft)
03.05.2019 22:37 6,3 °C 90 % 1009,8 hPa 0,0 mm 0,0 km/h (0 Bft) S-SW 210 ° 0 min 0,000 mm 0,0 UV-I 0 W/m² 4,8 °C 6,3 °C 0,0 km/h (0 Bft)
03.05.2019 22:38 6,2 °C 90 % 1009,8 hPa 0,0 mm 0,0 km/h (0 Bft) S-SW 210 ° 0 min 0,000 mm 0,0 UV-I 0 W/m² 4,7 °C 6,2 °C 0,0 km/h (0 Bft)
03.05.2019 22:39 6,2 °C 90 % 1009,7 hPa 0,0 mm 0,0 km/h (0 Bft) S-SW 210 ° 0 min 0,000 mm 0,0 UV-I 0 W/m² 4,7 °C 6,2 °C 0,0 km/h (0 Bft)
03.05.2019 22:40 6,1 °C 91 % 1009,7 hPa 0,0 mm 0,0 km/h (0 Bft) S-SW 210 ° 0 min 0,000 mm 0,0 UV-I 0 W/m² 4,7 °C 6,1 °C 0,0 km/h (0 Bft)
03.05.2019 22:41 6,1 °C 90 % 1009,7 hPa 0,0 mm 0,0 km/h (0 Bft) S-SW 210 ° 0 min 0,000 mm 0,0 UV-I 0 W/m² 4,6 °C 6,1 °C 0,0 km/h (0 Bft)
03.05.2019 22:42 6,1 °C 90 % 1009,7 hPa 0,0 mm 0,0 km/h (0 Bft) S-SW 210 ° 0 min 0,000 mm 0,0 UV-I 0 W/m² 4,6 °C 6,1 °C 0,0 km/h (0 Bft)
03.05.2019 22:43 6,0 °C 91 % 1009,7 hPa 0,0 mm 0,0 km/h (0 Bft) S-SW 210 ° 0 min 0,000 mm 0,0 UV-I 0 W/m² 4,6 °C 6,0 °C 0,0 km/h (0 Bft)
03.05.2019 22:44 5,9 °C 91 % 1009,7 hPa 0,0 mm 0,0 km/h (0 Bft) S-SW 210 ° 0 min 0,000 mm 0,0 UV-I 0 W/m² 4,5 °C 5,9 °C 0,0 km/h (0 Bft)
03.05.2019 22:45 5,9 °C 91 % 1009,7 hPa 0,0 mm 0,0 km/h (0 Bft) S-SW 210 ° 0 min 0,000 mm 0,0 UV-I 0 W/m² 4,5 °C 5,9 °C 0,0 km/h (0 Bft)
03.05.2019 22:46 5,9 °C 91 % 1009,7 hPa 0,0 mm 0,0 km/h (0 Bft) S-SW 210 ° 0 min 0,000 mm 0,0 UV-I 0 W/m² 4,5 °C 5,9 °C 0,0 km/h (0 Bft)
03.05.2019 22:47 5,9 °C 91 % 1009,7 hPa 0,0 mm 0,0 km/h (0 Bft) S-SW 210 ° 0 min 0,000 mm 0,0 UV-I 0 W/m² 4,5 °C 5,9 °C 0,0 km/h (0 Bft)
03.05.2019 22:48 5,9 °C 91 % 1009,7 hPa 0,0 mm 0,0 km/h (0 Bft) S-SW 210 ° 0 min 0,000 mm 0,0 UV-I 0 W/m² 4,5 °C 5,9 °C 0,0 km/h (0 Bft)
03.05.2019 22:49 5,8 °C 91 % 1009,7 hPa 0,0 mm 0,0 km/h (0 Bft) S-SW 210 ° 0 min 0,000 mm 0,0 UV-I 0 W/m² 4,4 °C 5,8 °C 0,0 km/h (0 Bft)
03.05.2019 22:50 5,8 °C 91 % 1009,7 hPa 0,0 mm 0,0 km/h (0 Bft) S-SW 210 ° 0 min 0,000 mm 0,0 UV-I 0 W/m² 4,4 °C 5,8 °C 0,0 km/h (0 Bft)
03.05.2019 22:51 5,8 °C 91 % 1009,7 hPa 0,0 mm 0,0 km/h (0 Bft) S-SW 210 ° 0 min 0,000 mm 0,0 UV-I 0 W/m² 4,4 °C 5,8 °C 0,0 km/h (0 Bft)
03.05.2019 22:52 5,8 °C 91 % 1009,7 hPa 0,0 mm 0,0 km/h (0 Bft) S-SW 210 ° 0 min 0,000 mm 0,0 UV-I 0 W/m² 4,4 °C 5,8 °C 0,0 km/h (0 Bft)
03.05.2019 22:53 5,8 °C 91 % 1009,7 hPa 0,0 mm 0,0 km/h (0 Bft) S-SW 210 ° 0 min 0,000 mm 0,0 UV-I 0 W/m² 4,4 °C 5,8 °C 0,0 km/h (0 Bft)
03.05.2019 22:54 5,7 °C 91 % 1009,7 hPa 0,0 mm 0,0 km/h (0 Bft) S-SW 210 ° 0 min 0,000 mm 0,0 UV-I 0 W/m² 4,3 °C 5,7 °C 0,0 km/h (0 Bft)
03.05.2019 22:55 5,7 °C 91 % 1009,7 hPa 0,0 mm 0,0 km/h (0 Bft) S-SW 210 ° 0 min 0,000 mm 0,0 UV-I 0 W/m² 4,3 °C 5,7 °C 0,0 km/h (0 Bft)
03.05.2019 22:56 5,6 °C 91 % 1009,7 hPa 0,0 mm 0,0 km/h (0 Bft) S-SW 210 ° 0 min 0,000 mm 0,0 UV-I 0 W/m² 4,2 °C 5,6 °C 0,0 km/h (0 Bft)
03.05.2019 22:57 5,6 °C 91 % 1009,7 hPa 0,0 mm 0,0 km/h (0 Bft) S-SW 210 ° 0 min 0,000 mm 0,0 UV-I 0 W/m² 4,2 °C 5,6 °C 0,0 km/h (0 Bft)
03.05.2019 22:58 5,5 °C 91 % 1009,7 hPa 0,0 mm 0,0 km/h (0 Bft) S-SW 210 ° 0 min 0,000 mm 0,0 UV-I 0 W/m² 4,2 °C 5,5 °C 0,0 km/h (0 Bft)
03.05.2019 22:59 5,5 °C 91 % 1009,7 hPa 0,0 mm 0,0 km/h (0 Bft) S-SW 210 ° 0 min 0,000 mm 0,0 UV-I 0 W/m² 4,2 °C 5,5 °C 0,0 km/h (0 Bft)
03.05.2019 23:00 5,5 °C 91 % 1009,7 hPa 0,0 mm 0,0 km/h (0 Bft) S-SW 210 ° 0 min 0,000 mm 0,0 UV-I 0 W/m² 4,2 °C 5,5 °C 0,0 km/h (0 Bft)
03.05.2019 23:01 5,5 °C 91 % 1009,7 hPa 0,0 mm 0,0 km/h (0 Bft) S-SW 210 ° 0 min 0,000 mm 0,0 UV-I 0 W/m² 4,2 °C 5,5 °C 0,0 km/h (0 Bft)
03.05.2019 23:02 5,5 °C 91 % 1009,7 hPa 0,0 mm 0,0 km/h (0 Bft) S-SW 210 ° 0 min 0,000 mm 0,0 UV-I 0 W/m² 4,2 °C 5,5 °C 0,0 km/h (0 Bft)
03.05.2019 23:03 5,4 °C 91 % 1009,7 hPa 0,0 mm 0,0 km/h (0 Bft) S-SW 210 ° 0 min 0,000 mm 0,0 UV-I 0 W/m² 4,1 °C 5,4 °C 0,0 km/h (0 Bft)
03.05.2019 23:04 5,5 °C 91 % 1009,7 hPa 0,0 mm 0,0 km/h (0 Bft) S-SW 210 ° 0 min 0,000 mm 0,0 UV-I 0 W/m² 4,2 °C 5,5 °C 0,0 km/h (0 Bft)
03.05.2019 23:05 5,5 °C 91 % 1009,7 hPa 0,0 mm 0,0 km/h (0 Bft) S-SW 210 ° 0 min 0,000 mm 0,0 UV-I 0 W/m² 4,2 °C 5,5 °C 0,0 km/h (0 Bft)
03.05.2019 23:06 5,6 °C 92 % 1009,7 hPa 0,0 mm 0,0 km/h (0 Bft) S-SW 210 ° 0 min 0,000 mm 0,0 UV-I 0 W/m² 4,4 °C 5,6 °C 0,0 km/h (0 Bft)
03.05.2019 23:07 5,6 °C 92 % 1009,7 hPa 0,0 mm 0,0 km/h (0 Bft) S-SW 210 ° 0 min 0,000 mm 0,0 UV-I 0 W/m² 4,4 °C 5,6 °C 0,0 km/h (0 Bft)
03.05.2019 23:08 5,6 °C 92 % 1009,7 hPa 0,0 mm 0,0 km/h (0 Bft) S-SW 210 ° 0 min 0,000 mm 0,0 UV-I 0 W/m² 4,4 °C 5,6 °C 0,0 km/h (0 Bft)
03.05.2019 23:09 5,6 °C 92 % 1009,7 hPa 0,0 mm 0,0 km/h (0 Bft) S-SW 210 ° 0 min 0,000 mm 0,0 UV-I 0 W/m² 4,4 °C 5,6 °C 0,0 km/h (0 Bft)
03.05.2019 23:10 5,6 °C 92 % 1009,7 hPa 0,0 mm 0,0 km/h (0 Bft) S-SW 210 ° 0 min 0,000 mm 0,0 UV-I 0 W/m² 4,4 °C 5,6 °C 0,0 km/h (0 Bft)
03.05.2019 23:11 5,6 °C 92 % 1009,7 hPa 0,0 mm 0,0 km/h (0 Bft) S-SW 210 ° 0 min 0,000 mm 0,0 UV-I 0 W/m² 4,4 °C 5,6 °C 0,0 km/h (0 Bft)
03.05.2019 23:12 5,6 °C 92 % 1009,8 hPa 0,0 mm 0,0 km/h (0 Bft) S-SW 210 ° 0 min 0,000 mm 0,0 UV-I 0 W/m² 4,4 °C 5,6 °C 0,0 km/h (0 Bft)
03.05.2019 23:13 5,6 °C 92 % 1009,8 hPa 0,0 mm 0,0 km/h (0 Bft) S-SW 210 ° 0 min 0,000 mm 0,0 UV-I 0 W/m² 4,4 °C 5,6 °C 0,0 km/h (0 Bft)
03.05.2019 23:14 5,6 °C 92 % 1009,8 hPa 0,0 mm 0,0 km/h (0 Bft) S-SW 210 ° 0 min 0,000 mm 0,0 UV-I 0 W/m² 4,4 °C 5,6 °C 0,0 km/h (0 Bft)
03.05.2019 23:15 5,6 °C 92 % 1009,8 hPa 0,0 mm 0,0 km/h (0 Bft) S-SW 210 ° 0 min 0,000 mm 0,0 UV-I 0 W/m² 4,4 °C 5,6 °C 0,0 km/h (0 Bft)
03.05.2019 23:16 5,6 °C 92 % 1009,8 hPa 0,0 mm 0,0 km/h (0 Bft) S-SW 210 ° 0 min 0,000 mm 0,0 UV-I 0 W/m² 4,4 °C 5,6 °C 0,0 km/h (0 Bft)
03.05.2019 23:17 5,6 °C 92 % 1009,8 hPa 0,0 mm 0,0 km/h (0 Bft) S-SW 210 ° 0 min 0,000 mm 0,0 UV-I 0 W/m² 4,4 °C 5,6 °C 0,0 km/h (0 Bft)
03.05.2019 23:18 5,6 °C 92 % 1009,7 hPa 0,0 mm 0,0 km/h (0 Bft) S-SW 210 ° 0 min 0,000 mm 0,0 UV-I 0 W/m² 4,4 °C 5,6 °C 0,0 km/h (0 Bft)
03.05.2019 23:19 5,6 °C 92 % 1009,8 hPa 0,0 mm 0,0 km/h (0 Bft) S-SW 210 ° 0 min 0,000 mm 0,0 UV-I 0 W/m² 4,4 °C 5,6 °C 0,0 km/h (0 Bft)
03.05.2019 23:20 5,5 °C 92 % 1009,8 hPa 0,0 mm 0,0 km/h (0 Bft) S-SW 210 ° 0 min 0,000 mm 0,0 UV-I 0 W/m² 4,3 °C 5,5 °C 0,0 km/h (0 Bft)
03.05.2019 23:21 5,5 °C 92 % 1009,6 hPa 0,0 mm 0,0 km/h (0 Bft) S-SW 210 ° 0 min 0,000 mm 0,0 UV-I 0 W/m² 4,3 °C 5,5 °C 0,0 km/h (0 Bft)
03.05.2019 23:22 5,5 °C 92 % 1009,7 hPa 0,0 mm 0,0 km/h (0 Bft) S-SW 210 ° 0 min 0,000 mm 0,0 UV-I 0 W/m² 4,3 °C 5,5 °C 0,0 km/h (0 Bft)
03.05.2019 23:23 5,5 °C 92 % 1009,6 hPa 0,0 mm 0,0 km/h (0 Bft) S-SW 210 ° 0 min 0,000 mm 0,0 UV-I 0 W/m² 4,3 °C 5,5 °C 0,0 km/h (0 Bft)
03.05.2019 23:24 5,5 °C 92 % 1009,7 hPa 0,0 mm 0,0 km/h (0 Bft) S-SW 210 ° 0 min 0,000 mm 0,0 UV-I 0 W/m² 4,3 °C 5,5 °C 0,0 km/h (0 Bft)
03.05.2019 23:25 5,4 °C 92 % 1009,7 hPa 0,0 mm 0,0 km/h (0 Bft) S-SW 210 ° 0 min 0,000 mm 0,0 UV-I 0 W/m² 4,2 °C 5,4 °C 0,0 km/h (0 Bft)
03.05.2019 23:26 5,4 °C 92 % 1009,6 hPa 0,0 mm 0,0 km/h (0 Bft) S-SW 210 ° 0 min 0,000 mm 0,0 UV-I 0 W/m² 4,2 °C 5,4 °C 0,0 km/h (0 Bft)
03.05.2019 23:27 5,4 °C 92 % 1009,7 hPa 0,0 mm 0,0 km/h (0 Bft) S-SW 210 ° 0 min 0,000 mm 0,0 UV-I 0 W/m² 4,2 °C 5,4 °C 0,0 km/h (0 Bft)
03.05.2019 23:28 5,4 °C 92 % 1009,7 hPa 0,0 mm 0,0 km/h (0 Bft) S-SW 210 ° 0 min 0,000 mm 0,0 UV-I 0 W/m² 4,2 °C 5,4 °C 0,0 km/h (0 Bft)
03.05.2019 23:29 5,5 °C 92 % 1009,6 hPa 0,0 mm 0,0 km/h (0 Bft) S-SW 210 ° 0 min 0,000 mm 0,0 UV-I 0 W/m² 4,3 °C 5,5 °C 0,0 km/h (0 Bft)
03.05.2019 23:30 5,4 °C 92 % 1009,7 hPa 0,0 mm 0,0 km/h (0 Bft) S-SW 210 ° 0 min 0,000 mm 0,0 UV-I 0 W/m² 4,2 °C 5,4 °C 0,0 km/h (0 Bft)
03.05.2019 23:31 5,5 °C 92 % 1009,7 hPa 0,0 mm 0,0 km/h (0 Bft) S-SW 210 ° 0 min 0,000 mm 0,0 UV-I 0 W/m² 4,3 °C 5,5 °C 0,0 km/h (0 Bft)
03.05.2019 23:32 5,5 °C 92 % 1009,7 hPa 0,0 mm 0,0 km/h (0 Bft) S-SW 210 ° 0 min 0,000 mm 0,0 UV-I 0 W/m² 4,3 °C 5,5 °C 0,0 km/h (0 Bft)
03.05.2019 23:33 5,4 °C 92 % 1009,7 hPa 0,0 mm 0,0 km/h (0 Bft) S-SW 210 ° 0 min 0,000 mm 0,0 UV-I 0 W/m² 4,2 °C 5,4 °C 0,0 km/h (0 Bft)
03.05.2019 23:34 5,4 °C 92 % 1009,8 hPa 0,0 mm 0,0 km/h (0 Bft) S-SW 210 ° 0 min 0,000 mm 0,0 UV-I 0 W/m² 4,2 °C 5,4 °C 0,0 km/h (0 Bft)
03.05.2019 23:35 5,4 °C 92 % 1009,7 hPa 0,0 mm 0,0 km/h (0 Bft) S-SW 210 ° 0 min 0,000 mm 0,0 UV-I 0 W/m² 4,2 °C 5,4 °C 0,0 km/h (0 Bft)
03.05.2019 23:36 5,4 °C 92 % 1009,7 hPa 0,0 mm 0,0 km/h (0 Bft) S-SW 210 ° 0 min 0,000 mm 0,0 UV-I 0 W/m² 4,2 °C 5,4 °C 0,0 km/h (0 Bft)
03.05.2019 23:37 5,4 °C 92 % 1009,7 hPa 0,0 mm 0,0 km/h (0 Bft) S-SW 210 ° 0 min 0,000 mm 0,0 UV-I 0 W/m² 4,2 °C 5,4 °C 0,0 km/h (0 Bft)
03.05.2019 23:38 5,4 °C 92 % 1009,7 hPa 0,0 mm 0,0 km/h (0 Bft) S-SW 210 ° 0 min 0,000 mm 0,0 UV-I 0 W/m² 4,2 °C 5,4 °C 0,0 km/h (0 Bft)
03.05.2019 23:39 5,4 °C 92 % 1009,7 hPa 0,0 mm 0,0 km/h (0 Bft) S-SW 210 ° 0 min 0,000 mm 0,0 UV-I 0 W/m² 4,2 °C 5,4 °C 0,0 km/h (0 Bft)
03.05.2019 23:40 5,5 °C 92 % 1009,7 hPa 0,0 mm 0,0 km/h (0 Bft) S-SW 210 ° 0 min 0,000 mm 0,0 UV-I 0 W/m² 4,3 °C 5,5 °C 0,0 km/h (0 Bft)
03.05.2019 23:41 5,5 °C 92 % 1009,7 hPa 0,0 mm 0,0 km/h (0 Bft) S-SW 210 ° 0 min 0,000 mm 0,0 UV-I 0 W/m² 4,3 °C 5,5 °C 0,0 km/h (0 Bft)
03.05.2019 23:42 5,5 °C 92 % 1009,7 hPa 0,0 mm 0,0 km/h (0 Bft) S-SW 210 ° 0 min 0,000 mm 0,0 UV-I 0 W/m² 4,3 °C 5,5 °C 0,0 km/h (0 Bft)
03.05.2019 23:43 5,6 °C 92 % 1009,7 hPa 0,0 mm 0,0 km/h (0 Bft) S-SW 210 ° 0 min 0,000 mm 0,0 UV-I 0 W/m² 4,4 °C 5,6 °C 0,0 km/h (0 Bft)
03.05.2019 23:44 5,5 °C 92 % 1009,7 hPa 0,0 mm 0,0 km/h (0 Bft) S-SW 210 ° 0 min 0,000 mm 0,0 UV-I 0 W/m² 4,3 °C 5,5 °C 0,0 km/h (0 Bft)
03.05.2019 23:45 5,5 °C 92 % 1009,7 hPa 0,0 mm 0,0 km/h (0 Bft) S-SW 210 ° 0 min 0,000 mm 0,0 UV-I 0 W/m² 4,3 °C 5,5 °C 0,0 km/h (0 Bft)
03.05.2019 23:46 5,5 °C 92 % 1009,7 hPa 0,0 mm 0,0 km/h (0 Bft) S-SW 210 ° 0 min 0,000 mm 0,0 UV-I 0 W/m² 4,3 °C 5,5 °C 0,0 km/h (0 Bft)
03.05.2019 23:47 5,6 °C 92 % 1009,7 hPa 0,0 mm 0,0 km/h (0 Bft) S-SW 210 ° 0 min 0,000 mm 0,0 UV-I 0 W/m² 4,4 °C 5,6 °C 0,0 km/h (0 Bft)
03.05.2019 23:48 5,5 °C 92 % 1009,7 hPa 0,0 mm 0,0 km/h (0 Bft) S-SW 210 ° 0 min 0,000 mm 0,0 UV-I 0 W/m² 4,3 °C 5,5 °C 0,0 km/h (0 Bft)
03.05.2019 23:49 5,6 °C 92 % 1009,7 hPa 0,0 mm 0,0 km/h (0 Bft) S-SW 210 ° 0 min 0,000 mm 0,0 UV-I 0 W/m² 4,4 °C 5,6 °C 0,0 km/h (0 Bft)
03.05.2019 23:50 5,5 °C 92 % 1009,7 hPa 0,0 mm 0,0 km/h (0 Bft) S-SW 210 ° 0 min 0,000 mm 0,0 UV-I 0 W/m² 4,3 °C 5,5 °C 0,0 km/h (0 Bft)
03.05.2019 23:51 5,5 °C 92 % 1009,7 hPa 0,0 mm 0,0 km/h (0 Bft) S-SW 210 ° 0 min 0,000 mm 0,0 UV-I 0 W/m² 4,3 °C 5,5 °C 0,0 km/h (0 Bft)
03.05.2019 23:52 5,6 °C 92 % 1009,7 hPa 0,0 mm 0,0 km/h (0 Bft) S-SW 210 ° 0 min 0,000 mm 0,0 UV-I 0 W/m² 4,4 °C 5,6 °C 0,0 km/h (0 Bft)
03.05.2019 23:53 5,5 °C 92 % 1009,7 hPa 0,0 mm 0,0 km/h (0 Bft) S-SW 210 ° 0 min 0,000 mm 0,0 UV-I 0 W/m² 4,3 °C 5,5 °C 0,0 km/h (0 Bft)
03.05.2019 23:54 5,5 °C 92 % 1009,7 hPa 0,0 mm 0,0 km/h (0 Bft) S-SW 210 ° 0 min 0,000 mm 0,0 UV-I 0 W/m² 4,3 °C 5,5 °C 0,0 km/h (0 Bft)
03.05.2019 23:55 5,5 °C 92 % 1009,7 hPa 0,0 mm 0,0 km/h (0 Bft) S-SW 210 ° 0 min 0,000 mm 0,0 UV-I 0 W/m² 4,3 °C 5,5 °C 0,0 km/h (0 Bft)
03.05.2019 23:56 5,6 °C 92 % 1009,7 hPa 0,0 mm 0,0 km/h (0 Bft) S-SW 210 ° 0 min 0,000 mm 0,0 UV-I 0 W/m² 4,4 °C 5,6 °C 0,0 km/h (0 Bft)
03.05.2019 23:57 5,6 °C 92 % 1009,7 hPa 0,0 mm 0,0 km/h (0 Bft) S-SW 210 ° 0 min 0,000 mm 0,0 UV-I 0 W/m² 4,4 °C 5,6 °C 0,0 km/h (0 Bft)
03.05.2019 23:58 5,5 °C 92 % 1009,7 hPa 0,0 mm 0,0 km/h (0 Bft) S-SW 210 ° 0 min 0,000 mm 0,0 UV-I 0 W/m² 4,3 °C 5,5 °C 0,0 km/h (0 Bft)
03.05.2019 23:59 5,6 °C 92 % 1009,7 hPa 0,0 mm 0,0 km/h (0 Bft) S-SW 210 ° 0 min 0,000 mm 0,0 UV-I 0 W/m² 4,4 °C 5,6 °C 0,0 km/h (0 Bft)
_ Min-Zeit 23:39 14:20 05:08 - 23:59 - - - - - - 23:03 04:59 23:59
Minimum _ 5,4 °C 76 % 1007,1 hPa - 0,0 km/h (0 Bft) - - - - - - 4,1 °C 3,0 °C 0,0 km/h (0 Bft)
_ Max-Zeit 12:59 02:33 22:18 12:51 14:17 - - 12:51 13:01 13:03 12:20 12:22 14:24 13:13
Maximum _ 9,9 °C 93 % 1009,9 hPa 0,2 mm 20,4 km/h
W-NW (4 Bft)
- - 1 min 0,229 mm 5,4 UV-I 849 W/m² 7,0 °C 9,4 °C 29,0 km/h
W-NW (5 Bft)
Durchschnitt _ 7,2 °C 87 % 1008,6 hPa #2,6 mm 5,2 km/h (1 Bft) W - #11 min. #1,092 mm 1,4 UV-I 89 W/m² 5,2 °C 6,5 °C 8,7 km/h (2 Bft)